     2              OBSERVATION DATA                        RINEX VERSION / TYPE
DAT2RIN 1.01d Dan Johnson 15SEP96 6:21:45 GMT               PGM / RUN BY / DATE
Mojave '96 team Central Washington U                        OBSERVER / AGENCY
16306 TRIMBLE 4000SSI Nav 7.09 Sig 3.03                     REC # / TYPE / VERS
66922 TRIMBLE CHOKE                                         ANT # / TYPE
CEDA                                                        MARKER NAME
 -2480457.0000 -4551799.0000  3706129.0000                  APPROX POSITION XYZ
        1.3996        0.0000        0.0000                  ANTENNA: DELTA H/E/N
     1     1     0                                          WAVELENGTH FACT L1/2
     5    L1    C1    P1    L2    P2                        # / TYPES OF OBSERV
    30                                                      INTERVAL
  1996     9    13     0     0   30.000000                  TIME OF FIRST OBS
  1996     9    13    23    59    0.000000                  TIME OF LAST OBS
                                                            COMMENT
PANGA GPS Data Analysis Center                              COMMENT
Department of Geology                                       COMMENT
Central Washington University                               COMMENT
Ellensburg, WA 98926                                        COMMENT
                                                            COMMENT
http://www.panga.cwu.edu                                    COMMENT
ftp://panga.cwu.edu                                         COMMENT
                                                            COMMENT
    25                                                      # OF SATELLITES
           1   726   727     0   724   724                  PRN / # OF OBS
           2   844   844     0   836   836                  PRN / # OF OBS
           3   882   883     0   876   876                  PRN / # OF OBS
           4   753   753     0   745   745                  PRN / # OF OBS
           5   723   723     0   719   719                  PRN / # OF OBS
           6   786   786     0   779   779                  PRN / # OF OBS
           7   724   725     0   722   722                  PRN / # OF OBS
           9   839   840     0   833   833                  PRN / # OF OBS
          10   861   861     0   849   849                  PRN / # OF OBS
          14   716   716     0   714   714                  PRN / # OF OBS
          15   854   855     0   848   848                  PRN / # OF OBS
          16   883   884     0   872   872                  PRN / # OF OBS
          17   842   844     0   841   841                  PRN / # OF OBS
          18   770   771     0   768   768                  PRN / # OF OBS
          19   847   848     0   845   845                  PRN / # OF OBS
          21   844   845     0   835   835                  PRN / # OF OBS
          22   870   872     0   861   861                  PRN / # OF OBS
          23   794   794     0   791   791                  PRN / # OF OBS
          24   696   696     0   691   691                  PRN / # OF OBS
          25   655   655     0   653   653                  PRN / # OF OBS
          26   910   911     0   900   900                  PRN / # OF OBS
          27   821   822     0   819   819                  PRN / # OF OBS
          28   625     1   626   626   626                  PRN / # OF OBS
          29   853   853     0   849   849                  PRN / # OF OBS
          31   904   905     0   894   894                  PRN / # OF OBS
                                                            END OF HEADER
 96  9 13  0  0 30.0000000  0  6  1 14 15 21 25 29
  35582846.24310  23381926.36700                  27811323.07450  23381932.15640
  -2159527.49310  22596162.85200                  -1653134.59250  22596167.60940
   1735185.76910  20907851.50800                   1427796.59950  20907855.99640
  49795513.76010  24099865.60900                   9891634.55050  24099870.85940
   1742752.91510  20889103.18800                   1402014.06350  20889106.77340
   -592405.69010  22788271.89100                   -435189.80050  22788276.13340
 96  9 13  0  1  0.0000000  0  6  1 14 15 21 25 29
  35727881.25800  23409525.76600                  27924337.34140  23409531.02740
  -2170106.15300  22594149.71100                  -1661377.68940  22594154.45740
   1816157.93300  20923259.87500                   1490891.79040  20923264.64540
  49954912.62400  24130197.96100                  10015841.37840  24130201.92240
   1822751.35100  20904326.32800                   1464350.51540  20904329.83240
   -581824.92100  22790285.35200                   -426944.99640  22790289.60540
 96  9 13  0  1 30.0000000  0  6  1 14 15 21 25 29
  35872926.91000  23437126.97700                  28037359.91940  23437132.25040
  -2180594.60900  22592153.71900                  -1669550.48440  22592158.84040
   1897757.96900  20938787.94500                   1554476.22940  20938792.62140
  50114524.05300  24160571.25000                  10140213.84140  24160576.35940
   1903284.81900  20919651.37500                   1527103.86840  20919654.83240
   -571059.48200  22792333.36700                   -418556.30940  22792337.58640
 96  9 13  0  2  0.0000000  0  6  1 14 15 21 25 29
  36018016.75500  23464736.69500                  28150416.91440  23464741.78140
  -2190957.46400  22590181.43000                  -1677625.42040  22590186.15240
   1980010.43900  20954439.87500                   1618569.06340  20954444.80940
  50274363.98600  24190987.96100                  10264764.39840  24190994.51240
   1984378.49000  20935082.96100                   1590293.75040  20935086.23040
   -560069.12200  22794425.53100                   -409992.36640  22794429.72740
 96  9 13  0  2 30.0000000  0  6  1 14 15 21 25 29
  36163163.58700  23492357.46100                  28263518.32240  23492362.06640
  -2201188.12400  22588235.33600                  -1685597.34540  22588239.69540
   2062908.27600  20970214.82800                   1683164.77740  20970219.44540
  50434422.72900  24221445.35900                  10389485.40340  24221450.91440
   2066010.39600  20950617.14100                   1653903.03040  20950620.45740
   -548879.55100  22796554.68800                   -401273.17740  22796558.87140
 96  9 13  0  3  0.0000000  0  6  1 14 15 21 25 29
  36308363.75600  23519987.92200                  28376661.28340  23519993.00840
  -2211278.32600  22586314.32000                  -1693459.83140  22586319.14840
   2146445.45500  20986111.84400                   1748258.68040  20986116.39140
  50594673.80200  24251940.35200                  10514356.38840  24251947.24640
   2148170.46300  20966251.59400                   1717923.87040  20966255.02740
   -537513.47000  22798717.63300                   -392416.46540  22798721.55940
 96  9 13  0  3 30.0000000  0  6  1 14 15 21 25 29
  36453629.64400  23547631.63300                  28489855.46240  23547635.71140
  -2221214.41200  22584424.46100                  -1701202.21640  22584429.31340
   2230633.66900  21002132.10900                   1813859.88340  21002136.60940
  50755120.15000  24282471.98400                  10639379.39040  24282477.43440
   2230874.68500  20981989.35900                   1782368.72940  20981992.79340
   -525968.47800  22800914.28100                   -383420.32440  22800917.94940
 96  9 13  0  4  0.0000000  0  6  1 14 15 21 25 29
  36598953.77700  23575285.71900                  28603095.05540  23575289.91440
  -2230993.56400  22582563.17200                  -1708822.31840  22582567.44940
   2315465.89600  21018275.05500                   1879962.91240  21018279.67240
  50915760.48500  24313041.44500                  10764553.60940  24313050.88340
   2314116.73100  20997829.80500                   1847232.66640  20997833.14540
   -514263.04300  22803142.22700                   -374299.16940  22803146.02340
 96  9 13  0  4 30.0010000  0  6  1 14 15 21 25 29
  36744308.60400  23602945.73100                  28716358.52440  23602950.43140
  -2240637.65800  22580727.50500                  -1716337.18240  22580732.48540
   2400927.01300  21034537.91900                   1946555.99040  21034542.45440
  51076598.61800  24343647.76300                  10889881.99340  24343655.46640
   2397877.78700  21013769.19200                   1912501.03540  21013772.76740
   -502422.58500  22805394.78600                   -365072.80740  22805398.87640
 96  9 13  0  5  0.0010000  0  6  1 14 15 21 25 29
  36889677.29400  23630609.13800                  28829632.82340  23630613.89640
  -2250137.31900  22578919.87200                  -1723739.50040  22578924.53640
   2487026.40100  21050921.92700                   2013646.41540  21050926.34540
  51237656.53800  24374297.33300                  11015381.58340  24374305.35340
   2482177.18200  21029810.84900                   1978188.88440  21029814.08340
   -490416.48600  22807678.94200                   -355717.37740  22807682.66940
 96  9 13  0  5 30.0010000  0  6  1 14 15 21 25 29
  37035065.77000  23658275.95000                  28942922.50940  23658280.52140
  -2259499.03400  22577138.69200                  -1731034.32640  22577143.27440
   2573769.85400  21067428.72400                   2081238.71740  21067433.36440
  51398963.77900  24404992.70000                  11141075.58240  24404996.86040
   2567020.51200  21045956.11400                   2044300.57940  21045959.30240
   -478227.54900  22809998.72400                   -346219.46840  22810002.15740
 96  9 13  0  6  0.0010000  0  6  1 14 15 21 25 29
  37180460.60600  23685942.98100                  29056217.18640  23685947.56340
  -2268742.46700  22575379.41100                  -1738236.98840  22575383.70040
   2661148.48200  21084056.46600                   2149325.95940  21084061.07140
  51560525.40700  24435736.72400                  11266967.65140  24435739.67740
   2652398.07200  21062202.89600                   2110828.55340  21062206.35340
   -465855.80000  22812353.47400                   -336579.11140  22812357.35340
 96  9 13  0  6 30.0010000  0  6  1 14 15 21 25 29
  37325879.32200  23713614.36400                  29169530.44940  23713619.64940
  -2277872.26900  22573642.25500                  -1745351.11140  22573646.97840
   2749175.04100  21100807.31000                   2217918.07740  21100811.96240
  51722344.41400  24466529.81000                  11393060.28040  24466533.71240
   2738323.31900  21078553.77800                   2177783.29740  21078557.30640
   -453275.86600  22814747.29400                   -326776.54240  22814751.06740
 96  9 13  0  7  0.0010000  0  6  1 14 15 21 25 29
  37471315.13500  23741291.34900                  29282857.04040  23741296.27140
  -2286909.25500  22571922.48900                  -1752392.89940  22571927.25940
   2837832.81100  21117678.40300                   2287002.05240  21117682.97440
  51884387.28100  24497366.73100                  11519327.41840  24497365.40740
   2824784.19400  21095006.44200                   2245155.41740  21095009.85340
   -440498.74600  22817178.38800                   -316820.31440  22817182.14940
 96  9 13  0  7 30.0010000  0  6  1 14 15 21 25 29
  37616792.25400  23768974.15300                  29396215.82240  23768979.22840
  -2295853.47700  22570220.91900                  -1759362.40840  22570225.32540
   2927124.46200  21134669.99700                   2356579.95640  21134674.55640
  52046643.16100  24528242.24700                  11645760.56740  24528247.82540
   2911781.97600  21111561.88000                   2312945.90840  21111565.32540
   -427523.19000  22819647.74700                   -306709.46040  22819651.90740
 96  9 13  0  8  0.0010000  0  6  1 14 15 21 25 29
  37762320.55600  23796666.90300                  29509614.46940  23796672.47040
  -2304697.56400  22568537.14600                  -1766253.88640  22568541.72840
   3017056.95700  21151783.60600                   2426657.22140  21151788.18840
  52209108.27800  24559157.09100                  11772356.67440  24559162.18840
   2999319.44900  21128219.34100                   2381156.92540  21128222.73940
   -414335.41500  22822157.39600                   -296433.24440  22822161.20440
 96  9 13  0  8 30.0010000  0  6  1 14 15 21 25 29
  37907909.88800  23824372.17700                  29623060.68340  23824377.56740
  -2313429.23400  22566876.13000                  -1773057.77240  22566880.70040
   3107629.35300  21169018.98900                   2497233.10440  21169023.38440
  52371770.27200  24590108.96600
   3087388.03500  21144978.70800                   2449781.80240  21144981.95440
   -400937.20900  22824707.20800                   -285993.06840  22824711.01740
 96  9 13  0  9  0.0010000  0  6  1 14 15 21 25 29
  38053547.18600  23852085.45000                  29736544.27240  23852089.79840
  -2322043.40900  22565235.99700                  -1779770.09640  22565240.68540
   3198832.12700  21186374.30200                   2568300.19540  21186379.00140
                  24621097.91100
   3175974.21800  21161836.02800                   2518810.00240  21161839.27440
   -387344.96500  22827292.77800                   -275401.68040  22827296.50540
 96  9 13  0  9 30.0010000  0  5  1 14 15 25 29
  38199241.90500  23879810.35600                  29850072.62340  23879814.21240
  -2330507.78800  22563625.95000                  -1786365.70340  22563630.81340
   3290683.42700  21203853.03600                   2639872.62540  21203857.57140
   3265078.66300  21178792.02100                   2588242.03840  21178795.41940
   -373545.98800  22829918.72400                   -264649.21040  22829922.45040
 96  9 13  0 10  0.0010000  0  5  1 14 15 25 29
  38344971.77300  23907542.09100                  29963628.32440  23907547.69240
  -2338807.71600  22562046.60600                  -1792833.16240  22562050.98940
   3383173.28200  21221453.06000                   2711942.63440  21221457.70040
   3354687.84100  21195844.16100                   2658067.37240  21195847.46640
   -359563.81900  22832579.87200                   -253753.99040  22832583.61040
 96  9 13  0 10 30.0010000  0  5  1 14 15 25 29
  38490731.34500  23935278.37200                  30077207.19640  23935284.43140
  -2346926.06700  22560501.51300                  -1799159.15140  22560506.09540
   3476298.95400  21239174.50500                   2784508.08240  21239179.08740
   3444801.08700  21212992.21600                   2728285.49040  21212995.43840
   -345412.80700  22835272.76300                   -242727.20240  22835276.43140
 96  9 13  0 11  0.0010000  0  5  1 14 15 25 29
  38636513.59000  23963021.83300                  30190803.69640  23963026.46240
  -2354860.61700  22558991.09100                  -1805341.90540  22558995.45040
   3570054.04300  21257015.42700                   2857563.98940  21257019.97440
   3535415.27400  21230235.34100                   2798893.94840  21230238.68140
   -331093.26100  22837997.18500                   -231569.08640  22838001.04040
 96  9 13  0 11 30.0010000  0  5  1 14 15 25 29
  38782317.93800  23990766.43500                  30304417.47640  23990770.60640
  -2362598.13300  22557519.14600                  -1811371.12940  22557523.84540
   3664436.89500  21274975.64600                   2931109.05440  21274980.34540
   3626538.19000  21247575.55200                   2869898.82040  21247578.93840
   -316594.93400  22840757.05200                   -220271.66640  22840760.50940
 96  9 13  0 12  0.0010000  0  5  1 14 15 25 29
  38928157.01900  24018518.59900                  30418058.29540  24018523.09940
  -2370136.68900  22556084.77100                  -1817245.31840  22556088.93140
   3759451.90100  21293056.56000                   3005146.71840  21293061.29440
   3718206.85900  21265019.23100                   2941328.95440  21265022.67740
   -301907.24800  22843551.87200                   -208826.68140  22843555.38840
 96  9 13  0 12 30.0010000  0  5  1 14 15 25 29
  39074041.10400  24046279.56000                  30531734.18340  24046284.95040
  -2377491.83500  22554684.84100                  -1822976.60040  22554689.32940
   3855105.64800  21311258.96600                   3079682.09240  21311263.63040
   3810439.77400  21282570.57500                   3013198.75940  21282573.95040
   -287010.97900  22846385.61400                   -197219.17740  22846389.41140
 96  9 13  0 13  0.0010000  0  5  1 14 15 25 29
  39219950.31200  24074044.84900                  30645429.64440  24074050.22840
  -2384692.40000  22553315.30200                  -1828587.41540  22553319.55640
   3951385.36700  21329580.27100                   3154705.24240  21329585.04040
   3903231.38200  21300228.51300                   3085503.90840  21300232.00540
   -271913.73800  22849259.08300                   -185455.06140  22849263.02140
 96  9 13  0 13 30.0010000  0  5  1 14 15 25 29
  39365873.38100  24101813.63800                  30759135.88140  24101818.71240
  -2391761.79300  22551969.73100                  -1834096.01540  22551974.16140
   4048283.68000  21348019.38000                   3230210.41340  21348024.09140
   3996574.07100  21317991.12200                   3158238.48040  21317994.40340
   -256632.78600  22852167.02800                   -173547.79240  22852170.70840
 96  9 13  0 14  0.0010000  0  5  1 14 15 25 29
  39511814.28600  24129585.23900                  30872856.04540  24129590.19640
  -2398702.44500  22550649.01300                  -1839504.31440  22550653.46640
   4145808.78500  21366577.98900                   3306203.98940  21366582.53640
   4090468.08800  21335858.47400                   3231402.64840  21335861.76740
   -241167.25900  22855109.56700                   -161496.71740  22855113.10640
 96  9 13  0 14 30.0010000  0  6  1 14 15 22 25 29
  39657777.87500  24157361.61400                  30986593.88540  24157366.10340
  -2405494.76600  22549355.91900                  -1844797.01640  22549360.73540
   4243970.21100  21385257.58300                   3382693.40240  21385262.04840
     -4062.67110  25013167.64600
   4184893.16400  21353826.40300                   3304980.62940  21353829.68540
   -225499.53700  22858091.27800                   -149288.08040  22858094.87640
 96  9 13  0 15  0.0010000  0  6  1 14 15 22 25 29
  39803752.59200  24185139.45800                  31100340.38240  24185143.80640
  -2412133.43800  22548093.01300                  -1849969.99940  22548097.39640
   4342755.68000  21404055.51300                   3459669.08540  21404060.32940
    -28475.65500  25008520.95800
   4279815.24300  21371889.85600                   3378945.88740  21371893.29040
   -209640.00200  22861109.24700                   -136929.97840  22861113.16140
 96  9 13  0 15 30.0020000  0  6  1 14 15 22 25 29
  39949736.21100  24212919.49400                  31214093.82840  24212923.49040
  -2418617.57100  22546858.93900                  -1855022.54840  22546863.46340
   4442156.13900  21422971.08000                   3537123.97740  21422975.74440
    -52977.10600  25003860.05700
   4375208.21600  21390042.53300                   3453278.07940  21390045.97940
   -193596.15700  22864162.54900                   -124428.25540  22864165.85440
 96  9 13  0 16  0.0020000  0  6  1 14 15 22 25 29
  40095738.94600  24240702.54100                  31327862.17540  24240707.87340
  -2424917.15200  22545660.72900                  -1859931.30540  22545664.79540
   4542180.80400  21442004.87700                   3615065.26540  21442009.49440
    -77542.23900  24999183.73600                    -12124.99850  24999191.18240
   4471078.04700  21408286.04100                   3527981.84440  21408289.31140
   -177345.96500  22867254.65000                   -111765.75040  22867258.11940
 96  9 13  0 16 30.0020000  0  6  1 14 15 22 25 29
  40241776.92400  24268492.85400                  31441657.97740  24268497.91640
  -2431028.59500  22544497.56400                  -1864693.45940  22544501.67840
   4642840.06500  21461159.56400                   3693501.04140  21461164.43940
   -102145.44600  24994502.00200                    -31296.19340  24994508.23640
   4567432.28400  21426621.68200                   3603063.07240  21426625.05740
   -160879.35900  22870387.68200                    -98934.60040  22870391.67840
 96  9 13  0 17  0.0020000  0  6  1 14 15 22 25 29
  40387827.69900  24296284.90000                  31555463.76240  24296289.76440
  -2436982.64200  22543364.13500                  -1869332.96340  22543368.68240
   4744109.85900  21480430.86100                   3772412.55940  21480435.78340
   -126813.38200  24989808.03300                    -50517.85840  24989813.50640
   4664259.28100  21445047.29100                   3678512.67440  21445050.59640
   -144237.47600  22873555.04100                    -85966.88140  22873558.90840
 96  9 13  0 17 30.0020000  0  6  1 14 15 22 25 29
  40533911.14800  24324084.06400                  31669294.98740  24324089.13940
  -2442773.89300  22542262.50200                  -1873845.61140  22542266.54540
   4845996.77400  21499819.39300                   3851804.95040  21499824.26840
   -151517.10400  24985106.33000                    -69767.39740  24985115.22940
   4761578.61800  21463566.68200                   3754345.92840  21463569.89340
   -127416.65600  22876756.02500                    -72859.72340  22876759.93940
 96  9 13  0 18  0.0020000  0  6  1 14 15 22 25 29
  40680028.54900  24351889.61100                  31783152.67840  24351893.24440
  -2448411.04200  22541189.16600                  -1878238.18340  22541193.38540
   4948491.08400  21519323.25200                   3931670.63440  21519328.01040
   -176250.46100  24980401.24400                    -89040.02940  24980406.31840
   4859393.50300  21482180.05700                   3830565.31940  21482183.30340
   -110433.74600  22879987.46300                    -59626.26340  22879991.26040
 96  9 13  0 18 30.0020000  0  6  1 14 15 22 25 29
  40826186.02000  24379701.22100                  31897041.61240  24379706.34240
  -2453889.22300  22540146.83000                  -1882506.88440  22540151.23640
   5051601.22800  21538944.30700                   4012016.18540  21538948.95940
   -201002.16400  24975689.85400                   -108326.93740  24975696.74840
   4957719.54000  21500891.11900                   3907183.00840  21500894.27140
    -93277.73700  22883252.39300                    -46257.92440  22883256.07240
 96  9 13  0 19  0.0020000  0  6  1 14 15 22 25 29
  40972383.13800  24407522.41600                  32010961.40940  24407527.33840
  -2459200.61100  22539135.93200                  -1886645.61540  22539140.70140
   5155318.71400  21558681.31400                   4092834.99340  21558686.13140
   -225799.04300  24970970.54900                   -127649.11740  24970977.65440
   5056554.57200  21519698.71300                   3984197.31740  21519701.71340
    -75960.52900  22886547.41600                    -32763.97340  22886551.15440
 96  9 13  0 19 30.0020000  0  6  1 14 15 22 25 29
  41118625.87800  24435350.78300                  32124916.76640  24435357.19340
  -2464339.10800  22538159.02500                  -1890649.62440  22538163.44340
   5259644.96000  21578534.12700                   4174128.16340  21578538.85040
   -250635.71400  24966246.09600                   -147002.24740  24966252.21340
   5155901.59200  21538603.63500                   4061610.58040  21538606.72940
    -58474.60600  22889874.81400                    -19138.55140  22889878.81140
 96  9 13  0 20  0.0020000  0  6  1 14 15 22 25 29
  41264898.54100  24463186.09600                  32238895.46040  24463190.18640
  -2469289.46000  22537216.20500                  -1894507.03340  22537220.77540
   5364585.23300  21598503.50200                   4255899.79640  21598508.23640
   -275512.20300  24961512.04100                   -166386.45740  24961517.78340
   5255765.61800  21557607.18200                   4139426.71040  21557610.53340
    -40818.37900  22893234.95500                     -5380.44040  22893238.83440
 96  9 13  0 20 30.0020000  0  6  1 14 15 22 25 29
  41411191.06800  24491024.76800                  32352889.60540  24491030.86140
  -2474034.03300  22536313.53300                  -1898204.09440  22536318.17440
   5470145.88100  21618590.83800                   4338154.83540  21618595.57240
   -300421.91500  24956772.16600                   -185796.49040  24956777.73240
   5356148.64300  21576709.43200                   4217647.24840  21576712.79540
    -22984.80000  22896627.96300                      8515.86640  22896631.90040
 96  9 13  0 21  0.0020000  0  6  1 14 15 22 25 29
  41557500.75800  24518866.04100                  32466897.14340  24518871.45540
  -2478557.40600  22535452.99400                  -1901728.79840  22535457.50640
   5576320.99800  21638795.55700                   4420888.68240  21638800.15040
   -325360.22000  24952025.85400                   -205228.86140  24952033.46340
   5457038.99300  21595908.15800                   4296263.10540  21595911.41640
     -4984.20400  22900053.40800                     22542.32440  22900057.32240
 96  9 13  0 21 30.0020000  0  6  1 14 15 22 25 29
  41703807.92500  24546707.76800                  32580902.69840  24546713.70940
  -2482883.88300  22534629.51800                  -1905100.06640  22534634.21740
   5683093.17900  21659113.68900                   4504087.77840  21659118.30740
   -350322.66500  24947274.91600                   -224680.00940  24947280.02540
   5558412.19200  21615198.93900                   4375255.20440  21615202.13940
     13183.83100  22903510.80700                     36699.26040  22903514.24040
 96  9 13  0 22  0.0020000  0  6  1 14 15 22 25 29
  41850118.03400  24574549.54900                  32694910.56540  24574554.52940
  -2487007.02100  22533845.00200                  -1908312.89240  22533849.51440
   5790472.72300  21679546.97900                   4587760.13440  21679551.70140
   -375291.10700  24942523.40800                   -244135.84440  24942531.13540
   5660269.05200  21634581.51800                   4454624.17840  21634584.89340
     31545.85600  22907005.14300                     51007.34440  22907008.72940
 96  9 13  0 22 30.0020000  0  6  1 14 15 22 25 29
  41996454.31900  24602396.87700                  32808938.82640  24602401.70540
  -2490945.88700  22533095.18200                  -1911382.14340  22533099.68240
   5898460.07900  21700096.47100                   4671906.11840  21700101.22940
   -400263.17800  24937772.39300                   -263594.46040  24937780.04940
   5762608.25600  21654056.07200                   4534369.01340  21654059.37740
     50115.17200  22910538.77500                     65476.96540  22910542.52540
 96  9 13  0 23  0.0020000  0  6  1 14 15 22 25 29
  42142819.26100  24630249.29100                  32922989.40140  24630253.97940
  -2494721.32900  22532376.71300                  -1914324.03640  22532380.90840
   6007040.63600  21720758.60400                   4756514.32940  21720763.26840
   -425251.46600  24933016.40800                   -283065.77340  24933021.01440
   5865423.01100  21673621.01800                   4614484.40340  21673624.40440
     68888.83700  22914111.22100                     80105.80640  22914114.95940
 96  9 13  0 23 30.0020000  0  6  1 14 15 22 25 29
  42289212.87500  24658106.64300                  33037062.31240  24658111.85740
  -2498335.61700  22531688.94700                  -1917140.35440  22531693.27140
   6116218.85900  21741534.57200                   4841588.26440  21741539.40040
   -450251.19400  24928260.02500                   -302545.98640  24928265.87340
   5968725.95800  21693279.04100                   4694980.20140  21693282.29940
     87873.78800  22917723.65800                     94899.29640  22917727.36140
 96  9 13  0 24  0.0020000  0  6  1 14 15 22 25 29
  42435630.01700  24685969.00200                  33151153.59740  24685973.71340
  -2501769.22900  22531035.58800                  -1919815.88740  22531039.94740
   6225995.87000  21762424.21300                   4927128.78140  21762429.07640
   -475269.00600  24923498.42400                   -322040.30840  24923505.98640
   6072533.01800  21713033.11100                   4775868.81440  21713036.36940
    107053.93100  22921373.31400                    109844.86540  22921377.06440
 96  9 13  0 24 30.0020000  0  6  1 14 15 22 25 29
  42582089.49800  24713839.58000                  33265277.84240  24713844.09240
  -2504970.66700  22530426.51800                  -1922310.50540  22530430.97140
   6336389.43600  21783431.62700                   5013149.73040  21783436.44340
   -500280.30800  24918739.02500                   -341529.53440  24918745.22540
   6176880.20100  21732889.48600                   4857178.31140  21732892.87340
    126433.66300  22925061.18200                    124945.97940  22925064.82640
 96  9 13  0 25  0.0020000  0  6  1 14 15 22 25 29
  42728553.16800  24741710.03300                  33379405.33540  24741715.81140
  -2507936.99700  22529861.80700                  -1924621.92640  22529866.18940
   6447372.13300  21804550.86100                   5099629.74040  21804555.74840
   -525300.68000  24913978.28300                   -361025.80240  24913984.78740
   6281742.98500  21752844.26800                   4938889.57140  21752847.61940
    145986.24800  22928782.29900                    140181.78240  22928786.03740
 96  9 13  0 25 30.0020000  0  6  1 14 15 22 25 29
  42875029.56700  24769583.79900                  33493542.79440  24769588.68640
  -2510655.89000  22529344.18200                  -1926740.52940  22529348.57640
   6558949.88700  21825783.51000                   5186573.43140  21825788.38540
   -550325.03500  24909215.43900                   -380525.26340  24909221.76840
   6387107.26400  21772894.29100                   5020991.60840  21772897.77140
    165713.96800  22932536.44700                    155554.04040  22932539.99840
 96  9 13  0 26  0.0020000  0  6  1 14 15 22 25 29
  43021520.13500  24797458.72900                  33607691.26040  24797463.99040
  -2513130.37200  22528873.93900                  -1928668.68840  22528878.58040
   6671114.41200  21847127.51800                   5273974.34940  21847132.41640
   -575356.73200  24904451.76000                   -400030.37740  24904457.17440
   6492952.68000  21793035.79900                   5103468.55440  21793039.22140
    185614.44600  22936322.96300                    171060.93140  22936326.83040
 96  9 13  0 26 30.0020000  0  6  1 14 15 22 25 29
  43168050.15100  24825343.72900                  33721870.47440  24825349.38940
  -2515369.91400  22528447.62700                  -1930413.77140  22528452.29140
   6783872.17300  21868584.96300                   5361837.53040  21868589.74440
   -600384.14000  24899689.81400                   -419532.16940  24899695.80340
   6599271.34100  21813267.66600                   5186314.26740  21813271.28740
    205706.87000  22940146.68900                    186717.37740  22940150.28740
 96  9 13  0 27  0.0030000  0  6  1 14 15 22 25 29
  43314619.12000  24853234.11600                  33836080.05340  24853240.66740
  -2517420.06600  22528057.44400                  -1932011.27740  22528061.99140
   6897215.44200  21890153.49100                   5450156.95240  21890158.21440
   -625421.95600  24894926.08500                   -439042.11840  24894931.45240
   6706032.88000  21833583.86600                   5269505.07440  21833587.34740
    225987.33900  22944006.31900                    202520.35940  22944010.08140
 96  9 13  0 27 30.0030000  0  6  1 14 15 22 25 29
  43461210.42700  24881130.07700                  33950307.01940  24881134.90540
  -2519293.33200  22527700.76500                  -1933470.95440  22527705.40540
   7011137.15300  21911831.87400                   5538927.10540  21911836.52640
   -650467.16100  24890159.54600                   -458557.77440  24890164.69040
   6813227.37600  21853982.08500                   5353033.25240  21853985.50740
    246447.90300  22947899.43700                    218463.67240  22947903.14040
 96  9 13  0 28  0.0030000  0  6  1 14 15 22 25 29
  43607815.82300  24909028.95200                  34064544.99040  24909033.58140
  -2520997.51400  22527376.30400                  -1934798.88140  22527380.60440
   7125640.92400  21933621.30400                   5628150.81540  21933626.37840
   -675498.57700  24885395.61600                   -478062.67140  24885401.37040
   6920878.38400  21874467.46000                   5436917.15840  21874470.68340
    267094.65000  22951828.39000                    234552.06040  22951832.22240
 96  9 13  0 28 30.0030000  0  6  1 14 15 22 25 29
  43754430.72200  24936928.89700                  34178790.34340  24936932.12040
  -2522536.35400  22527083.55400                  -1935997.95940  22527088.18340
   7240724.04000  21955521.02200                   5717825.96240  21955525.67540
   -700513.47800  24880635.79600                   -497554.72240  24880642.08940
   7028999.86200  21895042.31900                   5521167.65640  21895045.77640
    287923.80400  22955792.03000                    250782.59040  22955795.66340
 96  9 13  0 29  0.0030000  0  6  1 14 15 22 25 29
  43901052.70200  24964828.93700                  34293041.22940  24964833.95240
  -2523875.53100  22526828.96000                  -1937041.46640  22526833.62440
   7356397.28800  21977532.95200                   5807960.95140  21977537.80440
   -725489.92100  24875882.57700                   -517016.80840  24875887.66340
   7137619.60000  21915711.99100                   5605806.41240  21915715.28440
    308947.85100  22959792.68700                    267164.97340  22959796.15540
 96  9 13  0 29 30.0030000  0  6  1 14 15 22 25 29
  44047666.61800  24992729.76500                  34407285.84040  24992733.77240
  -2524993.73000  22526616.31900                  -1937912.77740  22526620.89040
   7472648.70900  21999654.92900                   5898546.46740  21999659.69840
   -750430.42400  24871136.64700                   -536450.87440  24871142.46040
   7246747.13200  21936478.13200                   5690840.84940  21936481.55440
    330159.06400  22963829.17100                    283693.20440  22963832.80440
 96  9 13  0 30  0.0030000  0  6  1 14 15 22 25 29
  44194274.77000  25020627.29600                  34521525.94240  25020630.81240
  -2525894.66900  22526444.53800                  -1938614.79640  22526449.08540
   7589463.49300  22021883.78800                   5989570.96040  22021888.46440
   -775336.13200  24866396.07700                   -555857.82040  24866403.53440
   7356373.22800  21957339.10100                   5776263.78240  21957342.47640
    351549.65900  22967899.42100                    300361.21540  22967902.96040
 96  9 13  0 30 30.0030000  0  6  1 14 15 22 25 29
  44340906.62000  25048530.65500                  34635784.48040  25048536.29240
  -2526524.46300  22526324.71800                  -1939105.53640  22526329.42940
   7706870.17200  22044225.85100                   6081056.67040  22044230.37440
   -800185.80400  24861667.05400                   -575221.14540  24861674.69840
   7466517.12700  21978299.09300                   5862090.19340  21978302.70240
    373145.80100  22972009.28000                    317189.38640  22972012.94840
 96  9 13  0 31  0.0030000  0  6  1 14 15 22 25 29
  44487556.57000  25076437.86600                  34750057.15340  25076441.99140
  -2526885.00900  22526256.17100                  -1939386.47240  22526260.35440
   7824860.51600  22066678.52200                   6172997.18140  22066683.03440
   -824972.77900  24856951.42100                   -594535.57140  24856957.03440
   7577150.17500  21999352.04600                   5948297.76140  21999355.50340
    394937.18900  22976155.70200                    334169.70240  22976159.68740
 96  9 13  0 31 30.0030000  0  6  1 14 15 22 25 29
  44634218.77400  25104347.28800                  34864339.32240  25104351.46040
  -2526999.58400  22526234.45200                  -1939475.74040  22526238.80040
   7943419.27600  22089239.54600                   6265380.61340  22089244.12840
   -849699.71400  24852244.99900                   -613803.21340  24852251.22240
   7688233.23800  22020490.26500                   6034855.98840  22020493.48740
    416897.57600  22980334.86600                    351281.70340  22980338.62840
 96  9 13  0 32  0.0030000  0  6  1 14 15 22 25 29
  44780887.27000  25132257.50700                  34978626.46740  25132262.83940
  -2526888.79500  22526255.85100                  -1939389.40740  22526260.35140
   8062532.85700  22111905.97600                   6358196.37940  22111910.65140
   -874378.37700  24847549.40500                   -633033.23740  24847554.03440
   7799735.66300  22041708.62400                   6121740.99340  22041711.97640
    439002.93800  22984540.78800                    368506.67440  22984544.64440
 96  9 13  0 32 30.0030000  0  6  1 14 15 22 25 29
  44927584.87800  25160173.68700                  35092936.24940  25160178.78440
  -2526522.81800  22526325.53000                  -1939104.22340  22526330.07740
   8182222.59000  22134682.17900                   6451461.08940  22134686.53840
   -899003.04500  24842863.60800                   -652221.22540  24842869.94840
   7911682.50100  22063011.33500                   6208972.28740  22063014.62840
    461263.46100  22988777.18700                    385852.55340  22988780.78440
 96  9 13  0 33  0.0030000  0  6  1 14 15 22 25 29
  45074311.57700  25188093.71000                  35207268.70640  25188098.47940
  -2525925.95500  22526438.71000                  -1938639.12940  22526443.11640
   8302474.15200  22157565.11600                   6545163.59440  22157569.71040
   -923579.52100  24838186.42100                   -671371.63040  24838192.57340
   8024059.60000  22084395.98300                   6296538.85240  22084399.17140
    483666.55600  22993040.77200                    403309.52940  22993044.31240
 96  9 13  0 33 30.0030000  0  6  1 14 15 22 25 29
  45221040.18700  25216015.67100                  35321602.64940  25216021.26140
  -2525103.03100  22526595.46800                  -1937997.88540  22526599.88640
   8423270.53500  22180551.83500                   6639290.63040  22180556.65140
   -948144.44300  24833511.59300                   -690513.04840  24833516.58540
   8136864.26400  22105862.10800                   6384438.58340  22105865.51940
    506210.95800  22997330.45200                    420876.61040  22997333.79240
 96  9 13  0 34  0.0030000  0  6  1 14 15 22 25 29
  45367790.25100  25243940.71800                  35435953.32540  25243947.37440
  -2524026.22300  22526800.23300                  -1937158.80140  22526804.72240
   8544633.28000  22203646.69400                   6733858.98940  22203651.53440
   -972688.50800  24828841.61600                   -709638.25540  24828849.08540
   8250130.73000  22127415.75700                   6472698.16540  22127419.19040
    528935.97200  23001655.17900                    438584.43340  23001658.46040
 96  9 13  0 34 30.0030000  0  6  1 14 15 22 25 29
  45514552.78600  25271868.99900                  35550313.70740  25271873.01940
  -2522712.79400  22527050.13200                  -1936135.34240  22527054.39740
   8666552.51700  22226847.03000                   6828860.98340  22226851.84740
   -997206.83600  24824176.06200                   -728743.33540  24824181.89740
   8363856.97200  22149057.16300                   6561316.01040  22149060.55040
    551852.71600  23006015.49900                    456441.64940  23006019.06240
 96  9 13  0 35  0.0030000  0  6  1 14 15 22 25 29
  45661327.39900  25299800.26500                  35664683.53340  25299805.18740
  -2521174.28500  22527342.99900                  -1934936.49740  22527347.35840
   8789029.16200  22250153.71800                   6924297.31540  22250158.71040
  -1021676.37600  24819519.63200                   -747810.40440  24819526.11240
   8478032.04400  22170784.11600                   6650283.59540  22170787.44440
    574985.29800  23010417.49900                    474467.04640  23010421.28440
 96  9 13  0 35 30.0030000  0  6  1 14 15 22 25 29
  45808112.58900  25327731.78800                  35779061.57440  25327736.08940
  -2519410.98100  22527678.61600                  -1933562.48740  22527682.97640
   8912058.84600  22273565.41300                   7020164.58840  22273570.20640
  -1046096.28200  24814871.77200                   -766838.85740  24814877.49140
   8592656.85200  22192596.30400                   6739601.62540  22192599.84340
    598330.22600  23014860.30400                    492657.91440  23014863.71440
 96  9 13  0 36  0.0030000  0  6  1 14 15 22 25 29
  45954925.37000  25355669.31200                  35893461.08440  25355674.73740
  -2517433.60000  22528054.81900                  -1932021.66840  22528059.26140
   9035639.71200  22297081.89700                   7116461.34840  22297086.78440
  -1070438.24200  24810240.01500                   -785806.53940  24810246.47240
   8707731.38100  22214494.14700                   6829270.08940  22214497.69840
    621876.73100  23019341.42100                    511005.85740  23019344.84340
 96  9 13  0 36 30.0030000  0  6  1 14 15 22 25 29
  46101775.30600  25383613.27200                  36007889.59340  25383618.45240
  -2515222.79100  22528474.92900                  -1930298.95440  22528479.44040
   9159780.22000  22320705.40500                   7213194.19640  22320710.06940
  -1094680.51000  24805626.71000                   -804696.49640  24805632.73340
   8823265.31900  22236479.47600                   6919296.53140  22236482.74540
    645629.04000  23023860.74900                    529514.15640  23023864.11240
 96  9 13  0 37  0.0030000  0  6  1 14 15 22 25 29
  46248635.08800  25411559.39000                  36122325.73540  25411563.08140
  -2512768.15400  22528942.30400                  -1928386.24040  22528946.74540
   9284461.22100  22344431.50700                   7310348.20140  22344435.99540
  -1118842.02200  24801028.44400                   -823523.58240  24801035.08940
   8939236.38500  22258548.46000                   7009663.60040  22258551.75340
    669556.50400  23028414.10800                    548158.93740  23028417.72940
 96  9 13  0 37 30.0030000  0  6  1 14 15 22 25 29
  46395501.77800  25439506.72600                  36236767.26840  25439513.41740
  -2510035.53500  22529462.35100                  -1926256.92540  22529466.72240
   9409689.73600  22368261.40500                   7407928.84640  22368266.14040
  -1142919.05300  24796447.21000                   -842284.82540  24796453.83140
   9055659.87600  22280703.06200                   7100383.20340  22280706.34340
    693655.84400  23033000.02200                    566937.66440  23033003.43340
 96  9 13  0 38  0.0040000  0  6  1 14 15 22 25 29
  46542369.27100  25467456.27000                  36351209.44440  25467462.08240
  -2507016.12200  22530036.99600                  -1923904.12740  22530041.49640
   9535466.71400  22392196.03500                   7505936.87140  22392200.99240
  -1166911.14400  24791881.09000                   -860979.88340  24791888.57040
   9172535.55500  22302943.69100                   7191455.16040  22302947.05540
    717929.64400  23037618.77700                    585852.32840  23037622.49240
 96  9 13  0 38 30.0040000  0  6  1 14 15 22 25 29
  46689209.03300  25495398.84000                  36465630.03140  25495402.57840
  -2503708.19900  22530666.49600                  -1921326.51740  22530670.98440
   9661774.85300  22416231.72300                   7604358.78440  22416236.48040
  -1190835.01700  24787328.65200                   -879621.79640  24787335.19140
   9289849.00800  22325267.64500                   7282868.23640  22325271.09040
    742365.83700  23042268.95700                    604893.52240  23042272.39140
 96  9 13  0 39  0.0040000  0  6  1 14 15 22 25 29
  46836032.26200  25523337.54300                  36580037.73040  25523341.86740
  -2500118.79700  22531349.57400                  -1918529.56840  22531354.15640
   9788613.74800  22440368.16800                   7703194.27440  22440372.89140
  -1214690.00900  24782789.16000                   -898210.02640  24782794.83240
   9407601.02400  22347674.99600                   7374623.05240  22347678.72340
    766970.12200  23046951.26200                    624065.70340  23046954.67240
 96  9 13  0 39 30.0040000  0  6  1 14 15 22 25 29
  46982861.38500  25551278.77700                  36694449.96940  25551284.25040
  -2496260.16700  22532083.74600                  -1915522.83840  22532088.09440
   9915988.43800  22464607.00400                   7802447.26840  22464611.86740
  -1238461.51400  24778266.36300                   -916733.20840  24778271.98840
   9525796.30300  22370166.90200                   7466723.26440  22370170.37140
    791748.26500  23051666.45700                    643373.35840  23051670.12540
 96  9 13  0 40  0.0040000  0  6  1 14 15 22 25 29
  47129710.30300  25579224.02700                  36808877.70240  25579227.29740
  -2492147.33600  22532866.80100                  -1912318.02640  22532871.13740
  10043897.46200  22488947.27000                   7902116.62240  22488952.01640
  -1262129.85800  24773762.02000                   -935175.99540  24773768.06640
   9644428.15200  22392741.81600                   7559163.66240  22392745.13340
    816698.89900  23056414.15200                    662815.42040  23056417.94940
 96  9 13  0 40 30.0040000  0  6  1 14 15 22 25 29
  47276581.76600  25607171.17600                  36923322.98640  25607177.07040
  -2487784.01500  22533696.92600                  -1908918.03340  22533701.28540
  10172339.27300  22513389.17600                   8002201.13740  22513393.50040
  -1285686.41800  24769279.07400                   -953531.68040  24769285.47340
   9763484.81600  22415397.50400                   7651935.08540  22415400.91440
    841821.20000  23061194.87100                    682391.24340  23061198.58640
 96  9 13  0 41  0.0040000  0  6  1 14 15 22 25 29
  47423487.51600  25635128.16800                  37037795.01640  25635133.84040
  -2483165.33900  22534575.24600                  -1905319.05340  22534579.62940
  10301313.81300  22537931.99600                   8102700.75840  22537936.40240
  -1309112.69300  24764820.80900                   -971785.87040  24764825.94140
   9882959.89800  22438132.89500                   7745032.54840  22438136.34040
    867119.38800  23066009.13700                    702104.12540  23066013.01640
 96  9 13  0 41 30.0040000  0  6  1 14 15 22 25 29
  47570425.81100  25663088.45700                  37152292.29940  25663092.69940
  -2478277.09300  22535505.59000                  -1901510.02340  22535510.12540
  10430829.36100  22562577.84800                   8203621.94540  22562582.47740
  -1332400.59400  24760389.89500                   -989932.21640  24760395.71940
  10002858.13300  22460948.98800                   7838459.73840  22460952.58640
    892598.01800  23070857.49600                    721957.61240  23070861.24640
 96  9 13  0 42  0.0040000  0  6  1 14 15 22 25 29
  47717366.22600  25691050.60500                  37266791.29240  25691054.64840
  -2473125.66100  22536486.16800                  -1897495.91140  22536490.78540
  10560865.74400  22587323.21500                   8304948.98640  22587327.98440
  -1355582.41000  24755978.27000                  -1007995.90540  24755984.93740
  10123176.37700  22483844.57400                   7932214.20940  22483847.80940
    918247.08100  23075738.41800                    741943.91240  23075742.20340
 96  9 13  0 42 30.0040000  0  6  1 14 15 22 25 29
  47864302.61200  25719011.51200                  37381287.16040  25719016.91440
  -2467711.03300  22537516.58200                  -1893276.71240  22537520.89540
  10691416.37400  22612165.81600                   8406676.72940  22612170.86740
  -1378676.51400  24751583.44100                  -1025991.25240  24751588.05940
  10243922.97500  22506821.91800                   8026302.46340  22506824.88340
    944063.02100  23080650.51200                    762060.23440  23080654.34440
 96  9 13  0 43  0.0040000  0  6  1 14 15 22 25 29
  48011247.40700  25746974.52700                  37495789.55940  25746978.96940
  -2462015.27000  22538600.44900                  -1888838.44940  22538604.72740
  10822490.11100  22637108.58200                   8508812.09340  22637113.51640
  -1401679.71500  24747206.69900                  -1043915.76940  24747211.79740
  10365116.16900  22529884.37100                   8120738.71740  22529887.71140
    970065.56600  23085598.88700                    782321.96740  23085602.50840
 96  9 13  0 43 30.0040000  0  6  1 14 15 22 25 29
  48158190.67800  25774936.88700                  37610290.74940  25774941.55140
  -2456038.15300  22539737.37900                  -1884180.95040  22539741.89140
  10954081.57300  22662149.78500                   8611350.87240  22662154.89540
  -1424606.25600  24742842.33200                  -1061780.54540  24742847.31240
  10486750.91300  22553030.49600                   8215519.03340  22553034.05940
    996249.62600  23090582.02000                    802725.13340  23090585.51240
 96  9 13  0 44  0.0040000  0  6  1 14 15 22 25 29
  48305149.22900  25802902.30100                  37724803.93140  25802907.34040
  -2449774.38700  22540929.66800                  -1879300.08740  22540934.27340
  11086186.21500  22687288.35500                   8714289.54340  22687293.17240
  -1447443.89700  24738497.33200                  -1079576.04440  24738502.74640
  10608821.92300  22576259.89500                   8310639.29340  22576263.59840
   1022613.88800  23095598.55100                    823268.72440  23095602.05540
 96  9 13  0 44 30.0040000  0  6  1 14 15 22 25 29
  48452126.07800  25830871.08200                  37839331.27740  25830877.32840
  -2443221.25800  22542176.73800                  -1874193.74240  22542181.21540
  11218797.28800  22712523.29300                   8817622.83640  22712528.35540
  -1470173.66000  24734171.62100                  -1097287.51840  24734176.81240
  10731304.67600  22599567.60500                   8406080.39540  22599570.94540
   1049160.19000  23100649.86300                    843954.16040  23100653.68440
 96  9 13  0 45  0.0040000  0  6  1 14 15 22 25 29
  48599128.37000  25858844.48800                  37953878.53140  25858849.62140
  -2436366.80100  22543481.23000                  -1868852.60240  22543485.74240
  11351914.02700  22737854.66800                   8921350.15540  22737859.48440
  -1492777.97700  24729870.16000                  -1114901.18740  24729875.17640
  10854188.23300  22622951.35500                   8501833.81040  22622954.73040
   1075884.68800  23105735.35500                    864778.45440  23105739.10540
 96  9 13  0 45 30.0040000  0  6  1 14 15 22 25 29
  48746144.23700  25886821.35500                  38068436.30240  25886825.01240
  -2429226.07000  22544839.82400                  -1863288.39440  22544844.12540
  11485523.38200  22763279.74600                   9025461.31740  22763284.58640
  -1515252.90300  24725593.69900                  -1132414.02940  24725599.12540
  10977468.23500  22646410.91800                   8597896.14540  22646414.50440
   1102758.80900  23110849.36300                    885719.33940  23110852.89140
 96  9 13  0 46  0.0040000  0  6  1 14 15 22 25 29
  48893185.48600  25914802.66000                  38183014.00140  25914802.32040
  -2421775.85300  22546257.78500                  -1857483.02140  22546262.19140
  11619640.13600  22788801.18400                   9129967.86340  22788805.89540
  -1537560.51100  24721349.40200                  -1149796.52640  24721353.46940
  11101168.01700  22669950.20700                   8694285.57740  22669953.85240
   1129803.94500  23115996.00400                    906793.47940  23115999.46140
 96  9 13  0 46 30.0040000  0  6  1 14 15 22 25 29
                  25942782.36300
  -2414025.40800  22547732.30900                  -1851443.71240  22547736.63340
  11754261.79100  22814418.83200                   9234867.82940  22814423.81240
  -1559707.13500  24717133.33200                  -1167053.60940  24717138.03140
  11225287.64200  22693569.37100                   8791002.16340  22693572.85240
   1157017.60600  23121174.80900                    927998.93740  23121178.39540
 96  9 13  0 47  0.0040000  0  5 14 15 22 25 29
  -2405979.43100  22549263.30900                  -1845174.11040  22549267.73840
  11889382.15100  22840131.41000                   9340156.41540  22840136.40240
  -1581706.12500  24712948.21500                  -1184195.62240  24712953.62940
  11349822.29200  22717267.49600                   8888042.14340  22717270.87140
   1184387.89900  23126383.38700                    949326.46140  23126386.57440
 96  9 13  0 47 30.0040000  0  5 14 15 22 25 29
  -2397639.61500  22550850.76200                  -1838675.55040  22550854.96940
  12025000.18800  22865938.85500                   9445832.78940  22865943.81240
  -1603558.58400  24708789.57400                  -1201223.46040  24708795.52740
  11474762.01200  22741042.42600                   8985397.76040  22741046.01240
   1211940.25400  23131626.03500                    970795.83340  23131629.72740
 96  9 13  0 48  0.0040000  0  5 14 15 22 25 29
  -2388997.62800  22552495.00400                  -1831941.52840  22552499.34040
  12161118.12200  22891841.30100                   9551898.68840  22891846.12940
  -1625262.28400  24704659.12900                  -1218135.38340  24704665.11740
  11600093.20200  22764892.42600                   9083058.42240  22764896.11740
   1239698.13800  23136908.55900                    992425.36440  23136912.42640
 96  9 13  0 48 30.0040000  0  5 14 15 22 25 29
  -2380074.85900  22554193.01200                  -1824988.71540  22554197.30140
  12297718.77200  22917835.29300                   9658340.73640  22917840.07440
  -1646850.55100  24700550.78500                  -1234957.36540  24700555.91840
  11725785.36200  22788810.71500                   9181000.35540  22788814.41840
   1267642.09900  23142225.59000                   1014199.89040  23142229.41040
 96  9 13  0 49  0.0040000  0  5 14 15 22 25 29
  -2370848.90000  22555948.52700                  -1817799.65340  22555952.69940
  12434811.26500  22943923.05900                   9765166.03740  22943928.02740
  -1668301.99000  24696469.77000                  -1251672.72540  24696475.74640
  11851851.20600  22812800.30100                   9279233.47440  22812803.89840
   1295780.99900  23147580.09000                   1036126.30840  23147583.91040
 96  9 13  0 49 30.0050000  0  5 14 15 22 25 29
  -2361330.61700  22557759.89900                  -1810382.80340  22557764.03640
  12572386.94800  22970102.79000                   9872367.85840  22970107.70040
  -1689619.10200  24692412.58700                  -1268283.40340  24692418.34140
  11978291.75900  22836861.19600                   9377758.57440  22836864.89940
   1324091.11400  23152967.79000                   1058186.14740  23152971.38840
 96  9 13  0 50  0.0050000  0  5 14 15 22 25 29
  -2351513.19600  22559628.25900                  -1802732.85840  22559632.59540
  12710434.16400  22996372.67300                   9979937.09740  22996377.87640
  -1710802.85500  24688381.50900                  -1284790.17640  24688387.39240
  12105114.23700  22860994.74300                   9476581.28140  22860998.29440
   1352540.71200  23158381.36000                   1080354.66840  23158384.99340
 96  9 13  0 50 30.0050000  0  5 14 15 22 25 29
  -2341381.84400  22561556.22000                  -1794838.29640  22561560.49740
  12848965.33600  23022734.05600                  10087883.43740  23022739.01340
  -1731836.26700  24684378.82100                  -1301179.80040  24684384.15340
  12232345.09900  22885206.19600                   9575722.20940  22885209.70040
   1381130.67500  23163822.15700                   1102632.57140  23163825.90740
 96  9 13  0 51  0.0050000  0  5 14 15 22 25 29
  -2330927.80600  22563545.31300                  -1786692.28040  22563549.70840
  12987984.62200  23049188.91500                  10196210.13440  23049194.01340
  -1752693.74900  24680409.55600                  -1317432.31640  24680415.13440
  12360002.01800  22909498.54800                   9675195.12440  22909502.14540
   1409883.17900  23169293.38400                   1125037.12040  23169297.20440
 96  9 13  0 51 30.0050000  0  5 14 15 22 25 29
  -2320164.80200  22565593.61800                  -1778305.52340  22565598.06040
  13127472.41900  23075732.24300                  10304901.90240  23075737.23540
  -1773393.20700  24676470.61000                  -1333561.70640  24676475.80240
  12488062.96200  22933867.75900                   9774982.86240  22933871.08740
   1438787.79700  23174793.70400                   1147560.20940  23174797.30240
 96  9 13  0 52  0.0050000  0  5 14 15 22 25 29
  -2309090.63000  22567700.90700                  -1769676.29340  22567705.40740
  13267433.83600  23102365.96200                  10413962.71040  23102371.29440
  -1793919.71100  24672564.95400                  -1349556.34540  24672570.11040
  12616525.55700  22958313.50900                   9875083.57840  22958316.88440
   1467874.02300  23180328.92300                   1170224.80240  23180332.36840
 96  9 13  0 52 30.0050000  0  5 14 15 22 25 29
  -2297721.95300  22569864.13400                  -1760817.58140  22569868.47040
  13407845.00800  23129085.22000                  10523373.99140  23129090.77440
  -1814278.56500  24668689.31300                  -1365420.33640  24668695.34940
  12745361.15800  22982829.82900                   9975474.94740  22982833.41540
   1497141.24700  23185898.12600                   1193030.43740  23185901.54840
 96  9 13  0 53  0.0050000  0  5 14 15 22 25 29
  -2286024.05100  22572090.29000                  -1751702.33240  22572094.73140
  13548729.00800  23155894.45400                  10633153.70640  23155900.02040
  -1834434.78400  24664854.39900                  -1381126.43640  24664859.96640
  12874588.34900  23007420.72800                  10076171.45740  23007424.52440
   1526618.08300  23191507.50100                   1215999.41140  23191510.99340
 96  9 13  0 53 30.0050000  0  5 14 15 22 25 29
  -2273990.35900  22574379.80600                  -1742325.41840  22574384.15340
  13690081.31200  23182792.93100                  10743298.33940  23182798.39240
  -1854385.14400  24661058.38400                  -1396672.14840  24661064.51340
  13004196.38300  23032084.39900                  10177164.71940  23032087.95040
   1556289.67700  23197153.47800                   1239120.14040  23197156.94640
 96  9 13  0 54  0.0050000  0  5 14 15 22 25 29
  -2261615.20000  22576735.02400                  -1732682.43440  22576739.33740
  13831902.64800  23209780.89200                  10853808.44440  23209786.34140
  -1874119.64900  24657302.79800                  -1412049.64040  24657308.43540
  13134192.34900  23056822.09500                  10278460.26940  23056825.48140
   1586167.65900  23202839.23500                   1262401.69040  23202842.84540
 96  9 13  0 54 30.0050000  0  5 14 15 22 25 29
  -2248904.06800  22579153.79000                  -1722777.64840  22579158.30240
  13974172.27300  23236853.91500                  10964667.88140  23236858.96640
  -1893659.99200  24653584.27400                  -1427275.81940  24653589.44240
  13264557.09400  23081629.52400                  10380043.18640  23081632.98140
   1616223.10700  23208558.35300                   1285821.53340  23208561.83340
 96  9 13  0 55  0.0050000  0  5 14 15 22 25 29
  -2235877.03500  22581632.79000                  -1712626.71940  22581637.23140
  14116876.68900  23264009.87600                  11075866.09940  23264015.04440
  -1913015.69200  24649901.18100                  -1442358.14640  24649906.59540
  13395269.51600  23106503.32100                  10481897.01140  23106506.74340
   1646436.77500  23214307.99300                   1309364.65340  23214311.59140
 96  9 13  0 55 30.0050000  0  5 14 15 22 25 29
  -2222523.43100  22584174.04000                  -1702221.31040  22584178.45840
  14260030.61200  23291250.96200                  11187414.59240  23291256.13040
  -1932182.41800  24646254.08700                  -1457293.21240  24646260.05240
  13526344.35100  23131445.94600                  10584033.23540  23131449.64940
   1676825.35800  23220090.17300                   1333044.07740  23220093.86440
 96  9 13  0 56  0.0050000  0  5 14 15 22 25 29
  -2208840.28300  22586777.83700                  -1691559.11640  22586782.32540
  14403635.27300  23318578.19600                  11299314.31840  23318583.50540
  -1951155.26900  24642643.05600                  -1472077.21740  24642648.06040
  13657777.45900  23156456.55600                  10686448.64140  23156460.07140
   1707386.89300  23225906.28200                   1356858.27240  23225910.13840
 96  9 13  0 56 30.0050000  0  5 14 15 22 25 29
  -2194836.88000  22589442.46200                  -1680647.37340  22589446.90340
  14547680.99700  23345989.07900                  11411557.72040  23345994.29440
  -1969940.12800  24639068.25900                  -1486714.72840  24639073.94240
  13789552.35200  23181532.79000                  10789130.37140  23181536.43540
   1738095.31000  23231750.40700                   1380786.91340  23231753.97040
 96  9 13  0 57  0.0050000  0  5 14 15 22 25 29
  -2180517.87200  22592167.56300                  -1669489.70440  22592171.95840
  14692158.90700  23373482.43100                  11524137.87040  23373487.64540
  -1988543.71100  24635528.43100                  -1501210.98340  24635533.78640
  13921672.62900  23206674.62600                  10892081.22340  23206678.34140
   1768948.44400  23237620.85300                   1404828.32140  23237624.64940
 96  9 13  0 57 30.0050000  0  5 14 15 22 25 29
  -2165865.04900  22594955.68800                  -1658071.91740  22594960.09540
  14837075.98200  23401059.25900                  11637060.23540  23401064.53240
  -2006960.98700  24632024.19600                  -1515562.07940  24632029.73940
  14054158.55400  23231885.97800                  10995317.00040  23231889.45840
   1799950.02600  23243520.42300                   1428985.39240  23243524.09140
 96  9 13  0 58  0.0050000  0  5 14 15 22 25 29
  -2150875.92900  22597808.06300                  -1646392.07840  22597812.50540
  14982422.87700  23428717.64200                  11750317.53740  23428722.79840
  -2025185.45400  24628555.93800                  -1529762.91140  24628561.49340
  14187003.41900  23257165.29000                  11098832.47640  23257168.80640
   1831096.90700  23249447.73500                   1453255.70540  23249451.11040
 96  9 13  0 58 30.0050000  0  5 14 15 22 25 29
  -2135542.06700  22600725.73500                  -1634443.61340  22600730.20040
  15128204.11200  23456459.11000                  11863913.27040  23456463.98540
  -2043206.12500  24625126.41500                  -1543804.95240  24625130.76340
  14320227.58400  23282516.88400                  11202643.50640  23282520.54040
   1862413.63400  23255406.93100                   1477658.36140  23255410.42340
 96  9 13  0 59  0.0050000  0  5 14 15 22 25 29
  -2119852.95500  22603711.61000                  -1622218.32940  22603716.26340
  15274423.83000  23484283.76700                  11977850.69740  23484288.98140
  -2061011.92100  24621738.04000                  -1557679.56340  24621743.79440
  14453841.09700  23307942.57900                  11306757.92740  23307945.91940
   1893923.69500  23261403.42300                   1502211.65940  23261406.85640
 96  9 13  0 59 30.0050000  0  5 14 15 22 25 29
  -2103812.09000  22606764.04800                  -1609718.94940  22606768.48940
  15421081.90500  23512192.14900                  12092129.69840  23512197.08340
  -2078587.73700  24618393.73500                  -1571374.96840  24618399.63040
  14587825.86400  23333438.92300                  11411161.63540  23333442.66140
   1925625.43800  23267436.00900                   1526914.33040  23267439.45440
 96  9 13  1  0  0.0050000  0  5 14 15 22 25 29
  -2087416.06500  22609884.06300                  -1596942.82940  22609888.42340
  15568171.48900  23540181.97800                  12206744.93640  23540187.19240
  -2095928.93300  24615092.60300                  -1584887.52340  24615098.81340
  14722172.64900  23359004.13400                  11515847.44040  23359008.08340
   1957529.30800  23273506.79800                   1551774.48740  23273510.22040
 96  9 13  1  0 30.0060000  0  5 14 15 22 25 29
  -2070674.70300  22613070.01400                  -1583897.61140  22613074.42040
  15715683.34900  23568253.03700                  12321689.21540  23568257.98240
  -2113051.85800  24611834.91200                  -1598230.04540  24611840.06840
  14856876.12800  23384637.39600                  11620811.17840  23384641.18240
   1989620.29400  23279613.57600                   1576780.45540  23279616.81140
 96  9 13  1  1  0.0060000  0  5 14 15 22 25 29
  -2053585.13000  22616321.82600                  -1570581.05840  22616326.23240
  15863598.04400  23596399.87300                  12436947.40840  23596404.83040
  -2129963.90800  24608616.06800                  -1611408.22140  24608621.47140
  14991909.48800  23410333.61500                  11726031.97240  23410337.31840
   2021872.53600  23285750.97500                   1601912.07940  23285754.77140
 96  9 13  1  1 30.0060000  0  5 14 15 22 25 29
  -2036132.71000  22619642.92800                  -1556981.76140  22619647.26440
  16011922.68900  23624625.04500                  12552525.02840  23624630.22540
  -2146656.71400  24605440.32600                  -1624415.56340  24605446.71340
  15127275.91700  23436092.92000                  11831512.30240  23436096.36540
   2054288.56200  23291919.47500                   1627171.32440  23291923.11940
 96  9 13  1  2  0.0060000  0  5 14 15 22 25 29
  -2018297.16800  22623036.85000                  -1543083.93340  22623041.26840
  16160659.91500  23652928.92800                  12668424.14140  23652934.17840
  -2163125.48500  24602305.97500                  -1637248.32040  24602311.97540
  15262992.15400  23461918.99000                  11937265.21340  23461922.85740
   2086880.39700  23298121.47500                   1652567.56740  23298125.03740
 96  9 13  1  2 30.0060000  0  5 14 15 22 25 29
  -2000080.81600  22626503.35700                  -1528889.37540  22626507.85740
  16309802.93900  23681310.02900                  12784639.45540  23681315.02140
  -2179367.27600  24599215.10000                  -1649904.22340  24599220.59640
  15399049.76600  23487810.03700                  12043284.12540  23487813.74040
   2119635.58300  23304354.48200                   1678091.08840  23304357.89340
 96  9 13  1  3  0.0060000  0  5 14 15 22 25 29
  -1981464.68100  22630045.78700                  -1514383.29340  22630050.32240
  16459365.40600  23709770.65400                  12901181.62040  23709775.62340
  -2195345.20700  24596175.13900                  -1662354.52040  24596180.67040
  15535457.64700  23513767.65400                  12149575.97540  23513771.56840
   2152572.56700  23310622.14600                   1703756.27540  23310625.59240
 96  9 13  1  3 30.0060000  0  5 14 15 22 25 29
  -1962476.21300  22633659.17000                  -1499587.07840  22633663.75240
  16609325.37200  23738306.99000                  13018033.51640  23738312.10040
  -2211073.46700  24593181.69300                  -1674610.26440  24593187.15440
  15672192.08600  23539787.27900                  12256122.27640  23539791.13540
   2185686.23500  23316923.38100                   1729559.14240  23316926.93240
 96  9 13  1  4  0.0060000  0  5 14 15 22 25 29
  -1943111.15000  22637344.03700                  -1484497.41040  22637348.33840
  16759685.60100  23766919.62300                  13135197.31040  23766924.85040
  -2226543.14500  24590237.45100                  -1686664.52240  24590242.64340
  15809259.92400  23565870.31800                  12362928.38140  23565874.27940
   2218973.40600  23323258.14600                   1755497.20140  23323261.66240
 96  9 13  1  4 30.0060000  0  5 14 15 22 25 29
  -1923380.87500  22641098.86500                  -1469123.17040  22641103.31840
  16910439.70200  23795607.19300                  13252668.01640  23795612.39640
  -2241757.10400  24587343.01400                  -1698519.51540  24587347.59640
  15946647.11900  23592014.27900                  12469983.32740  23592018.01840
   2252423.64600  23329623.50600                   1781562.32440  23329627.06840
 96  9 13  1  5  0.0060000  0  5 14 15 22 25 29
  -1903289.67300  22644922.03700                  -1453467.68640  22644926.61940
  17061588.74900  23824370.28700                  13370446.46140  23824375.30340
  -2256717.53600  24584496.31100                  -1710176.96240  24584501.45540
  16084357.06700  23618219.75600                  12577289.77240  23618223.28340
   2286045.47400  23336021.28700                   1807761.15540  23336024.95540
 96  9 13  1  5 30.0060000  0  5 14 15 22 25 29
  -1882837.14900  22648813.86500                  -1437530.65340  22648818.51840
  17213128.61500  23853207.10000                  13488529.45740  23853212.09240
  -2271431.20800  24581695.99000                  -1721642.12540  24581701.47540
  16222394.72600  23644487.40400                  12684851.57740  23644490.86140
   2319834.68600  23342450.89600                   1834090.41140  23342454.56440
 96  9 13  1  6  0.0060000  0  5 14 15 22 25 29
  -1862026.28400  22652774.33400                  -1421314.39440  22652778.89340
  17365043.03500  23882115.70900                  13606904.30340  23882121.05340
  -2285904.14300  24578942.14600                  -1732919.69540  24578947.87740
  16360754.59800  23670816.70100                  12792664.45640  23670819.78340
   2353764.66700  23348907.81800                   1860529.36140  23348911.46340
 96  9 13  1  6 30.0060000  0  6 14 15 18 22 25 29
  -1840861.59700  22656801.52900                  -1404822.43240  22656806.12340
  17517344.19700  23911097.75600                  13725580.51440  23911102.57240
                  26638130.42000
  -2300113.21900  24576238.20100                  -1743991.66240  24576243.75640
  16499442.72400  23697207.99800                  12900733.12040  23697211.63140
   2387857.53300  23355395.59200                   1887095.23240  23355399.24840
 96  9 13  1  7  0.0060000  0  6 14 15 18 22 25 29
  -1819349.72400  22660895.31800                  -1388059.93340  22660899.88940
  17670022.00700  23940151.29500                  13844550.21040  23940156.43940
    -10116.37100  26636138.27100
  -2314056.45600  24573585.14600                  -1754856.49540  24573590.98240
  16638451.87400  23723660.03700                  13009051.93340  23723663.79940
   2422109.66800  23361913.42000                   1913785.21340  23361916.98240
 96  9 13  1  7 30.0060000  0  6 14 15 18 22 25 29
  -1797471.50500  22665058.52900                  -1371011.96540  22665063.00640
  17823080.27200  23969277.35000                  13963816.37240  23969282.42440
    -20538.63700  26634154.18600
  -2327715.07600  24570986.14600                  -1765499.53740  24570991.19740
  16777771.78000  23750172.10700                  13117612.88840  23750175.89340
   2456523.22500  23368462.20100                   1940600.97540  23368465.65840
 96  9 13  1  8  0.0060000  0  6 14 15 18 22 25 29
  -1775218.73400  22669293.11500                  -1353672.13940  22669297.47540
  17976525.45900  23998477.48200                  14083384.01540  23998482.17040
    -30921.30500  26632179.76400                     -3502.94550  26632189.07240
  -2341080.54700  24568442.37300                  -1775914.16740  24568447.21340
  16917396.11000  23776741.92000                  13226411.05940  23776745.62340
   2491115.85800  23375044.96700                   1967556.27740  23375048.37740
 96  9 13  1  8 30.0060000  0  6 14 15 18 22 25 29
  -1752614.31400  22673594.56800                  -1336058.30040  22673598.97540
  18130328.04700  24027744.58400                  14203230.15440  24027749.21340
    -41304.89300  26630202.20900                    -11593.92740  26630205.24440
  -2354181.72200  24565948.96700                  -1786122.83940  24565954.24040
  17057285.88100  23803361.92800                  13335416.06840  23803365.59640
   2525874.65300  23381659.13100                   1994641.05740  23381662.68240
 96  9 13  1  9  0.0060000  0  6 14 15 18 22 25 29
  -1729614.43600  22677971.59200                  -1318136.31440  22677975.95140
  18284484.32400  24057079.20900                  14323351.91040  24057085.01040
    -51685.01900  26628227.52100                    -19682.34240  26628232.73640
  -2367018.61100  24563506.65400                  -1796125.57840  24563511.89340
  17197449.06300  23830033.64600                  13444634.11940  23830037.72540
   2560795.95800  23388304.77100                   2021852.46540  23388308.35740
 96  9 13  1  9 30.0060000  0  6 14 15 18 22 25 29
  -1706194.28800  22682428.14600                  -1299886.85240  22682432.42440
  18439011.59300  24086485.08400                  14443762.72940  24086490.65040
    -62012.39100  26626262.04500                    -27729.56840  26626267.07240
  -2379566.45200  24561118.88900                  -1805903.08840  24561123.62340
  17337914.73400  23856764.06100                  13554087.87940  23856767.95140
   2595894.19900  23394983.12300                   2049201.74540  23394986.70940
 96  9 13  1 10  0.0060000  0  6 14 15 18 22 25 29
  -1682363.80300  22686962.80300                  -1281317.64040  22686967.18640
  18593893.82200  24115958.35700                  14564450.14340  24115963.42040
    -72288.59500  26624306.23200                    -35736.97340  26624310.08840
  -2391841.54700  24558782.66200                  -1815468.06040  24558788.15840
  17478691.57600  23883552.70900                  13663784.11040  23883556.28340
   2631161.62300  23401694.48200                   2076682.86440  23401698.09240
 96  9 13  1 10 30.0060000  0  6 14 15 18 22 25 29
  -1658104.16700  22691579.19300                  -1262414.02140  22691583.75240
  18749135.11600  24145499.82600                  14685417.36740  24145505.48640
    -82493.45900  26622365.99000                    -43688.82040  26622372.03740
  -2403818.71000  24556503.08400                  -1824800.88540  24556508.88540
  17619795.76100  23910403.76400                  13773735.41240  23910407.39640
   2666598.28500  23408438.30300                   2104295.85840  23408441.90040
 96  9 13  1 11  0.0060000  0  6 14 15 18 22 25 29
  -1633411.60700  22696278.27900                  -1243173.07240  22696282.88540
  18904739.60900  24175110.46700                  14806667.58340  24175115.77540
    -92610.37300  26620439.53700                    -51572.00440  26620445.35040
  -2415480.33600  24554284.14600                  -1833887.84940  24554289.65440
  17761242.38500  23937320.58400                  13883953.54340  23937324.12340
   2702200.36600  23415212.81100                   2132037.74340  23415216.36140
 96  9 13  1 11 30.0070000  0  6 14 15 18 22 25 29
  -1608316.00100  22701053.72200                  -1223618.04740  22701058.21040
  19060699.03500  24204788.52600                  14928194.38840  24204793.87040
   -102666.13000  26618526.69000                    -59407.66340  26618530.89740
  -2426840.09100  24552123.08900                  -1842739.56340  24552128.65540
  17903025.61200  23964300.92500                  13994433.97140  23964304.65140
   2737964.60200  23422018.43300                   2159905.98640  23422021.92540
 96  9 13  1 12  0.0070000  0  6 14 15 18 22 25 29
  -1582793.14000  22705910.60400                  -1203730.10340  22705915.08140
  19217013.94100  24234534.15100                  15049998.17240  24234539.51940
   -112665.81000  26616623.03400                    -67199.50540  26616627.19440
  -2437885.84400  24550021.36200                  -1851346.61540  24550026.31940
  18045137.89000  23991344.31500                  14105170.79240  23991347.97240
   2773917.05200  23428860.27600                   2187920.88640  23428863.88640
 96  9 13  1 12 30.0070000  0  6 14 15 18 22 25 29
  -1556860.30200  22710845.56500                  -1183522.69440  22710849.89040
  19373672.39700  24264345.42500                  15172069.66240  24264350.89740
   -122624.38100  26614728.81500                    -74959.43340  26614733.33940
  -2448620.22000  24547978.11200                  -1859711.01640  24547983.37440
  18187557.24400  24018445.75300                  14216146.90940  24018449.03440
   2810042.45700  23435734.45600                   2216070.55840  23435737.93640
 96  9 13  1 13  0.0070000  0  6 14 15 18 22 25 29
  -1530536.65200  22715854.52600                  -1163010.76240  22715858.88640
  19530659.34500  24294218.92500                  15294397.11840  24294224.79640
   -132555.20700  26612838.25300                    -82697.64240  26612844.89740
  -2459073.06600  24545988.14400                  -1867856.06140  24545993.44040
  18330274.74200  24045604.12000                  14327355.33440  24045607.49540
   2846331.06200  23442640.35400                   2244347.39640  23442643.85840
 96  9 13  1 13 30.0070000  0  6 14 15 18 22 25 29
  -1503804.42200  22720941.58100                  -1142180.44740  22720946.08140
  19687985.70900  24324157.47200                  15416989.06140  24324162.96840
   -142446.34300  26610955.92500                    -90404.98140  26610962.37040
  -2469231.67100  24544056.38600                  -1875771.81740  24544061.30840
  18473287.43600  24072818.26100                  14438793.79540  24072821.29640
   2882809.41900  23449581.71400                   2272772.08540  23449585.04240
 96  9 13  1 14  0.0070000  0  6 14 15 18 22 25 29
  -1476641.29100  22726110.55000                  -1121014.36940  22726114.83940
  19845668.07300  24354163.24500                  15539858.40440  24354168.72940
   -152256.34100  26609089.00300                    -98049.26740  26609104.80440
  -2479075.19200  24542182.15100                  -1883442.06940  24542186.88640
  18616596.19900  24100089.08100                  14550462.94340  24100092.66740
   2919490.81600  23456561.85400                   2301355.00240  23456565.17140
 96  9 13  1 14 30.0070000  0  6 14 15 18 22 25 29
  -1449082.71300  22731354.87000                  -1099540.15240  22731359.07740
  20003674.23500  24384230.81500                  15662980.05740  24384236.01940
   -162010.94200  26607232.37000                   -105649.97640  26607238.95640
  -2488626.64000  24540364.47200                  -1890884.73140  24540369.46440
  18760174.33300  24127411.02600                  14662341.99440  24127414.50740
   2956336.68500  23463573.41700                   2330066.06440  23463576.99140
 96  9 13  1 15  0.0070000  0  6 14 15 18 22 25 29
  -1421128.03100  22736674.45600                  -1077757.28540  22736678.78040
  20161996.13400  24414358.68300                  15786347.73940  24414363.60440
   -171717.96300  26605385.83900                   -113213.81940  26605392.23740
  -2497894.93100  24538601.08100                  -1898106.74040  24538606.26140
  18904003.91900  24154780.93300                  14774416.99240  24154784.53040
   2993340.98900  23470614.89400                   2358900.59740  23470618.47940
 96  9 13  1 15 30.0070000  0  6 14 15 18 22 25 29
  -1392760.62800  22742072.49500                  -1055652.81640  22742076.81940
  20320646.58900  24444549.08100                  15909971.42940  24444554.49540
   -181369.52500  26603548.67500                   -120734.47040  26603554.06540
  -2506855.59700  24536896.06500                  -1905089.05440  24536900.80040
  19048082.94800  24182198.19800                  14886686.34140  24182201.97240
   3030516.23400  23477689.48700                   2387868.32840  23477693.28440
 96  9 13  1 16  0.0070000  0  6 14 15 18 22 25 29
  -1363993.29700  22747546.76100                  -1033236.71240  22747551.05040
  20479615.67500  24474799.45600                  16033843.40340  24474804.62440
   -190977.90100  26601720.62000                   -128221.47640  26601728.54640
  -2515503.55900  24535250.64400                  -1911827.68840  24535255.10840
  19192410.92400  24209662.97200                  14999149.69440  24209666.64040
   3067838.22500  23484791.55000                   2416950.40640  23484795.13640
 96  9 13  1 16 30.0070000  0  6 14 15 18 22 25 29
  -1334816.50800  22753098.97900                  -1010501.55240  22753103.19840
  20638907.63800  24505112.08900                  16157966.97440  24505116.91740
   -200554.33800  26599897.08900                   -135683.59440  26599901.69440
  -2523808.91800  24533670.12000                  -1918299.35740  24533675.08940
  19337004.32300  24237177.83900                  15111819.86740  24237181.82340
   3105312.59000  23491922.82300                   2446151.21440  23491926.09340
 96  9 13  1 17  0.0070000  0  6 14 15 18 22 25 29
  -1305227.77800  22758729.26100                   -987445.39740  22758733.63240
  20798521.24500  24535485.24500                  16282341.19240  24535490.13240
   -210086.35900  26598083.69000                   -143111.13640  26598090.37040
  -2531767.41600  24532155.50300                  -1924500.76040  24532160.30840
  19481861.83900  24264743.33900                  15224695.84540  24264747.30040
   3142943.05900  23499083.15100                   2475473.65640  23499086.50340
 96  9 13  1 17 30.0070000  0  6 14 15 18 22 25 29
  -1275235.45700  22764436.65100                   -964074.75840  22764440.95240
  20958441.71100  24565917.20600                  16406954.50840  24565922.16340
   -219574.03900  26596278.69800                   -150504.08240  26596284.81540
  -2539381.84700  24530706.46400                  -1930434.05240  24530711.01140
  19626983.84800  24292358.87800                  15337777.91940  24292363.20240
   3180725.80900  23506273.51100                   2504914.76740  23506277.07340
 96  9 13  1 18  0.0070000  0  6 14 15 18 22 25 29
  -1244805.70200  22770227.30000                   -940363.25940  22770231.90540
  21118685.46400  24596410.92500                  16531819.72040  24596416.02240
   -228986.50800  26594487.26900                   -157838.44140  26594492.91740
  -2546623.28300  24529327.83900                  -1936076.69440  24529333.59340
  19772408.72700  24320033.03400                  15451095.99040  24320037.32340
   3218693.02400  23513497.88600                   2534499.61540  23513501.58940
 96  9 13  1 18 30.0070000  0  6 14 15 18 22 25 29
  -1213942.46300  22776100.36200                   -916313.98140  22776104.92140
  21279237.48700  24626962.76100                  16656925.17040  24626968.01140
   -238321.76100  26592710.39400                   -165112.61740  26592716.52240
  -2553513.30500  24528016.68300                  -1941445.51040  24528022.30840
  19918129.99800  24347762.49500                  15564645.01640  24347766.74940
   3256852.38200  23520759.68300                   2564234.17140  23520763.38640
 96  9 13  1 19  0.0070000  0  6 14 15 18 22 25 29
  -1182644.68100  22782056.22900                   -891926.10340  22782060.51940
  21440091.18600  24657571.98700                  16782265.68140  24657577.31940
   -247577.17400  26590948.86200                   -172324.60740  26590953.98340
  -2560077.68600  24526767.56500                  -1946560.57840  24526773.30840
  20064134.84500  24375546.05800                  15678415.01040  24375549.97240
   3295205.90300  23528057.71400                   2594120.04340  23528061.55840
 96  9 13  1 19 30.0070000  0  6 14 15 18 22 25 29
  -1150899.67500  22788097.26900                   -867189.73540  22788101.56940
  21601244.94500  24688238.44000                  16907839.99640  24688243.83140
   -256768.63400  26589200.94800                   -179486.72440  26589203.65540
  -2566314.12000  24525580.35400                  -1951420.11040  24525585.76940
  20210423.41800  24403383.82300                  15792406.09840  24403387.97240
   3333762.47100  23535395.24500                   2624164.11640  23535398.96040
 96  9 13  1 20  0.0070000  0  6 14 15 18 22 25 29
  -1118715.05500  22794221.43300                   -842110.81040  22794225.89740
  21762699.71300  24718962.40900                  17033648.87940  24718967.72940
   -265902.05400  26587463.25300                   -186603.63240  26587468.66740
  -2572214.65700  24524458.05000                  -1956017.88840  24524463.51140
  20356994.21300  24431275.95600                  15906617.09840  24431279.90540
   3372518.47400  23542770.02600                   2654363.61540  23542773.68340
 96  9 13  1 20 30.0070000  0  6 14 15 18 22 25 29
  -1086113.25500  22800425.62000                   -816706.81140  22800430.10840
  21924438.03600  24749740.37000                  17159678.70640  24749746.30040
   -275003.99200  26585730.58100                   -193696.04940  26585737.45240
  -2577784.08600  24523398.10400                  -1960357.66740  24523403.57740
  20503810.36300  24459213.89400                  16021019.27340  24459217.78440
   3411442.36400  23550177.32300                   2684693.91740  23550180.74540
 96  9 13  1 21  0.0070000  0  6 14 15 18 22 25 29
  -1053066.81900  22806714.11200                   -790956.34240  22806718.47240
  22086477.00200  24780575.55800                  17285942.80040  24780580.74940
   -284065.89200  26584005.58100                   -200757.23440  26584010.94840
  -2582981.03500  24522409.88600                  -1964407.20540  24522414.84340
  20650885.43000  24487201.05000                  16135623.20940  24487205.12840
   3450547.86500  23557618.58100                   2715165.74140  23557622.29640
 96  9 13  1 21 30.0070000  0  6 14 15 18 22 25 29
  -1019595.04900  22813083.73700                   -764874.44540  22813088.09740
  22248796.43800  24811463.65900                  17412425.44840  24811469.40140
   -293103.21400  26582286.13600                   -207799.25540  26582291.55040
  -2587798.99200  24521492.76900                  -1968161.42240  24521497.65540
  20798216.64200  24515237.23700                  16250426.74240  24515240.85840
   3489807.34900  23565089.55000                   2745757.53840  23565093.27640
 96  9 13  1 22  0.0070000  0  6 14 15 18 22 25 29
   -985702.85400  22819533.03400                   -738464.94740  22819537.38240
  22411384.27900  24842403.30000                  17539117.22340  24842408.97240
   -302120.00900  26580569.71400                   -214825.28140  26580574.91740
  -2592240.03100  24520647.18300                  -1971621.92840  24520652.37440
  20945799.84600  24543322.11200                  16365426.63040  24543325.65140
   3529193.09400  23572584.32300                   2776447.73140  23572587.79240
 96  9 13  1 22 30.0070000  0  6 14 15 18 22 25 29
   -951350.04600  22826069.97200                   -711696.52740  22826074.68340
  22574247.90000  24873395.51100                  17666023.89340  24873401.25340
   -311103.21600  26578860.69000                   -221825.12140  26578866.17540
  -2596293.48600  24519876.09700                  -1974780.43840  24519881.59340
  21093644.18500  24571455.66700                  16480630.00540  24571459.37040
   3568704.70200  23580103.19800                   2807235.99740  23580106.62040
 96  9 13  1 23  0.0080000  0  6 14 15 18 22 25 29
   -916541.39400  22832693.64100                   -684572.90140  22832698.18740
  22737384.30600  24904439.25000                  17793143.13940  24904444.65240
   -320043.23100  26577159.96100                   -228791.36640  26577166.43040
  -2599973.53600  24519175.87500                  -1977647.98840  24519180.53940
  21241760.28600  24599640.95300                  16596045.13440  24599644.70340
   3608341.80600  23587645.83600                   2838122.05340  23587649.60940
 96  9 13  1 23 30.0080000  0  6 14 15 18 22 25 29
   -881271.42000  22839405.51600                   -657089.80540  22839410.07440
  22900799.71300  24935535.74200                  17920479.77840  24935541.41440
   -328910.91100  26575472.26600                   -235701.21040  26575476.54340
  -2603278.87900  24518546.74200                  -1980223.54640  24518551.76940
  21390157.39400  24627880.20300                  16711679.23840  24627883.94140
   3648118.86700  23595215.08600                   2869117.16740  23595218.62540
 96  9 13  1 24  0.0080000  0  6 14 15 18 22 25 29
   -845562.94100  22846200.63300                   -629265.01840  22846205.07440
  23064473.94700  24966682.25800                  18048018.09740  24966687.59040
   -337729.32800  26573793.28900                   -242572.64740  26573798.97340
  -2606231.51300  24517984.53100                  -1982524.27040  24517989.65240
  21538797.01700  24656165.01600                  16827502.30740  24656169.18740
   3688024.25600  23602808.73400                   2900212.27440  23602812.12140
 96  9 13  1 24 30.0080000  0  6 14 15 18 22 25 29
   -809425.69100  22853077.30500                   -601106.12340  22853081.89840
  23228409.19300  24997878.04700                  18175759.81140  24997883.60240
   -346482.75400  26572128.15600                   -249393.48140  26572133.57040
  -2608824.46100  24517491.47700                  -1984544.72740  24517496.76240
  21687660.36100  24684492.63300                  16943499.71040  24684496.53540
   3728088.92100  23610432.85900                   2931431.49240  23610436.31640
 96  9 13  1 25  0.0080000  0  6 14 15 18 22 25 29
   -772885.35800  22860030.60200                   -572633.13640  22860035.17240
  23392592.93200  25029120.96900                  18303695.12840  25029126.69940
   -355183.57300  26570472.28100                   -256173.29840  26570477.49640
  -2611073.47200  24517063.25000                  -1986297.16940  24517068.57040
  21836723.75800  24712858.89100                  17059652.99840  24712862.84040
   3768334.50400  23618091.50000                   2962791.69140  23618095.21540
 96  9 13  1 25 30.0080000  0  6 14 15 18 22 25 29
   -735901.13000  22867068.56200                   -543814.25840  22867073.22740
  23557038.74000  25060414.40600                  18431834.68440  25060419.55140
   -363824.07700  26568827.47700                   -262906.13540  26568831.96540
  -2612951.81700  24516705.94500                  -1987760.78640  24516711.30140
  21985981.80100  24741261.98400                  17175957.95440  24741265.76940
   3808784.89300  23625788.89100                   2994311.48340  23625792.35940
 96  9 13  1 26  0.0080000  0  6 14 15 18 22 25 29
   -698437.47600  22874197.71100                   -514621.79940  22874202.30540
  23721752.36500  25091758.65600                  18560182.90840  25091763.82440
   -372395.87100  26567196.90600                   -269585.42540  26567201.81640
  -2614434.09900  24516423.78900                  -1988915.77340  24516429.07440
  22135430.51300  24769700.60200                  17292411.49340  24769704.34040
   3849454.13900  23633528.10900                   3026001.81140  23633531.67240
 96  9 13  1 26 30.0080000  0  6 14 15 18 22 25 29
   -660485.93100  22881419.68000                   -485049.16540  22881424.29740
  23886720.92700  25123150.44500                  18688729.80240  25123155.67240
   -380902.75300  26565578.39100                   -276214.12640  26565583.89840
  -2615537.80300  24516213.60200                  -1989775.77840  24516218.95740
  22285071.20200  24798176.78900                  17409014.61940  24798180.69140
   3890334.53600  23641307.28900                   3057856.66340  23641310.87540
 96  9 13  1 27  0.0080000  0  6 14 15 18 22 25 29
   -622046.19000  22888734.53100                   -455096.12540  22888738.99640
  24051926.40400  25154587.93700                  18817461.29540  25154593.59840
   -389370.90600  26563967.35900                   -282812.64440  26563973.72340
  -2616269.50700  24516074.14800                  -1990345.90540  24516078.96540
  22434913.26600  24826690.66400                  17525774.65340  24826694.88340
   3931391.38200  23649119.96100                   3089849.01140  23649123.45340
 96  9 13  1 27 30.0080000  0  6 14 15 18 22 25 29
   -583111.91700  22896143.30500                   -424757.72840  22896147.64140
  24217372.88400  25186071.81200                  18946380.59040  25186077.37940
   -397790.81300  26562365.06200                   -289373.56540  26562369.25840
  -2616610.54100  24516009.67200                  -1990611.62640  24516015.07440
  22584990.08900  24855249.06200                  17642717.63340  24855252.70740
   3972607.01400  23656963.29700                   3121965.09540  23656966.70740
 96  9 13  1 28  0.0080000  0  6 14 15 18 22 25 29
   -543683.95300  22903646.31200                   -394034.64340  22903650.90640
  24383076.32000  25217603.93000                  19075500.10440  25217609.70740
   -406144.14600  26560774.57800                   -295882.63040  26560780.32040
  -2616552.03300  24516020.65600                  -1990566.00540  24516025.90640
  22735348.24300  24883861.47700                  17759879.82840  24883865.42640
   4013995.89300  23664838.96100                   3154216.16740  23664842.51240
 96  9 13  1 28 30.0080000  0  6 14 15 18 22 25 29
   -503805.53400  22911234.93000                   -362960.54640  22911239.65240
  24549011.63000  25249180.78900                  19204800.30440  25249185.98040
   -414469.57900  26559190.73400                   -302369.95640  26559195.15240
  -2616120.02800  24516102.90600                  -1990229.35040  24516108.13340
  22885978.01100  24912525.48400                  17877253.67040  24912529.28140
   4055530.38600  23672742.79700                   3186580.71140  23672746.39440
 96  9 13  1 29  0.0080000  0  6 14 15 18 22 25 29
   -463489.58300  22918906.88300                   -331545.52040  22918911.52340
  24715179.48900  25280801.18700                  19334281.70540  25280807.03540
   -422769.77600  26557611.78900                   -308837.57740  26557615.98440
  -2615303.30500  24516258.24200                  -1989592.91840  24516263.41040
  23036868.63400  24941239.16400                  17994830.77540  24941243.14840
   4097211.50600  23680674.47700                   3219059.50740  23680678.18040
 96  9 13  1 29 30.0080000  0  6 14 15 18 22 25 29
   -422730.19300  22926663.17200                   -299784.95440  22926667.77740
  24881578.86500  25312465.78100                  19463943.51540  25312471.73440
   -431030.64300  26556039.32800                   -315274.57840  26556044.44940
  -2614102.86400  24516486.69500                  -1988657.47940  24516491.81640
  23188000.96800  24969998.37500                  18112596.22240  24970001.91440
   4139054.65900  23688636.74200                   3251664.57240  23688640.57440
 96  9 13  1 30  0.0080000  0  6 14 15 18 22 25 29
   -381524.79500  22934504.25000                   -267676.85640  22934508.77340
  25048204.11800  25344173.37500                  19593781.32740  25344179.08240
   -439259.75300  26554472.96900                   -321686.84540  26554479.07440
  -2612513.28600  24516789.53900                  -1987418.82240  24516794.51940
  23339347.39600  24998798.25000                  18230528.49740  24998801.49640
   4181071.98300  23696632.78100                   3284405.33840  23696636.62540
 96  9 13  1 30 30.0080000  0  6 14 15 18 22 25 29
   -339874.58500  22942429.86700                   -235222.14640  22942434.36740
  25215042.97100  25375921.97700                  19723785.58740  25375927.89440
   -447460.07900  26552912.98400                   -328076.65840  26552916.28940
  -2610519.40000  24517169.00800                  -1985865.12040  24517173.39140
  23490872.61100  25027633.07000                  18348600.08240  25027636.66840
   4223262.53100  23704661.01600                   3317281.09640  23704664.66040
 96  9 13  1 31  0.0080000  0  6 14 15 18 22 25 29
   -297754.16400  22950445.33600                   -202401.03940  22950449.78940
  25382105.70900  25407712.80500                  19853964.29640  25407718.74640
   -455597.95400  26551364.53900                   -334417.83840  26551369.12140
  -2608091.22500  24517630.63300                  -1983973.00840  24517635.75440
  23642584.44900  25056503.03900                  18466817.09140  25056506.02740
   4265652.26900  23712727.77300                   3350312.06840  23712731.20740
 96  9 13  1 31 30.0080000  0  6 14 15 18 22 25 29
   -255144.93300  22958553.60200                   -169199.04740  22958558.30140
  25549390.48300  25439545.99200                  19984316.01240  25439551.96940
   -463672.49300  26549827.08600                   -340709.63140  26549832.74640
  -2605218.37300  24518177.29700                  -1981734.37740  24518182.33640
  23794495.45900  25085410.28100                  18585189.31240  25085414.21940
   4308243.45200  23720832.48400
 96  9 13  1 32  0.0080000  0  6 14 15 18 22 25 29
   -212057.55100  22966752.82800                   -135624.45840  22966757.32840
  25716889.66900  25471420.39100                  20114834.81940  25471425.71140
   -471691.43300  26548301.06200                   -346958.13040  26548306.50040
  -2601890.16800  24518811.03100                  -1979140.94740  24518815.95340
  23946598.40800  25114354.91400                  18703711.08740  25114358.17240
   4351014.51700  23728971.79700                     12234.10850  23728975.45340
 96  9 13  1 32 30.0080000  0  6 14 15 18 22 25 29
   -168503.93300  22975040.78900                   -101686.57540  22975045.16040
  25884585.82900  25503332.08600                  20245507.11040  25503337.60540
   -479651.76700  26546787.47700                   -353160.97040  26546793.01940
  -2598124.06800  24519527.39800                  -1976206.29440  24519532.30940
  24098883.93700  25143333.83600                  18822375.13540  25143337.39840
   4393944.71100  23737140.88300                     45686.21240  23737144.58640
 96  9 13  1 33  0.0080000  0  6 14 15 18 22 25 29
   -124475.35600  22983419.43700                    -67378.59440  22983423.87940
  26052486.75300  25535282.94500                  20376338.94340  25535288.47740
   -487538.50600  26545285.62500                   -359306.45740  26545290.68740
  -2593916.15300  24520327.85200                  -1972927.37740  24520332.57440
  24251371.58300  25172350.96100                  18941196.66040  25172355.10940
   4437032.57500  23745340.08600                     79261.17140  23745343.71940
 96  9 13  1 33 30.0080000  0  6 14 15 18 22 25 29
    -79978.40400  22991886.62500                    -32705.63840  22991891.11340
  26220585.89300  25567270.82000                  20507325.23340  25567276.46940
   -495346.31500  26543799.74200                   -365390.39140  26543804.27740
  -2589278.56600  24521210.50000                  -1969313.64240  24521215.39840
  24404045.76100  25201404.35900                  19060163.55140  25201408.30940
   4480257.48200  23753565.55500                    112942.92340  23753569.17640
 96  9 13  1 34  0.0090000  0  6 14 15 18 22 25 29
    -35009.16600  23000443.94200                      2335.32040  23000448.41940
  26388898.33600  25599299.21600                  20638477.73740  25599305.11040
   -503062.42200  26542332.46600                   -371402.91540  26542337.73940
  -2584201.21700  24522176.74700                  -1965357.23940  24522181.69240
  24556921.36400  25230495.44200                  19179287.38840  25230499.36840
   4523633.96600  23761820.02800                    146742.77940  23761823.63840
 96  9 13  1 34 30.0090000  0  6 14 15 18 22 25 29
     10414.12200  23009087.88800                     37730.08540  23009092.13040
  26557394.93000  25631363.31700                  20769773.72540  25631369.00140
   -510702.91400  26540877.03600                   -377356.51840  26540882.74340
  -2578711.63300  24523221.48100                  -1961079.60840  24523226.13440
  24709989.43000  25259623.26300                  19298561.20440  25259627.10640
   4567165.47200  23770103.61400                    180663.43940  23770107.22440
 96  9 13  1 35  0.0090000  0  6 14 15 18 22 25 29
     56327.34900  23017824.77000                     73506.62640  23017829.08340
  26726100.92100  25663466.89500                  20901232.92040  25663472.95440
   -518259.58900  26539439.88000                   -383244.77940  26539445.35240
  -2572782.89600  24524349.18500                  -1956459.78940  24524353.73140
  24863284.92700  25288794.83300                  19418012.24340  25288798.70040
   4610879.75000  23778422.34100                    214726.51640  23778425.95040
 96  9 13  1 35 30.0090000  0  6 14 15 18 22 25 29
    102734.02600  23026655.69200                    109667.67740  23026660.08740
  26894997.05800  25695606.81700                  21032840.24940  25695612.39540
   -525767.98300  26538010.63800                   -389095.45440  26538017.37640
  -2566432.17500  24525557.89500                  -1951511.15040  24525562.99340
  25016791.88100  25318005.68500                  19537628.04440  25318009.89240
   4654769.09900  23786773.78600                    248926.01740  23786777.34940
 96  9 13  1 36  0.0090000  0  6 14 15 18 22 25 29
    149651.76500  23035583.82500                    146226.95040  23035588.23140
  27064086.43600  25727783.57500                  21164598.14940  25727789.51740
   -533252.93200  26536585.58300                   -394927.84240  26536590.54040
  -2559644.58300  24526849.30200                  -1946222.08640  24526854.55240
  25170529.38900  25347260.69200                  19657423.49840  25347264.59540
   4698852.53400  23795163.03600                    283276.75440  23795166.51740
 96  9 13  1 36 30.0090000  0  6 14 15 18 22 25 29
    197075.32300  23044608.16900                    183180.36740  23044612.57540
  27233344.69200  25759992.32500                  21296487.65640  25759997.91540
   -540736.46400  26535161.93500                   -400759.16440  26535167.58340
  -2552442.63200  24528219.62200                  -1940610.14640  24528224.43840
  25324471.44600  25376555.52000                  19777378.34640  25376559.61040
   4743109.34900  23803584.85600                    317762.58940  23803588.20840
 96  9 13  1 37  0.0090000  0  6 14 15 18 22 25 29
    245032.91900  23053734.31700                    220549.92140  23053738.78240
  27402786.47100  25792236.41900                  21428520.14940  25792241.95040
   -548208.86100  26533740.69200                   -406581.76340  26533746.23540
  -2544804.37500  24529673.48100                  -1934658.24140  24529678.27440
  25478613.35300  25405887.87200                  19897488.92740  25405891.16540
   4787534.36900  23812038.67700                    352379.49540  23812042.16940
 96  9 13  1 37 30.0090000  0  6 14 15 18 22 25 29
    293498.00100  23062956.78600                    258314.91840  23062961.23940
  27572399.68600  25824512.95800                  21560686.26340  25824519.21640
   -555680.34400  26532318.30200                   -412403.64340  26532323.25940
  -2536723.32800  24531211.02800                  -1928361.29940  24531216.04440
  25632932.47700  25435253.80200                  20017737.57940  25435257.30640
   4832116.09900  23820522.20800                    387118.51440  23820525.66540
 96  9 13  1 38  0.0090000  0  6 14 15 18 22 25 29
    342454.87800  23072272.85600                    296463.13640  23072277.31040
  27742188.71100  25856822.21600                  21692989.34440  25856828.13440
   -563119.37900  26530903.23100                   -418200.27340  26530908.50540
  -2528188.12100  24532835.02800                  -1921710.45040  24532840.22040
  25787433.40800  25464653.91100                  20138127.92240  25464657.52040
   4876860.48400  23829036.87200                    421984.27640  23829040.42340
 96  9 13  1 38 30.0090000  0  6 14 15 18 22 25 29
    391886.37700  23081679.43500                    334981.18540  23081683.88840
  27912140.91800  25889163.27800                  21825419.57740  25889168.89240
   -570502.33200  26529498.20800                   -423953.20340  26529502.90740
  -2519217.01400  24534542.27800                  -1914719.96040  24534547.01340
  25942084.72300  25494083.88800                  20258635.43640  25494087.70840
   4921746.84400  23837578.28600                    456960.66940  23837582.08340
 96  9 13  1 39  0.0090000  0  6 14 15 18 22 25 29
    441792.77700  23091176.33300                    373869.29240  23091180.92740
  28082260.34400  25921536.48900                  21957980.12640  25921542.14940
   -577808.43900  26528107.90300                   -429646.25140  26528112.02840
  -2509777.09300  24536338.66900                  -1907364.15740  24536343.38040
  26096895.73600  25523542.56000                  20379267.38540  25523545.88840
   4966789.17600  23846149.50500                    492058.59840  23846153.17340
 96  9 13  1 39 30.0090000  0  6 14 15 18 22 25 29
    492177.45400  23100764.32500                    413130.07740  23100768.72040
  28252549.78700  25953940.70000                  22090673.14140  25953946.64240
   -585020.23100  26526735.59900                   -435265.79740  26526741.03640
  -2499843.43100  24538229.52000                  -1899623.61540  24538234.00940
  26251884.25500  25553036.41100                  20500037.65440  25553039.79840
   5012008.69800  23854754.38800                    527294.59840  23854758.17340
 96  9 13  1 40  0.0090000  0  6 14 15 18 22 25 29
    543049.30000  23110444.75500                    452770.47540  23110449.17340
  28423003.20000  25986377.62200                  22223493.93340  25986383.30640
   -592132.68000  26525381.94200                   -440807.95040  26525386.05640
  -2489427.56800  24540211.30200                  -1891507.32440  24540216.41140
  26407041.18800  25582561.23900                  20620939.16240  25582564.60240
   5057408.56200  23863393.95800                    562671.12640  23863397.60240
 96  9 13  1 40 30.0090000  0  6 14 15 18 22 25 29
    594421.43400  23120220.46600                    492800.71340  23120224.94240
  28593614.72500  26018843.69200                  22356437.92940  26018849.58740
   -599164.96800  26524043.45800                   -446287.62040  26524048.57940
  -2478521.65000  24542286.41900                  -1883009.17740  24542291.56340
  26562367.29000  25612119.47400                  20741972.47940  25612123.78640
   5102999.48000  23872069.55200                    598196.51740  23872073.03240
 96  9 13  1 41  0.0090000  0  6 14 15 18 22 25 29
    646294.74900  23130091.88000                    533221.48240  23130096.40340
  28764380.48100  26051339.43500                  22489502.09240  26051345.69240
   -606140.45600  26522716.07500                   -451723.01740  26522721.00940
  -2467110.94500  24544458.22400                  -1874117.69240  24544463.04040
  26717876.80700  25641711.20800                  20863148.72740  25641715.32140
   5148790.91000  23880783.33300                    633878.16340  23880786.77840
 96  9 13  1 41 30.0090000  0  6 14 15 18 22 25 29
    698662.05700  23140056.77800                    574027.17540  23140061.43140
  28935288.19900  26083862.41900                  22622676.88440  26083867.88040
   -613078.89500  26521395.86400                   -457129.57040  26521401.04440
  -2455238.82700  24546716.83300                  -1864866.65940  24546721.91940
  26873548.82700  25671334.74700                  20984451.59240  25671338.80240
   5194771.97000  23889533.45000                    669707.56740  23889536.94240
 96  9 13  1 42  0.0090000  0  6 14 15 18 22 25 29
    751551.64700  23150121.43500                    615239.84540  23150126.09940
  29106348.50400  26116413.99700                  22755970.57540  26116419.24740
   -619963.56700  26520085.98100                   -462494.19240  26520089.64940
  -2442920.32400  24549061.21600                  -1855267.80040  24549065.85640
  27029392.68900  25700990.93500                  21105888.35840  25700995.35240
   5240962.49200  23898322.90300                    705700.18540  23898326.48940
 96  9 13  1 42 30.0090000  0  6 14 15 18 22 25 29
    804977.89100  23160288.07500                    656870.68840  23160292.64540
  29277566.66100  26148995.73900                  22889387.27240  26149001.00140
   -626791.03400  26518785.75500                   -467814.26840  26518790.00940
  -2430147.58300  24551492.00500                  -1845314.98840  24551496.57540
  27185426.56100  25730683.48900                  21227473.19640  25730687.52040
   5287353.02400  23907150.66100                    741848.65940  23907154.28240
 96  9 13  1 43  0.0090000  0  6 14 15 18 22 25 29
    858934.79300  23170555.82500                    698915.02640  23170560.33740
  29448929.28900  26181604.65300                  23022916.55040  26181610.77040
   -633565.79700  26517497.41100                   -473093.28640  26517502.53240
  -2416930.31600  24554006.91900                  -1835015.79240  24554011.73540
  27341621.88400  25760406.58300                  21349183.82640  25760410.27440
   5333920.70000  23916012.13000                    778135.16440  23916015.78640
 96  9 13  1 43 30.0090000  0  6 14 15 18 22 25 29
    913443.66700  23180928.26300                    741389.47740  23180932.84540
  29620443.19600  26214242.81700                  23156563.69640  26214248.87640
   -640274.02200  26516220.95800                   -478320.44340  26516224.83740
  -2403256.10300  24556608.99700                  -1824360.53140  24556614.18840
  27497988.44600  25790161.99700                  21471027.89840  25790165.68840
   5380675.06300  23924909.36400                    814567.13940  23924912.88040
 96  9 13  1 44  0.0090000  0  6 14 15 18 22 25 29
    968475.07900  23191400.59100                    784271.09940  23191405.22040
  29792081.61100  26246904.53600                  23290307.86940  26246910.12640
   -646934.30000  26514953.30200                   -483510.22440  26514959.10240
  -2389107.68300  24559301.11400                  -1813335.75340  24559306.29440
  27654508.11700  25819946.81000                  21592991.28240  25819950.59540
   5427586.94700  23933836.56000                    851121.86340  23933839.93540
 96  9 13  1 44 30.0090000  0  6 14 15 18 22 25 29
   1024011.52000  23201968.73100                    827546.24840  23201973.46640
  29963842.26500  26279589.66900                  23424147.29540  26279596.02040
   -653552.65400  26513693.53600                   -488667.34940  26513698.50540
  -2374447.10900  24562091.06700                  -1801911.90440  24562095.96640
  27811174.44200  25849758.94200                  21715068.92940  25849762.98540
   5474647.27800  23942791.78600                    887792.25140  23942795.31340
 96  9 13  1 45  0.0100000  0  6 14 15 18 22 25 29
   1080049.34500  23212632.52500                    871212.09140  23212637.10740
  30135724.94200  26312297.92400                  23558081.78140  26312303.49040
   -660123.79800  26512442.95500                   -493787.66440  26512447.43240
  -2359269.89700  24564979.07200                  -1790085.47240  24564984.06440
  27967984.58600  25879599.22100                  21837258.64740  25879602.64340
   5521864.86700  23951776.94700                    924585.18440  23951780.42840
 96  9 13  1 45 30.0100000  0  6 14 15 18 22 25 29
   1136590.93700  23223391.79100                    915270.47240  23223396.17440
  30307732.47200  26345030.26000                  23692113.58440  26345035.52140
   -666620.67800  26511206.75200                   -498850.15440  26511211.41640
  -2343561.67200  24567968.15800                  -1777845.26640  24567973.08040
  28124954.89200  25909469.39300                  21959573.16540  25909473.22540
   5569248.80500  23960793.89300                    961507.73940  23960797.46740
 96  9 13  1 46  0.0100000  0  6 14 15 18 22 25 29
   1193624.29000  23234244.93200                    959712.04740  23234249.46740
  30479864.94900  26377785.66600                  23826242.73040  26377792.39340
   -673045.81400  26509984.07200                   -503856.71740  26509988.22140
  -2327327.68000  24571057.46300                  -1765195.37140  24571062.22140
  28282073.12100  25939368.25200                  22082002.94540  25939372.72840
   5616794.04100  23969841.40000                    998555.97540  23969844.92840
 96  9 13  1 46 30.0100000  0  6 14 15 18 22 25 29
   1251155.49700  23245192.82200                   1004541.55840  23245197.42840
  30652111.08400  26410563.16600                  23960460.44140  26410569.11940
   -679417.53500  26508771.33800                   -508821.65940  26508776.49440
  -2310599.14700  24574240.76000                  -1752160.12240  24574245.89340
  28439327.63700  25969292.90000                  22204538.92240  25969297.23640
   5664495.21500  23978918.36100                   1035725.73140  23978921.81840
 96  9 13  1 47  0.0100000  0  6 14 15 18 22 25 29
   1309194.30700  23256237.25200                   1049766.60440  23256241.89340
  30824463.24700  26443360.61100                  24094760.77740  26443366.79940
   -685736.73200  26507569.33800                   -513745.65740  26507574.04940
  -2293397.56400  24577514.29100                  -1738756.25840  24577519.23640
  28596724.15600  25999243.56400                  22327185.55440  25999247.77140
   5712357.41900  23988026.49400                   1073020.95540  23988029.97540
 96  9 13  1 47 30.0100000  0  6 14 15 18 22 25 29
   1367737.63400  23267377.76000                   1095384.78140  23267382.29540
  30996918.35700  26476177.61900                  24229141.32140  26476183.06840
   -692013.32200  26506374.72100                   -518636.48040  26506379.26840
  -2275717.65500  24580878.21300                  -1724979.67040  24580883.41640
  28754259.91700  26029222.34600                  22449940.68540  26029226.23640
   5760391.82600  23997166.90800                   1110450.36840  23997170.61140
 96  9 13  1 48  0.0100000  0  6 14 15 18 22 25 29
   1426807.52300  23278618.27500                   1141413.26540  23278622.86940
  31169483.89300  26509016.14300                  24363607.92640  26509021.21740
   -698242.97600  26505189.47100                   -523490.72740  26505194.48640
  -2257542.68700  24584337.03300                  -1710817.33040  24584341.97840
  28911941.86500  26059227.76800                  22572809.73740  26059231.31840
   5808624.78800  24006345.58800                   1148034.50740  24006349.18540
 96  9 13  1 48 30.0100000  0  6 14 15 18 22 25 29
   1486423.22700  23289962.89300                   1187867.06040  23289967.56840
  31342157.79100  26541874.41600                  24498158.96840  26541879.65440
   -704414.76700  26504014.81400                   -528299.89240  26504019.32640
  -2238865.09700  24587891.26800                  -1696263.34140  24587896.11940
  29069773.67100  26089262.32200                  22695795.56040  26089265.95540
   5857056.82500  24015561.83800                   1185773.75640  24015565.42440
 96  9 13  1 49  0.0100000  0  6 14 15 18 22 25 29
   1546584.25400  23301411.09600                   1234745.78640  23301415.67840
  31514937.84900  26574753.66600                  24632792.70440  26574758.23640
   -710513.27900  26502854.06400                   -533051.93840  26502857.62740
  -2219678.75200  24591541.90800                  -1681312.91340  24591546.80740
  29227740.75300  26119322.90000                  22818886.76140  26119327.11940
   5905696.58800  24024817.45500                   1223674.87540  24024821.15840
 96  9 13  1 49 30.0100000  0  6 14 15 18 22 25 29
   1607261.93400  23312957.86100                   1282027.09540  23312962.32640
  31687801.03900  26607647.98600                  24767491.21740  26607653.77540
   -716551.87800  26501704.93900                   -537757.30140  26501710.17840
  -2199999.06500  24595287.00200                  -1665978.06540  24595291.99440
  29385811.02000  26149402.12700                  22942058.41040  26149405.20940
   5954516.51000  24034107.61900                   1261716.38040  24034111.22840
 96  9 13  1 50  0.0100000  0  6 14 15 18 22 25 29
   1668482.98800  23324607.70500                   1329731.81140  23324612.13540
  31860761.16400  26640561.33000                  24902265.31840  26640567.48240
   -722505.00600  26500571.76000                   -542396.07040  26500576.78740
  -2179816.03900  24599128.07200                  -1650251.01140  24599132.73640
  29544001.14000  26179504.83800                  23065323.43440  26179508.30740
   6003514.85000  24043431.98600                   1299896.90340  24043435.56040
 96  9 13  1 50 30.0100000  0  6 14 15 18 22 25 29
   1730235.94100  23336358.76000                   1377850.98940  23336363.24840
  32033805.37900  26673490.68200                  25037104.90540  26673496.50640
   -728383.52000  26499453.15000                   -546976.68740  26499458.54140
  -2159143.81300  24603061.46300                  -1634142.76340  24603066.40840
  29702296.94700  26209627.89300                  23188670.80940  26209630.99840
   6052668.86600  24052785.36900                   1338198.74040  24052788.96740
 96  9 13  1 51  0.0100000  0  6 14 15 18 22 25 29
   1792498.54600  23348207.11100                   1426367.30640  23348211.54140
  32206930.06600  26706435.41600                  25172007.24840  26706442.09640
   -734189.82200  26498348.51000                   -551501.06640  26498353.11540
  -2137984.68600  24607088.01000                  -1617655.10140  24607092.67440
  29860709.30900  26239771.95500                  23312109.02140  26239775.55340
   6101980.74400  24062169.18200                   1376623.59040  24062172.82640
 96  9 13  1 51 30.0100000  0  6 14 15 18 22 25 29
   1855276.44400  23360153.44700                   1475285.14540  23360157.91240
  32380140.16600  26739396.31400                  25306976.09640  26739402.29140
   -739918.46800  26497257.99400                   -555964.90740  26497263.06840
  -2116324.53800  24611209.54900                  -1600777.03940  24611214.30740
  30019268.98600  26269945.62700                  23435662.00240  26269949.74040
   6151448.15500  24071582.62700                   1415169.62540  24071586.11940
 96  9 13  1 52  0.0100000  0  6 14 15 18 22 25 29
   1918583.13500  23372200.15800                   1524615.04040  23372204.64640
  32553429.37900  26772372.65800                  25442006.59340  26772377.97840
   -745590.29800  26496178.42400                   -560384.47440  26496183.29940
  -2094163.88900  24615426.83800                  -1583508.97840  24615431.39640
  30177976.62100  26300146.90000                  23559330.29940  26300150.70940
   6201082.58000  24081027.58000                   1453845.80840  24081030.97840
 96  9 13  1 52 30.0100000  0  6 14 15 18 22 25 29
   1982427.87800  23384349.26800                   1574364.18940  23384353.95540
  32726805.64400  26805364.61100                  25577104.94940  26805371.17440
   -751194.66200  26495111.46300                   -564751.48340  26495117.41640
  -2071479.52900  24619743.33800                  -1565832.82440  24619748.10740
  30336849.76300  26330379.28300                  23683127.53740  26330382.77540
   6250918.46200  24090511.05700                   1492678.96640  24090514.54940
 96  9 13  1 53  0.0100000  0  6 14 15 18 22 25 29
   2046805.93900  23396600.10300                   1624528.91340  23396604.61540
  32900257.83200  26838370.65800                  25712262.44640  26838376.50640
   -756741.29100  26494056.06400                   -569073.49340  26494061.44340
  -2048272.59100  24624159.63500                  -1547749.46740  24624164.62740
  30495888.02900  26360643.78300                  23807053.45240  26360647.88540
   6300959.14200  24100033.43900                   1531671.71140  24100036.99040
 96  9 13  1 53 30.0100000  0  6 14 15 18 22 25 29
   2111731.96100  23408955.14300                   1675120.62040  23408959.64340
  33073774.83100  26871391.35300                  25847470.43140  26871397.29540
   -762251.64200  26493008.35300                   -573367.22840  26493014.22540
  -2024536.15600  24628676.66600                  -1529253.51840  24628681.24840
  30655063.15000  26390933.33000                  23931086.02140  26390937.31440
   6351203.38300  24109594.47800                   1570823.07640  24109598.14640
 96  9 13  1 54  0.0100000  0  6 14 15 18 22 25 29
   2177218.15200  23421416.75200                   1726148.81640  23421421.19340
  33247366.68300  26904424.20500                  25982736.76040  26904429.94740
   -767715.73600  26491967.43900                   -577624.93540  26491973.20540
  -2000236.25300  24633300.47800                  -1510318.50540  24633305.21340
  30814367.04300  26421247.46300                  24055218.91640  26421250.63940
   6401664.73500  24119197.15000                   1610143.61540  24119200.72540
 96  9 13  1 54 30.0100000  0  6 14 15 18 22 25 29
   2243245.12100  23433981.02500                   1777598.40340  23433985.57240
  33421028.94600  26937471.65000                  26118057.95940  26937476.35040
   -773119.43200  26490940.19700                   -581835.59140  26490945.75240
  -1975370.27600  24638032.46300                  -1490942.40040  24638037.18540
  30973791.11500  26451584.77500                  24179445.46340  26451589.18240
   6452320.31600  24128836.54900                   1649615.49940  24128840.10040
 96  9 13  1 55  0.0100000  0  6 14 15 18 22 25 29
   2309808.52800  23446647.58000                   1829465.99240  23446652.19740
  33594751.48700  26970530.11900                  26253426.11140  26970536.30740
   -778474.02800  26489921.68900                   -586007.96040  26489926.61140
  -1949943.73600  24642871.28300                  -1471129.49040  24642875.57240
  31133304.77400  26481939.97800                  24303741.80140  26481944.29140
   6503148.29800  24138508.61100                   1689221.72640  24138512.19740
 96  9 13  1 55 30.0100000  0  6 14 15 18 22 25 29
   2376911.62500  23459417.12700                   1881754.11840  23459421.60340
  33768527.40400  27003598.52500                  26388835.85940  27003603.98640
   -783775.61000  26488912.63500                   -590139.02640  26488917.25240
  -1923948.42800  24647817.83800                  -1450873.38340  24647822.51440
  31292896.47900  26512308.05700                  24428098.99640  26512311.88940
   6554143.74700  24148212.66600                   1728958.45040  24148216.26440
 96  9 13  1 56  0.0110000  0  6 14 15 18 22 25 29
   2444539.04000  23472286.29600                   1934450.79940  23472290.67940
  33942356.71900  27036676.73300                  26524287.22040  27036682.96840
   -789015.27300  26487915.65500                   -594221.86240  26487921.57340
  -1897404.13200  24652868.69400                  -1430189.49340  24652873.76840
  31452581.25800  26542695.32700                  24552528.66940  26542699.58140
   6605295.96200  24157946.74900                   1768817.32440  24157950.20640
 96  9 13  1 56 30.0110000  0  6 14 15 18 22 25 29
   2512697.48900  23485256.22600                   1987561.28140  23485260.90140
  34116235.10300  27069764.57700                  26659776.81040  27069770.54240
   -794181.75300  26486932.44400                   -598247.65040  26486938.31540
  -1870321.03800  24658022.57700                  -1409085.77140  24658027.35840
  31612367.81800  26573102.52200                  24677037.66540  26573106.09740
   6656614.87800  24167712.50700                   1808806.09240  24167716.03440
 96  9 13  1 57  0.0110000  0  6 14 15 18 22 25 29
   2581402.49200  23498330.51500                   2041097.64240  23498334.94440
  34290167.38800  27102862.72600                  26795308.40140  27102869.74940
   -799279.73000  26485961.44400                   -602220.05140  26485966.17940
  -1842687.54900  24663280.93600                  -1387553.15440  24663285.82340
  31772265.32500  26603530.24900                  24801633.15240  26603533.23740
   6708106.10300  24177511.01500                   1848929.13040  24177514.41340
 96  9 13  1 57 30.0110000  0  6 14 15 18 22 25 29
   2650634.02300  23511504.78800                   2095044.28340  23511509.24140
  34464145.83600  27135969.10800                  26930875.96640  27135975.51840
   -804321.48700  26485003.19400                   -606148.67740  26485007.70640
  -1814515.84200  24668641.32700                  -1365601.16240  24668646.31940
  31932282.90700  26633979.86600                  24926322.14340  26633983.62840
   6759766.01600  24187341.39700                   1889183.60740  24187344.87840
 96  9 13  1 58  0.0110000  0  6 14 15 18 22 25 29
   2720365.20600  23524774.12400                   2149380.27340  23524778.57740
  34638154.47100  27169082.54600                  27066467.03340  27169088.56940
   -809319.64400  26484052.32700                   -610043.29740  26484056.73340
  -1785832.08800  24674100.13200                  -1343250.15440  24674105.21840
  32092400.53900  26664449.66300                  25051089.13840  26664453.61240
   6811576.18800  24197200.57700                   1929555.17840  24197204.18640
 96  9 13  1 58 30.0110000  0  6 14 15 18 22 25 29
   2790624.91400  23538143.96000                   2204128.09240  23538148.63640
  34812201.96600  27202202.92900                  27202088.42340  27202208.75340
   -814259.30400  26483111.30400                   -613892.34740  26483115.71040
  -1756608.70700  24679661.32700                  -1320478.66340  24679666.06140
  32252617.40300  26694937.67900                  25175933.44840  26694941.07740
   6863562.81800  24207093.15500                   1970064.24040  24207096.89340
 96  9 13  1 59  0.0110000  0  6 14 15 18 22 25 29
   2861414.86300  23551615.11600                   2259289.08840  23551619.79240
  34986274.75400  27235327.55400                  27337729.48640  27235334.47240
   -819152.84900  26482179.46800                   -617705.47940  26482184.88240
  -1726849.15000  24685324.03800                  -1297289.38140  24685328.98340
  32412913.27000  26725440.74900                  25300839.32440  26725444.28840
   6915726.56300  24217019.75700                   2010711.31940  24217023.48340
 96  9 13  1 59 30.0110000  0  6 14 15 18 22 25 29
   2932752.63900  23565190.28000                   2314876.95940  23565194.82740
  35160386.24400  27268460.39000                  27473400.72740  27268466.50740
   -823966.21400  26481263.32700                   -621456.12240  26481268.83540
  -1696533.98800  24691092.86600                  -1273667.15540  24691097.81140
  32573302.10700  26755961.88200                  25425817.65240  26755965.86640
   6968094.16600  24226984.91300                   2051517.25140  24226988.59340
 96  9 13  2  0  0.0110000  0  6 14 15 18 22 25 29
   3004664.80200  23578874.60800                   2370912.40940  23578879.34340
  35334538.81000  27301600.22600                  27609103.94040  27301606.84740
   -828679.92300  26480367.10800                   -625129.12040  26480371.73740
  -1665639.12200  24696972.09300                  -1249593.21540  24696976.81540
  32733783.29100  26786500.50700                  25550867.91840  26786504.47940
   7020672.79100  24236990.43600                   2092487.61140  24236994.10440
 96  9 13  2  0 30.0110000  0  6 14 15 18 22 25 29
   3077154.86500  23592668.78800                   2427398.17040  23592673.51140
  35508722.11100  27334746.28800                  27744831.13040  27334752.10140
   -833312.08000  26479485.44400                   -628738.54740  26479490.02640
  -1634161.48300  24702961.83500                  -1225065.16140  24702966.87440
  32894362.19600  26817057.84300                  25675994.33440  26817061.86240
   7073458.19000  24247035.19400                   2133619.09640  24247038.90940
 96  9 13  2  1  0.0110000  0  6 14 15 18 22 25 29
   3150226.38900  23606573.96800                   2484337.01840  23606578.62040
  35682941.70700  27367900.08500                  27880586.58640  27367906.40140
   -837852.56600  26478621.48300                   -632276.56540  26478626.90940
  -1602097.94300  24709063.44400                  -1200080.55140  24709068.57740
  33055055.23900  26847637.14700                  25801209.69340  26847641.69440
   7126445.25000  24257118.10100                   2174907.72240  24257121.79240
 96  9 13  2  1 30.0110000  0  6 14 15 18 22 25 29
   3223841.55900  23620582.50700                   2541699.48440  23620587.11240
  35857166.86100  27401053.31100                  28016346.37240  27401057.75340
   -842322.71000  26477771.31900                   -635759.75740  26477776.86240
  -1569483.37700  24715269.98300                  -1174666.58040  24715274.89340
  33215834.35700  26878231.47600                  25926492.13640  26878236.42140
   7179604.18000  24267234.00700                   2216330.27040  24267237.58140
 96  9 13  2  2  0.0110000  0  6 14 15 18 22 25 29
   3298027.68900  23634699.63200                   2599506.84940  23634704.16740
  36031426.66800  27434213.52200                  28152133.16440  27434219.49940
   -846705.53900  26476937.49100                   -639174.92040  26476942.43640
  -1536305.54200  24721583.36600                  -1148813.70740  24721588.00740
  33376730.66600  26908848.32700                  26051865.88540  26908852.68640
   7232985.56800  24277392.08500                   2257926.16240  24277395.69440
 96  9 13  2  2 30.0110000  0  6 14 15 18 22 25 29
   3372748.11100  23648918.58500                   2657730.55440  23648923.15540
  36205696.92800  27467376.97600                  28287928.05140  27467382.40140
   -851025.39700  26476114.59300                   -642541.00940  26476119.76140
  -1502604.01700  24727996.42900                  -1122552.75040  24728001.31540
  33537717.51700  26939484.09300                  26177310.18840  26939488.87440
   7286574.87500  24287590.05400                   2299684.07140  24287593.46440
 96  9 13  2  3  0.0110000  0  6 14 15 18 22 25 29
   3447995.24100  23663237.80400                   2716364.67140  23663242.28040
  36379971.75700  27500539.68600                  28423726.57740  27500545.34740
   -855277.79500  26475304.79600                   -645854.53940  26475310.33940
  -1468382.27500  24734508.67100                  -1095886.43740  24734513.46440
  33698770.45100  26970131.71000                  26302805.97140  26970135.62440
   7340373.69800  24297827.52200                   2341605.23440  24297830.88640
 96  9 13  2  3 30.0110000  0  6 14 15 18 22 25 29
   3523761.90000  23677655.50700                   2775403.61940  23677660.18340
  36554245.40200  27533704.53800                  28559524.19640  27533710.29240
   -859475.25900  26474506.74100                   -649125.26740  26474512.34340
  -1433630.41300  24741121.78000                  -1068807.04640  24741126.36240
  33859883.83000  27000790.25700                  26428348.86240  27000794.14740
   7394386.89500  24308105.72600                   2383693.44440  24308109.17140
 96  9 13  2  4  0.0110000  0  6 14 15 18 22 25 29
   3600063.76300  23692175.08500                   2834859.61640  23692179.79640
  36728526.30500  27566869.51500                  28695327.42540  27566872.32740
   -863620.59700  26473717.92100                   -652355.35740  26473723.69840
  -1398324.77400  24747840.60800                  -1041296.13740  24747845.01540
  34021079.01100  27031464.83500                  26553955.51740  27031468.18640
   7448612.05300  24318424.42900                   2425946.81740  24318428.13240
 96  9 13  2  4 30.0110000  0  6 14 15 18 22 25 29
   3676903.87000  23706797.51500                   2894735.02340  23706802.07340
  36902801.37900  27600031.70200                  28831126.14440  27600038.33540
   -867713.30100  26472938.98300                   -655544.44940  26472943.96440
  -1362445.40500  24754667.76500                  -1013338.16840  24754672.33540
  34182351.26600  27062153.39700                  26679622.20940  27062156.76140
   7503014.20600  24328776.74900                   2468338.11540  24328780.48740
 96  9 13  2  5  0.0110000  0  6 14 15 18 22 25 29
   3754302.25200  23721525.98300                   2955045.44340  23721530.41340
  37077068.71600  27633194.05400                  28966918.83040  27633201.22940
   -871740.46900  26472172.74100                   -658682.46740  26472177.62840
  -1325982.82100  24761606.24100                   -984925.74240  24761610.99940
  34343714.48300  27092860.31900                  26805359.78440  27092864.21040
   7557587.21900  24339161.85100                   2510862.54340  24339165.51840
 96  9 13  2  5 30.0110000  0  6 14 15 18 22 25 29
   3832274.09900  23736363.41300                   3015802.72540  23736368.00740
  37251332.53400  27666355.35100                  29102708.70040  27666361.22240
   -875699.68600  26471419.60100                   -661767.53640  26471424.26540
  -1288937.35900  24768655.74900                   -956059.13740  24768660.56540
  34505188.87300  27123587.65500                  26931183.99840  27123591.00740
   7612329.67900  24349578.78800                   2553519.01040  24349582.40940
 96  9 13  2  6  0.0110000  0  6 14 15 18 22 25 29
   3910808.51100  23751308.04600                   3076998.36140  23751312.62840
  37425573.40800  27699512.63200                  29238480.77340  27699518.83140
   -879596.02600  26470678.28000                   -664803.62240  26470682.26540
  -1251332.66900  24775811.58500                   -926756.76640  24775816.50740
  34666749.60000  27154331.69400                  27057075.48640  27154335.77240
   7667227.06900  24360025.43600                   2596296.20240  24360029.02240
 96  9 13  2  6 30.0110000  0  6 14 15 18 22 25 29
   3989911.74900  23766361.00700                   3138637.24440  23766365.64740
  37599791.09200  27732665.50700                  29374234.74840  27732671.41340
   -883404.40300  26469952.42100                   -667771.14640  26469957.48340
  -1213170.42000  24783073.57700                   -897019.93440  24783078.35840
  34828384.00800  27185090.06900                  27183024.36640  27185093.96040
   7722286.65300  24370502.96000                   2639199.78040  24370506.53440
 96  9 13  2  7  0.0120000  0  6 14 15 18 22 25 29
   4069582.15000  23781521.70700                   3200718.07540  23781526.35940
  37773996.86100  27765814.96500                  29509979.43340  27765820.96540
   -887135.73800  26469242.94900                   -670678.64140  26469247.80140
  -1174450.54600  24790442.01900                   -866848.58240  24790446.81240
  34990084.43900  27215860.10500                  27309024.69140  27215863.93740
   7777521.01500  24381013.73800                   2682239.54940  24381017.37140
 96  9 13  2  7 30.0120000  0  6 14 15 18 22 25 29
   4149802.73800  23796787.06600                   3263227.62640  23796791.81240
  37948180.63900  27798961.02700                  29645707.01540  27798966.99240
   -890800.99700  26468545.58200                   -673534.66940  26468551.28940
  -1135156.57900  24797919.43400                   -836229.88440  24797923.98040
  35151825.95800  27246638.33200                  27435057.06240  27246641.66040
   7832937.38000  24391559.01200                   2725421.13840  24391562.63340
 96  9 13  2  8  0.0120000  0  6 14 15 18 22 25 29
   4230557.59700  23812154.33200                   3326153.48540  23812159.01940
  38122332.61600  27832101.80100                  29781409.76340  27832107.76640
   -894396.25800  26467861.33200                   -676336.14040  26467866.51240
  -1095283.67800  24805506.63700                   -805160.07840  24805511.34840
  35313596.33900  27277422.47300                  27561111.90240  27277425.64840
   7888539.69100  24402140.02700                   2768747.62140  24402143.63740
 96  9 13  2  8 30.0120000  0  6 14 15 18 22 25 29
   4311863.89300  23827626.46500                   3389509.03940  23827631.05940
  38296471.22300  27865238.91000                  29917102.13640  27865245.07440
   -897904.04100  26467193.83200                   -679069.44240  26467198.15640
  -1054808.41900  24813208.86300                   -773620.88740  24813213.42240
  35475424.62600  27308216.86300                  27687211.86940  27308220.89440
   7944348.36100  24412760.10500                   2812234.89940  24412763.56240
 96  9 13  2  9  0.0120000  0  6 14 15 18 22 25 29
   4393701.69000  23843199.66000                   3453278.74640  23843204.19540
  38470581.74200  27898370.38700                  30052772.60740  27898376.83240
   -901352.20400  26466537.65200                   -681756.29040  26466542.65640
  -1013736.91500  24821024.39400                   -741617.09440  24821029.22340
  35637296.83900  27339020.88700                  27813346.04040  27339025.48040
   8000365.41000  24423419.54300                   2855884.56040  24423422.95340
 96  9 13  2  9 30.0120000  0  6 14 15 18 22 25 29
   4476080.87000  23858875.84800                   3517470.31040  23858880.30140
  38644657.82100  27931496.14400                  30188416.20340  27931502.75440
   -904727.24600  26465895.16800                   -684386.16540  26465899.94940
   -972074.43400  24828952.62900                   -709152.79840  24828957.36340
  35799222.73400  27369834.28500                  27939522.06240  27369838.55140
   8056584.08500  24434117.58200                   2899691.32440  24434121.15640
 96  9 13  2 10  0.0120000  0  6 14 15 18 22 25 29
   4559012.68400  23874657.26900                   3582092.50640  23874661.89840
  38818700.98300  27964615.75400                  30324034.19040  27964622.04740
   -908019.52700  26465268.84800                   -686951.55140  26465274.21540
   -929832.69500  24836991.06600                   -676237.13440  24836995.94140
  35961212.53700  27400660.56600                  28065747.85640  27400664.84440
   8112997.72700  24444852.81600                   2943650.01340  24444856.55540
 96  9 13  2 10 30.0120000  0  6 14 15 18 22 25 29
   4642507.09000  23890545.53500                   3647153.07740  23890550.10540
  38992711.41800  27997728.78500                  30459626.66540  27997735.09040
   -911236.86200  26464656.19100                   -689458.52840  26464661.12540
   -887007.77900  24845140.31600                   -642867.05040  24845145.12140
  36123265.58200  27431497.91000                  28192022.96440  27431501.96540
   8169595.54000  24455622.91000                   2987752.21240  24455626.64840
 96  9 13  2 11  0.0120000  0  7 14 15 18 19 22 25 29
   4726570.82100  23906542.44100                   3712657.27740  23906547.00040
  39166684.34400  28030834.35500                  30595189.90740  28030840.35540
   -914380.92500  26464057.98800                   -691908.42740  26464062.46540
    -11988.05710  28407092.95700
   -843590.62500  24853402.04300                   -609035.47840  24853407.12940
  36285367.01100  27462343.80100                  28318335.77140  27462347.78540
   8226366.52500  24466426.23800                   3031989.34740  24466430.07040
 96  9 13  2 11 30.0120000  0  7 14 15 18 19 22 25 29
   4811199.47800  23922646.84000                   3778601.67640  23922651.24640
  39340614.69700  28063933.09000                  30730719.96140  28063939.61740
   -917433.97800  26463477.83200                   -694287.40140  26463482.69540
    -33026.56000  28403089.84000
   -799583.29000  24861776.62900                   -574744.02740  24861781.65640
  36447532.72200  27493204.02700                  28444698.64840  27493207.83640
   8283304.91800  24477261.18400                   3076356.93440  24477264.99240
 96  9 13  2 12  0.0120000  0  7 14 15 18 19 22 25 29
   4896374.80600  23938855.09800                   3844972.05840  23938859.72640
  39514495.82300  28097021.38700                  30866211.70140  28097027.59840
   -920398.33700  26462912.41800                   -696597.26840  26462917.16440
    -53939.93600  28399110.26900                      -542.05350  28399115.48440
   -754976.88700  24870265.04300                   -539985.76740  24870269.71940
  36609762.15900  27524074.63700                  28571111.20240  27524078.45740
   8340430.04800  24488131.41800                   3120870.03140  24488135.14440
 96  9 13  2 12 30.0120000  0  7 14 15 18 19 22 25 29
   4982094.53900  23955167.16800                   3911766.65440  23955171.57440
  39688330.97400  28130100.31600                  31001667.55140  28130106.41040
   -923272.02900  26462365.59800                   -698836.48240  26462370.69540
    -74737.96300  28395151.44100                    -16748.36540  28395156.25840
   -709746.04900  24878871.75400                   -504740.93940  24878876.40640
  36772060.28000  27554959.70700                  28697577.28440  27554963.56240
   8397769.22200  24499042.82400                   3165549.91440  24499046.50440
 96  9 13  2 13  0.0120000  0  7 14 15 18 19 22 25 29
   5068339.48700  23971579.07400                   3978970.49840  23971583.37540
  39862111.54000  28163169.93400                  31137080.91540  28163175.86340
   -926062.92100  26461835.12900                   -701011.16640  26461840.16840
    -95420.51300  28391216.73800                    -32864.55540  28391224.57040
   -663911.65200  24887594.11300                   -469025.80440  24887598.70740
  36934429.38100  27585858.09800                  28824098.63140  27585861.90640
   8455334.96600  24509997.39400                   3210406.34240  24510000.94540
 96  9 13  2 13 30.0120000  0  7 14 15 18 19 22 25 29
   5155112.56900  23988091.40200                   4046585.88340  23988095.94940
  40035838.85700  28196229.74600                  31272452.76240  28196235.48840
   -928768.90700  26461319.98000                   -703119.70040  26461324.42240
   -115979.96200  28387303.87100                    -48884.87140  28387310.81240
   -617474.33900  24896430.99600                   -432840.86940  24896435.42640
  37096879.65300  27616770.68400                  28950683.27740  27616774.73840
   8513149.04300  24520998.99600                   3255456.28140  24521002.54740
 96  9 13  2 14  0.0120000  0  7 14 15 18 19 22 25 29
   5242428.03100  24004706.82400                   4114623.90140  24004711.50040
  40209507.46200  28229276.97300                  31407778.86840  28229282.59840
   -931412.97500  26460817.36300                   -705179.99340  26460822.20340
   -136415.39700  28383415.11300                    -64808.58740  28383418.00840
   -570430.38900  24905382.76200                   -396183.22240  24905387.01640
  37259384.57300  27647693.53500                  29077310.49440  27647698.39840
   8571196.39900  24532044.99600                   3300687.99240  24532048.73440
 96  9 13  2 14 30.0120000  0  7 14 15 18 19 22 25 29
   5330301.59800  24021428.44100                   4183096.80640  24021433.12940
  40383107.35000  28262311.42600                  31543051.44440  28262318.08240
   -934002.78500  26460323.91800                   -707197.99040  26460328.51240
   -156726.60600  28379550.37900                    -80635.43140  28379555.59440
   -522800.64100  24914446.51900                   -359069.10840  24914451.09040
  37421922.28300  27678624.02700                  29203963.25140  27678628.91440
   8629448.39000  24543129.91800                   3346079.16340  24543133.60940
 96  9 13  2 15  0.0120000  0  7 14 15 18 19 22 25 29
   5418773.01800  24038263.95700                   4252035.57140  24038268.62140
  40556649.65800  28295337.26900                  31678279.16440  28295345.05540
   -936518.17600  26459845.03500                   -709158.01140  26459849.89840
   -176889.88300  28375713.77700                    -96347.04540  28375719.18040
   -474580.60100  24923622.16800                   -321495.02640  24923626.48040
  37584503.19300  27709561.34000                  29330649.68140  27709566.32040
   8687903.51200  24554253.47300                   3391628.61140  24554257.10540
 96  9 13  2 15 30.0120000  0  7 14 15 18 19 22 25 29
   5507861.39100  24055217.19100                   4321455.08040  24055221.91440
  40730128.45800  28328349.64400                  31813457.34040  28328356.24240
   -938957.34600  26459382.01200                   -711058.62740  26459386.40640
   -196901.71900  28371904.73000                   -111940.65740  28371911.76640
   -425753.92900  24932913.83200                   -283448.24640  24932918.53140
  37747113.34400  27740505.18400                  29457358.89740  27740508.60540
   8746539.11000  24565411.55100                   3437318.69640  24565415.24240
 96  9 13  2 16  0.0120000  0  7 14 15 18 19 22 25 29
   5597564.26100  24072287.09000                   4391353.41540  24072291.80140
  40903539.27100  28361348.41000                  31948582.56940  28361354.08240
   -941320.87500  26458931.79300                   -712900.30940  26458935.94140
   -216766.54000  28368124.48800                   -127419.66240  28368130.43040
   -376335.04400  24942318.05100                   -244940.01040  24942322.66840
  37909750.27700  27771454.62900                  29584088.97540  27771458.97640
   8805347.62600  24576602.56600                   3483143.52140  24576606.17640
 96  9 13  2 16 30.0120000  0  7 14 15 18 19 22 25 29
   5687857.52600  24089469.32400                   4461711.80040  24089474.12940
  41076868.54500  28394330.86300                  32083644.22740  28394338.19140
   -943608.21200  26458497.19100                   -714682.62340  26458501.66840
   -236486.85600  28364372.02700                   -142786.13240  28364377.45340
   -326345.53000  24951830.41000                   -205987.12640  24951835.32040
  38072423.69200  27802410.42600                  29710847.49640  27802414.11740
   8864339.76700  24587828.27700                   3529111.42340  24587831.91040
 96  9 13  2 17  0.0120000  0  7 14 15 18 19 22 25 29
   5778714.62200  24106758.72300                   4532509.53440  24106763.46940
  41250112.62600  28427298.59800                  32218639.55340  28427306.31240
   -945825.27600  26458074.37100                   -716410.19140  26458078.55540
   -256053.79000  28360648.31600                   -158032.98640  28360654.90240
   -275781.00600  24961452.89400                   -166586.17740  24961457.33640
  38235135.31200  27833373.29300                  29837635.75540  27833377.23040
   8923522.91700  24599090.65200                   3575228.16740  24599094.32040
 96  9 13  2 17 30.0120000  0  7 14 15 18 19 22 25 29
   5870109.33800  24124150.73000                   4603726.19040  24124155.31240
  41423273.48900  28460249.59000                  32353570.06740  28460256.49640
   -947958.11000  26457668.46500                   -718072.11440  26457672.55540
   -275468.59800  28356953.80900                   -173161.41140  28356958.00440
   -224633.13200  24971185.87100                   -126730.67840  24971190.37140
  38397877.38600  27864341.39400                  29964447.75240  27864345.81240
   8982904.09600  24610390.07400                   3621499.22340  24610393.77740
 96  9 13  2 18  0.0130000  0  7 14 15 18 19 22 25 29
   5962024.09100  24141641.45400                   4675348.07140  24141646.11840
  41596354.00000  28493185.57900                  32488437.92940  28493190.95840
   -949999.02500  26457280.29000                   -719662.40740  26457284.93140
   -294735.22200  28353287.84500                   -188174.28440  28353294.93840
   -172902.15000  24981029.92300                    -86420.79740  24981034.48140
  38560656.58400  27895317.98500                  30091288.68740  27895322.02840
   9042499.64200  24621730.80600                   3667937.31640  24621734.36840
 96  9 13  2 18 30.0130000  0  7 14 15 18 19 22 25 29
   6054434.32700  24159226.62600                   4747356.04640  24159231.13840
  41769330.54000  28526102.54000                  32623224.77040  28526110.41940
   -951951.29700  26456908.49300                   -721183.64140  26456912.89940
   -313852.82300  28349649.86800                   -203071.07040  28349657.73540
   -120574.38100  24990987.50900                    -45645.89540  24990992.12640
  38723445.53600  27926294.34500                  30218137.25640  27926298.11840
   9102281.96400  24633107.02400                   3714520.95240  24633110.57540
 96  9 13  2 19  0.0130000  0  7 14 15 18 19 22 25 29
   6147367.22800  24176911.06300                   4819771.28740  24176915.72740
  41942225.69300  28559003.10200                  32757948.20340  28559010.02040
   -953803.55000  26456555.89200                   -722626.93540  26456559.95840
   -332819.80200  28346040.18100                   -217850.45040  28346047.35640
    -67619.36000  25001064.37600                     -4382.23340  25001068.98140
  38886248.20600  27957275.98500                  30344996.46940  27957279.77040
   9162260.94400  24644520.70400                   3761257.82540  24644524.31340
 96  9 13  2 19 30.0130000  0  7 14 15 18 19 22 25 29
   6240830.17000  24194696.56300                   4892599.55440  24194701.13440
  42115029.79400  28591887.43100                  32892600.66740  28591894.43140
   -955560.62700  26456221.91500                   -723996.06140  26456226.06340
   -351653.16300  28342456.75100                   -232525.73140  28342460.50140
    -14046.09800  25011258.94600                     37363.18540  25011263.44640
  39049069.76600  27988259.11800                  30471870.44940  27988263.80640
   9222430.96800  24655970.82900                   3808143.55740  24655974.43840
 96  9 13  2 20  0.0130000  0  7 14 15 18 19 22 25 29
   6334818.74600  24212582.00900                   4965837.40340  24212586.50940
  42287716.53700  28624748.91500                  33027161.69740  28624754.21240
   -957262.71200  26455897.53200                   -725322.33940  26455902.29040
   -370371.38100  28338895.02400                   -247111.32140  28338899.72440
     40116.28000  25021566.07100                     79567.66140  25021570.64240
  39211906.19000  28019245.70400                  30598755.96940  28019250.34540
   9282774.57600  24667453.86800                   3855164.55640  24667457.39540
 96  9 13  2 20 30.0130000  0  7 14 15 18 19 22 25 29
   6429376.73500  24230575.72700                   5039518.95040  24230580.19240
  42460316.78900  28657593.74300                  33161655.34540  28657600.95440
   -958888.16000  26455587.85200                   -726588.89340  26455592.66940
   -388944.67000  28335359.71200                   -261583.91340  28335365.51340
     94887.78300  25031988.29800                    122246.76240  25031992.79840
  39374791.78200  28050241.80600                  30725679.81640  28050247.41940
   9343326.97000  24678976.41500                   3902348.24440  24678980.10640
 96  9 13  2 21  0.0130000  0  7 14 15 18 19 22 25 29
   6524502.00700  24248677.30600                   5113642.53340  24248681.97040
  42632822.07000  28690420.21200                  33296075.00440  28690426.01340
   -960441.34800  26455292.79000                   -727799.14240  26455297.82940
   -407377.25700  28331852.64200                   -275946.90640  28331858.18440
    150243.91500  25042522.41500                    165381.43540  25042526.92740
  39537721.38100  28081247.20400                  30852637.95240  28081251.39940
   9404099.51900  24690541.04000                   3949703.48040  24690544.56740
 96  9 13  2 21 30.0130000  0  7 14 15 18 19 22 25 29
   6620183.75100  24266885.20400                   5188199.73440  24266889.93840
  42805222.98700  28723226.97700                  33430413.27040  28723234.58740
   -961906.50900  26455014.64200                   -728940.81440  26455020.09140
   -425656.95300  28328373.84500                   -290190.76040  28328379.79840
    206180.91400  25053166.95400                    208968.72440  25053171.41940
  39700688.75500  28112258.65700                  30979625.50240  28112262.94640
   9465087.06400  24702146.63400                   3997226.24940  24702150.29040
 96  9 13  2 22  0.0130000  0  7 14 15 18 19 22 25 29
   6716432.50500  24285200.74300                   5263198.75940  24285205.51340
  42977526.76300  28756016.00900                  33564675.92040  28756019.73540
   -963266.06800  26454755.79000                   -730000.18040  26454761.28640
   -443756.57000  28324929.30600                   -304294.27640  28324935.71640
    262712.70600  25063924.46200                    253019.48940  25063928.70440
  39863685.23000  28143276.21200                  31106635.77040  28143280.55940
   9526306.20200  24713796.21200                   4044929.48040  24713799.92740
 96  9 13  2 22 30.0130000  0  6 14 18 19 22 25 29
   6813226.13200  24303619.99300                   5338622.36540  24303624.59940
   -964521.99700  26454516.37600                   -730978.80140  26454521.05240
   -461685.33200  28321518.01700                   -318264.68040  28321523.58340
    319839.52000  25074795.40700                    297533.90140  25074799.98940
  40026678.55500  28174292.57900                  31233643.57140  28174295.57940
   9587739.73800  24725486.52400                   4092799.77440  24725490.13440
 96  9 13  2 23  0.0130000  0  7  4 14 18 19 22 25 29
     18747.63710  28548688.16500
   6910571.68300  24322144.08700                   5414476.03740  24322148.72740
   -965659.10900  26454299.69600                   -731864.83640  26454304.10240
   -479423.60200  28318142.15700                   -332086.64740  28318147.61840
    377593.78700  25085785.71200                    342537.24340  25085790.28240
  40189664.85200  28205307.47700                  31360645.87440  28205311.33340
   9649393.75900  24737219.11800                   4140841.87640  24737222.66940
 96  9 13  2 23 30.0130000  0  7  4 14 18 19 22 25 29
     70226.76800  28558485.93800
   7008475.62300  24340774.71200                   5490764.82240  24340779.39940
   -966694.15500  26454102.11000                   -732671.34540  26454107.38440
   -496979.89500  28314800.68100                   -345766.80640  28314806.62240
    435975.29800  25096895.31300                    388029.34040  25096899.76740
  40352644.41100  28236322.00100                  31487642.93240  28236325.56340
   9711255.37900  24748991.08700                   4189045.74040  24748994.54440
 96  9 13  2 24  0.0130000  0  7  4 14 18 19 22 25 29
    122187.86600  28568372.20400
   7106938.69900  24359511.61800                   5567489.28840  24359516.18840
   -967648.66000  26453920.69600                   -733415.08640  26453925.39540
   -514362.83600  28311493.50100                   -359311.89440  28311500.23940
    494986.50500  25108124.47000                    434012.11240  25108129.29840
  40515621.30300  28267334.72000                  31614637.92940  28267339.11440
   9773335.14500  24760804.32900                   4237419.59140  24760807.88040
 96  9 13  2 24 30.0130000  0  7  4 14 18 19 22 25 29
    174650.56600  28578355.98500
   7205978.42200  24378358.06300                   5644663.09640  24378362.72740
   -968509.79800  26453756.91500                   -734086.07940  26453761.81340
   -531567.12700  28308219.64900                   -372717.78240  28308224.72440
    554650.24400  25119478.16500                    480503.34840  25119482.75940
  40678627.66700  28298352.82100                  31741655.91640  28298357.19240
   9835639.20400  24772660.59500                   4285968.21540  24772664.13440
 96  9 13  2 25  0.0130000  0  7  4 14 18 19 22 25 29
    227628.62600  28588438.54000                     12425.45550  28588442.48940
   7305600.29200  24397315.51700                   5722290.52440  24397320.29840
   -969273.26400  26453612.29800                   -734680.95940  26453616.61040
   -548598.88100  28304978.28200                   -385989.17340  28304985.17740
    614952.35100  25130953.45400                    527492.02040  25130958.25940
  40841677.23500  28329381.80600                  31868707.51540  28329384.68840
   9898164.95900  24784558.64200                   4334689.58740  24784562.14540
 96  9 13  2 25 30.0130000  0  7  4 14 18 19 22 25 29
    281108.21500  28598614.40700                     54097.83340  28598619.96240
   7405785.22700  24416380.14200                   5800356.69840  24416384.68840
   -969960.46100  26453482.10200                   -735216.41140  26453486.46240
   -565487.90100  28301764.43100                   -399149.40840  28301771.78240
    675859.82300  25142543.51700                    574952.40040  25142548.20440
  41004765.99800  28360416.20400                  31995789.68040  28360419.70840
   9960893.29700  24796495.02400                   4383568.82240  24796498.79840
 96  9 13  2 26  0.0130000  0  7  4 14 18 19 22 25 29
    335094.00900  28608888.14200                     96164.69840  28608892.88840
   7506508.67200  24435546.86800                   5878842.49640  24435551.56740
   -970572.55800  26453365.15700                   -735693.34740  26453369.39940
   -582244.74400  28298576.03200                   -412206.60540  28298582.90340
    737368.70500  25154248.60200                    622881.41240  25154252.92740
  41167881.49700  28391456.02400                  32122892.66940  28391460.36040
  10023805.56700  24808466.89200                   4432591.37740  24808470.67740
 96  9 13  2 26 30.0130000  0  7  4 14 18 19 22 25 29
    389609.12800  28619261.17300                    138644.00040  28619267.18440
   7607778.61500  24454818.07100                   5957754.13140  24454822.88840
   -971097.67600  26453264.29800                   -736102.51140  26453268.56340
   -598871.35500  28295411.79000                   -425162.34240  28295417.70840
    799484.22500  25166068.57900                    671283.13640  25166072.88040
  41331032.06200  28422502.56300                  32250023.03140  28422505.57540
  10086900.23300  24820473.68800                   4481756.06340  24820477.34540
 96  9 13  2 27  0.0130000  0  7  4 14 18 19 22 25 29
    444636.09900  28629733.39900                    181522.17840  28629739.75140
   7709594.27500  24474192.86000                   6037091.00540  24474197.53640
   -971545.68900  26453179.42300                   -736451.57640  26453183.60640
   -615366.30700  28292273.37600                   -438015.45940  28292280.30640
    862209.86000  25178004.76700                    720160.27340  25178009.25540
  41494198.63000  28453551.81300                  32377165.80340  28453555.28240
  10150181.78900  24832515.77400                   4531066.37040  24832519.45440
 96  9 13  2 27 30.0130000  0  7  4 14 18 19 22 25 29
    500182.04800  28640302.84500                    224804.78140  28640307.53240
   7811971.96500  24493674.94600                   6116865.82440  24493679.52840
   -971913.93700  26453109.86000                   -736738.50040  26453114.46640
   -631718.19500  28289161.12600                   -450757.12840  28289166.73940
    925568.06600  25190061.55600                    769530.35840  25190065.71640
  41657387.38000  28484605.19600                  32504325.87540  28484608.48940
  10213668.22100  24844596.80600                   4580536.30740  24844600.59140
 96  9 13  2 28  0.0130000  0  7  4 14 18 19 22 25 29
    556230.92100  28650969.35200                    268479.21040  28650973.84140
   7914911.64600  24513263.79800                   6197078.56040  24513268.53240
   -972199.85500  26453055.59500                   -736961.26940  26453059.95440
   -647930.50500  28286075.75100                   -463390.03940  28286080.57940
    989550.39600  25202236.95400                    819386.69440  25202241.63040
  41820573.51500  28515659.94600                  32631483.94540  28515664.15340
  10277367.74500  24856718.46200                   4630172.32140  24856722.10640
 96  9 13  2 28 30.0130000  0  7  4 14 18 19 22 25 29
    612763.87500  28661726.17300                    312530.89140  28661732.36040
   8018414.79400  24532959.71200                   6277730.35540  24532964.42340
   -972410.10600  26453014.49300                   -737125.07440  26453018.72440
   -663997.04500  28283019.59500                   -475909.33340  28283026.55940
   1054141.66400  25214528.05600                    869717.57540  25214532.88440
  41983729.05400  28546706.30600                  32758618.15540  28546710.34940
  10341293.44100  24868883.12600                   4679984.55740  24868886.86440
 96  9 13  2 29  0.0140000  0  7  4 14 18 19 22 25 29
    669778.63700  28672576.74800                    356957.98340  28672581.98640
   8122483.73700  24552763.41200                   6358823.03340  24552768.17040
   -972528.09000  26452991.99000                   -737216.99240  26452996.51440
   -679894.66200  28279993.01400                   -488296.97640  28279999.14240
   1119330.42700  25226932.95900                    920514.02740  25226937.31840
  42146855.49200  28577747.56800                  32885729.67440  28577753.39240
  10405458.05400  24881093.07600                   4729982.96640  24881096.80340
 96  9 13  2 29 30.0140000  0  7  4 14 18 19 22 25 29
    727290.08800  28683520.45900                    401772.08740  28683525.42840
   8227105.64300  24572672.05300                   6440346.59440  24572676.92840
   -972542.41900  26452989.38900                   -737228.14340  26452994.40440
   -695623.66600  28277000.02100                   -500553.28740  28277007.54940
   1185105.80200  25239450.06000                    971767.58040  25239454.84240
  42309941.76200  28608781.99800                  33012809.88340  28608786.77940
  10469866.52400  24893349.71700                   4780171.39040  24893353.38540
 96  9 13  2 30  0.0140000  0  7  4 14 18 19 22 25 29
    785305.81200  28694560.36500                    446979.13440  28694567.72840
   8332273.50200  24592684.96700                   6522295.57040  24592689.73640
   -972443.32700  26453008.56800                   -737150.89040  26453013.10340
   -711170.05100  28274041.10700                   -512667.29040  28274046.69740
   1251479.43900  25252080.34200                   1023487.31340  25252084.87740
  42472984.43700  28639809.01400                  33139856.18040  28639813.84240
  10534533.68200  24905655.35700                   4830561.38740  24905659.01440
 96  9 13  2 30 30.0140000  0  7  4 14 18 19 22 25 29
    843816.77900  28705694.87300                    492572.13440  28705699.12740
   8437958.65300  24612795.97500                   6604647.63140  24612800.70940
   -972249.35600  26453045.20900                   -736999.72240  26453050.51740
   -726544.22000  28271115.67000                   -524647.04440  28271121.29540
   1318448.29400  25264823.89600                   1075670.85340  25264828.35040
  42635986.35900  28670827.05300                  33266870.68640  28670831.86940
  10599436.49200  24918005.85000                   4881135.01340  24918009.41240
 96  9 13  2 31  0.0140000  0  7  4 14 18 19 22 25 29
    902829.37100  28716924.13100                    538555.96740  28716928.42040
   8544159.33800  24633005.24800                   6687401.41340  24633010.10040
   -971958.41500  26453100.45900                   -736772.99040  26453105.18240
   -741758.46700  28268220.79500                   -536502.24240  28268226.63140
   1386027.94100  25277684.13100                   1128330.33440  25277688.80740
  42798965.88200  28701840.67000                  33393867.80840  28701845.33440
  10664564.64200  24930399.45100                   4931884.23040  24930403.01440
 96  9 13  2 31 30.0140000  0  7  4 14 18 19 22 25 29
    962342.10000  28728248.52900                    584929.56440  28728254.99840
   8650870.80200  24653312.26400                   6770553.20140  24653316.97540
   -971589.30100  26453170.59200                   -736485.34140  26453175.24440
   -756825.70200  28265353.76400                   -548242.85640  28265361.09240
   1454230.49600  25290662.56000                   1181475.20240  25290667.17840
  42961919.14200  28732851.03700                  33520844.34940  28732854.89240
  10729901.32600  24942832.64600                   4982795.94140  24942836.31440
 96  9 13  2 32  0.0140000  0  7  4 14 18 19 22 25 29
   1022336.51100  28739665.77900                    631678.42040  28739672.41240
   8758084.62500  24673714.20900                   6854096.42840  24673718.77940
   -971132.24400  26453257.94300                   -736129.15640  26453262.80740
   -771737.62900  28262515.82600                   -559862.43740  28262521.20540
   1523044.33100  25303757.35700                   1235096.39540  25303762.01040
  43124850.22700  28763853.89600                  33647803.66740  28763858.93540
  10795431.69800  24955302.86500                   5033858.58040  24955306.41640
 96  9 13  2 32 30.0140000  0  7  4 14 18 19 22 25 29
   1082798.18600  28751171.25600                    678791.42740  28751175.47540
   8865797.77500  24694211.07600                   6938028.75240  24694215.90440
   -970593.25300  26453359.92800                   -735709.14440  26453364.35740
   -786496.92400  28259706.56000                   -571363.15140  28259713.15840
   1592446.70500  25316964.41200                   1289176.17440  25316968.51440
  43287766.72300  28794856.37300                  33774751.59040  28794860.40440
  10861131.69900  24967804.92800                   5085053.39340  24967808.52540
 96  9 13  2 33  0.0140000  0  7  4 14 18 19 22 25 29
   1143726.58100  28762765.76400                    726268.09940  28762769.15040
   8974012.26200  24714803.81800                   7022351.72240  24714808.49440
   -969969.40000  26453479.11500                   -735223.00140  26453483.82640
   -801101.48100  28256928.06800                   -582743.24540  28256933.61140
   1662427.78900  25330281.14600                   1343706.90740  25330285.69340
  43450657.74300  28825853.58400                  33901679.70540  28825855.98640
  10926993.87100  24980337.95100                   5136374.57240  24980341.56040
 96  9 13  2 33 30.0140000  0  7  4 14 18 19 22 25 29
   1205134.09300  28774450.54500                    774118.09740  28774454.01440
   9082741.10000  24735494.20900                   7107075.49340  24735498.82640
   -969245.06600  26453616.87300                   -734658.55940  26453621.33840
   -815533.24800  28254181.57600                   -593988.69640  28254186.77940
   1732983.04000  25343707.46700                   1398685.04240  25343711.86140
  43613528.96100  28856846.44300                  34028592.36540  28856851.04940
  10993037.27600  24992905.67800                   5187836.97740  24992909.25240
 96  9 13  2 34  0.0140000  0  7  4 14 18 19 22 25 29
   1267021.37500  28786227.96700                    822341.93440  28786233.35740
   9191987.68000  24756283.27100                   7192202.69240  24756287.78340
   -968416.10100  26453775.31800                   -734012.58240  26453779.57240
   -829797.35300  28251466.85000                   -605103.50540  28251473.00240
   1804105.26800  25357241.45900                   1454104.96940  25357245.74840
  43776377.12700  28887835.80300                  34155487.04040  28887838.20540
  11059261.08600  25005507.90400                   5239439.96140  25005511.44340
 96  9 13  2 34 30.0140000  0  7  4 14 18 19 22 25 29
   1329405.50500  28798098.78700                    870952.94240  28798104.91640
   9301773.08700  24777174.31000                   7277749.75640  24777179.22140
   -967493.26700  26453950.67000                   -733293.47840  26453955.24040
   -843900.17600  28248782.96700                   -616092.67740  28248788.85040
   1875815.11300  25370887.42800                   1509982.79140  25370891.58840
  43939211.85500  28918822.64600                  34282371.27540  28918825.96340
  11125680.93600  25018146.99800                   5291195.69440  25018150.59640
 96  9 13  2 35  0.0140000  0  7  4 14 18 19 22 25 29
   1392326.86100  28810072.88100                    919982.58240  28810077.80340
   9412125.45200  24798174.26400                   7363738.61140  24798178.92840
   -966446.47200  26454150.12300                   -732477.75940  26454154.91640
   -857834.55400  28246131.27100                   -626950.53340  28246136.75640
   1948152.33100  25384652.54500                   1566349.47440  25384656.75240
  44102053.44600  28949810.31000                  34409260.85440  28949814.35340
  11192330.58400  25030829.85700                   5343130.49740  25030833.65440
 96  9 13  2 35 30.0140000  0  7  4 14 18 19 22 25 29
   1455749.97100  28822141.56000                    969403.16540  28822147.78340
   9523005.53900  24819273.85000                   7450138.66840  24819278.54940
   -965312.46200  26454364.95900                   -731594.10140  26454369.43540
   -871637.81600  28243504.88100                   -637706.29040  28243510.70540
   2021095.27200  25398533.27100                   1623188.14240  25398537.66640
  44264872.08100  28980792.91200                  34536132.50640  28980797.69340
  11259177.31800  25043550.45100                   5395218.86640  25043554.17840
 96  9 13  2 36  0.0140000  0  6  4 14 18 19 22 29
   1519673.82600  28834305.31800                   1019213.99740  28834309.92440
   9634393.31500  24840470.21700                   7536934.33740  24840474.82240
   -964105.90000  26454594.60000                   -730653.91140  26454598.91240
   -885317.39200  28240902.26400                   -648365.63440  28240907.68940
   2094663.43100  25412532.81800                   1680513.99840  25412537.09640
  11326221.76400  25056308.41200                   5447461.30640  25056312.01040
 96  9 13  2 36 30.0140000  0  6  4 14 18 19 22 29
   1584077.56500  28846560.76400                   1069398.71940  28846564.24440
   9746279.83100  24861761.58400                   7624118.63340  24861766.13140
   -962836.03400  26454836.73200                   -729664.38840  26454841.24440
   -898875.83900  28238321.61500                   -658930.59240  28238327.89640
   2168857.04400  25426651.24800                   1738327.22240  25426655.63140
  11393461.87800  25069104.01400                   5499856.20540  25069107.50640
 96  9 13  2 37  0.0140000  0  6  4 14 18 19 22 29
   1648947.29600  28858904.57600                   1119946.54340  28858910.98640
   9858645.81700  24883144.06800                   7711676.54240  24883148.81440
   -961498.30500  26455090.99000                   -728621.98040  26455095.42040
   -912297.23600  28235768.20100                   -669388.78140  28235773.32240
   2243669.20400  25440887.70100                   1796622.42140  25440891.80340
  11460895.96600  25081936.07600                   5552402.26340  25081939.66240
 96  9 13  2 37 30.0140000  0  6  4 14 18 19 22 29
   1714268.39500  28871335.62300                   1170846.08140  28871342.02140
   9971499.37900  24904619.35000                   7799614.37840  24904623.93240
   -960097.36600  26455357.27100                   -727530.31940  26455361.74840
   -925565.69400  28233243.16200                   -679727.76040  28233248.77540
   2319088.18300  25455239.37300                   1855390.47540  25455243.77940
  11528530.64600  25094806.52900                   5605104.61940  25094810.20940
 96  9 13  2 38  0.0140000  0  6  4 14 18 19 22 29
   1780040.46500  28883851.93500                   1222097.08040  28883855.15840
  10084871.31600  24926193.20100                   7887956.14940  24926197.86540
   -958621.11400  26455638.42000                   -726379.98540  26455642.86140
   -938676.91200  28230747.89600                   -689944.26240  28230753.85040
   2395099.12300  25469703.68500                   1914619.79640  25469708.35040
  11596383.58900  25107718.74000                   5657977.04440  25107722.30340
 96  9 13  2 38 30.0140000  0  6  4 14 18 19 22 29
   1846220.23400  28896445.45100                   1273665.76140  28896451.24040
  10198750.85100  24947863.90400                   7976693.44240  24947868.58040
   -957080.40200  26455931.27900                   -725179.41440  26455935.65040
   -951649.35200  28228278.17800                   -700052.58740  28228284.14240
   2471654.96400  25484271.94300                   1974273.71440  25484276.06840
  11664426.97900  25120667.02100                   5710997.87540  25120670.64240
 96  9 13  2 39  0.0140000  0  6  4 14 18 19 22 29
   1912838.01600  28909122.54500                   1325575.69940  28909129.24840
  10313140.54400  24969631.43500                   8065828.25940  24969636.42840
   -955456.68000  26456240.28700                   -723914.16040  26456245.10340
   -964473.51300  28225838.82600                   -710045.38940  28225844.85040
   2548761.64700  25498944.67000                   2034356.86240  25498948.85340
  11732683.18100  25133655.39600                   5764184.53740  25133659.26440
 96  9 13  2 39 30.0140000  0  6  4 14 18 19 22 29
   1979893.76100  28921882.48200                   1377826.94340  28921886.70140
  10428045.61500  24991497.13100                   8155364.67540  24991501.80740
   -953762.66200  26456563.38100                   -722594.11140  26456568.30340
   -977176.80300  28223421.77100                   -719944.00240  28223427.13940
   2626410.02400  25513720.59200                   2094862.10740  25513725.19740
  11801135.76100  25146681.57600                   5817524.22040  25146685.24440
 96  9 13  2 40  0.0150000  0  6  4 14 18 19 22 29
   2047389.85300  28934725.69000                   1430421.25240  28934729.53440
  10543443.89400  25013456.58900                   8245285.40840  25013461.32340
   -952006.21000  26456897.22200                   -721225.42940  26456901.87440
   -989778.10600  28221023.49500                   -729763.14640  28221028.73340
   2704609.15300  25528601.76100                   2155796.51240  25528606.23740
  11869776.58100  25159743.57300                   5871010.57840  25159747.18340
 96  9 13  2 40 30.0150000  0  6  4 14 18 19 22 29
   2115335.01100  28947655.25300                   1483365.59040  28947664.10440
  10659294.56300  25035502.39300                   8335558.64940  25035507.30440
   -950190.30300  26457242.61200                   -719810.41440  26457247.17140
  -1002269.53900  28218646.01100                   -739496.66140  28218651.88240
   2783366.95700  25543588.36200                   2217166.24540  25543592.76840
  11938587.24200  25172837.85400                   5924629.28240  25172841.58140
 96  9 13  2 41  0.0150000  0  6  4 14 18 19 22 29
   2183749.44100  28960674.17500                   1536675.47540  28960678.79240
  10775593.85600  25057633.39300                   8426181.47040  25057638.22240
   -948322.08100  26457598.26100                   -718354.64140  26457602.94840
  -1014663.40400  28216287.25300                   -749154.19140  28216292.44440
   2862687.46900  25558682.19000                   2278974.44940  25558687.01840
  12007552.36200  25185961.32300                   5978368.34540  25185964.93340
 96  9 13  2 41 30.0150000  0  6  4 14 18 19 22 29
   2252630.24100  28973781.92500                   1590348.81740  28973790.39040
  10892360.05800  25079853.02600                   8517168.12040  25079858.05440
   -946397.08500  26457964.12800                   -716854.62940  26457968.76840
  -1026958.13900  28213948.11200                   -758734.45140  28213953.78440
   2942582.96800  25573886.32300                   2341230.70040  25573890.70640
  12076665.74600  25199113.03400                   6032222.94140  25199116.55040
 96  9 13  2 42  0.0150000  0  6  4 14 18 19 22 29
   2321991.94300  28986982.06500
  11009595.38700  25102162.37800                   8608520.32140  25102167.24140
   -944386.32900  26458347.26100                   -715287.78440  26458351.40940
  -1039121.79300  28211634.23700                   -768212.55740  28211640.13240
   3023070.26800  25589202.37000                   2403948.09440  25589206.84740
  12145957.99400  25212299.06500                   6086216.90840  25212302.75740
 96  9 13  2 42 30.0150000  0  6  4 14 18 19 22 29
   2391819.75900  29000269.05000
  11127299.17300  25124560.56500                   8700237.55340  25124565.28840
   -942302.09400  26458743.92500                   -713663.68940  26458748.29640
  -1051161.29700  28209342.42500                   -777593.93040  28209347.10040
   3104120.87100  25604625.80800                   2467104.42440  25604630.40140
  12215414.45800  25225515.99500                   6140338.83840  25225519.81540
 96  9 13  2 43  0.0150000  0  6  4 14 18 19 22 29
   2462086.29900  29013640.34700                     14629.32350  29013644.57740
  11245470.24700  25147047.73700                   8792318.90740  25147052.60040
   -940169.33400  26459149.55800                   -712001.78040  26459154.24540
  -1063102.04700  28207069.55800                   -786898.34240  28207075.76840
   3185708.90400  25620151.80800                   2530679.53240  25620156.17940
  12285027.74900  25238763.12800                   6194582.97340  25238766.89040
 96  9 13  2 43 30.0150000  0  6  4 14 18 19 22 29
   2532777.41100  29027092.15100                     69713.24640  29027098.11640
  11364102.69800  25169622.84700                   8884759.77340  25169627.67540
   -937992.99700  26459563.57300                   -710305.89340  26459568.26140
  -1074931.18700  28204818.22900                   -796115.79440  28204823.36240
   3267826.50600  25635777.80000                   2594667.29440  25635782.27640
  12354819.56500  25252044.00300                   6248966.21440  25252047.65940
 96  9 13  2 44  0.0150000  0  6  4 14 18 19 22 29
   2603903.12100  29040626.60400                    125135.89540  29040631.45640
  11483202.20100  25192286.72200                   8977564.57540  25192291.53840
   -935762.53600  26459987.83100                   -708567.84440  26459992.82340
  -1086625.86100  28202593.30000                   -805228.49840  28202599.39340
   3350476.15100  25651505.80800                   2659069.63440  25651510.39040
  12424808.33100  25265362.44800                   6303502.92340  25265365.84740
 96  9 13  2 44 30.0150000  0  6  4 14 18 19 22 29
   2675454.45700  29054244.01800                    180890.15640  29054250.13640
  11602757.60000  25215037.44800                   9070724.63140  25215042.28840
   -933496.99900  26460419.10400                   -706802.46940  26460423.37040
  -1098207.68900  28200388.76800                   -814253.19640  28200394.76840
   3433642.66300  25667331.59700                   2723874.72940  25667336.03840
  12494975.12700  25278714.80000                   6358178.35840  25278718.33940
 96  9 13  2 45  0.0150000  0  6  4 14 18 19 22 29
   2747404.76800  29067934.88600                    236955.31140  29067940.51140
  11722744.81300  25237870.14300                   9164221.16440  25237875.17140
   -931204.44900  26460855.48700                   -705016.04140  26460859.80040
  -1109679.07700  28198206.58900                   -823191.91940  28198211.56940
   3517317.57900  25683254.48700                   2789075.97840  25683259.15140
  12565311.58300  25292099.46400                   6412985.99540  25292102.95640
 96  9 13  2 45 30.0150000  0  6  4 14 18 19 22 29
   2819748.19500  29081701.86200                    293326.82440  29081707.45240
  11843163.53300  25260785.01800                   9258053.93040  25260789.88240
   -928869.59400  26461299.57300                   -703196.64140  26461303.87440
  -1121041.15100  28196043.80000                   -832045.38640  28196050.01140
   3601507.98600  25699275.49500                   2854678.91340  25699280.05440
  12635817.15900  25305516.20600                   6467925.41440  25305519.82740
 96  9 13  2 46  0.0150000  0  6  4 14 18 19 22 29
   2892492.76500  29095545.15900                    350010.88040  29095549.71840
  11964033.45800  25283786.03400                   9352238.28040  25283790.72240
   -926473.31000  26461755.57300                   -701329.38840  26461759.88640
  -1132289.37300  28193903.40900                   -840810.16040  28193910.45640
   3686243.28600  25715399.75300                   2920706.43640  25715404.31140
  12706495.22100  25318965.82300                   6522999.23540  25318969.42140
 96  9 13  2 46 30.0150000  0  6  4 14 18 19 22 29
   2965611.08500  29109458.08900                    406986.21440  29109463.57340
  12085329.34600  25306867.91700                   9446754.55740  25306872.56940
   -924026.84300  26462220.96400                   -699423.00640  26462225.58140
  -1143441.50800  28191780.55000                   -849500.10840  28191785.89340
   3771505.15200  25731624.50300                   2987144.27240  25731629.41340
  12777322.16000  25332443.48700                   6578189.06640  25332447.15540
 96  9 13  2 47  0.0150000  0  6  4 14 18 19 22 29
   3039086.49400  29123440.15100                    464239.75840  29123444.99140
  12207056.85700  25330031.72900                   9541607.16040  25330036.66340
   -921528.09500  26462696.58900                   -697475.90740  26462701.08940
  -1154493.10700  28189677.83100                   -858111.64440  28189683.78440
   3857296.79600  25747950.51800                   3053994.92240  25747955.07740
  12848302.54200  25345950.75300                   6633498.46040  25345954.45640
 96  9 13  2 47 30.0150000  0  6  4 14 18 19 22 29
   3112945.06900  29137495.59700                    521791.85840  29137501.22240
  12329237.45100  25353281.81500                   9636812.81540  25353286.46840
   -918957.43500  26463186.29200                   -695472.77040  26463190.49940
  -1165438.41900  28187595.77600                   -866640.41240  28187601.39040
   3943647.20900  25764382.45600                   3121280.97440  25764386.62840
  12919446.64600  25359488.91700                   6688935.43440  25359492.56140
 96  9 13  2 48  0.0150000  0  6  4 14 18 19 22 29
   3187178.26100  29151621.59700                    579635.92940  29151626.92940
  12451851.27100  25376614.49500                   9732356.04640  25376619.26540
   -916331.78600  26463685.88600                   -693426.78640  26463690.10440
  -1176280.78800  28185532.03400                   -875088.95240  28185537.06140
   4030530.91100  25780915.80800                   3188982.57740  25780920.23740
  12990738.01400  25373055.23700                   6744487.16440  25373059.01140
 96  9 13  2 48 30.0150000  0  6  4 14 18 19 22 29
   3261809.90200  29165823.07300                    637790.41640  29165828.85040
  12574901.22600  25400030.02600                   9828239.12640  25400034.90140
   -913634.58400  26464198.46400                   -691325.04740  26464202.88240
  -1187008.34900  28183490.79200                   -883448.02640  28183496.39340
   4117945.89900  25797550.25300                   3257098.16840  25797554.65940
  13062184.48800  25386650.87800                   6800159.74540  25386654.72240
 96  9 13  2 49  0.0150000  0  6  4 14 18 19 22 29
   3336846.91600  29180102.04200                    696260.80740  29180109.04240
  12698385.86300  25423528.34700                   9924460.91840  25423533.24540
   -910869.01100  26464725.10400                   -689170.02040  26464729.62840
  -1197635.71900  28181468.43300                   -891729.02340  28181474.01140
   4205895.49600  25814286.75300                   3325630.34240  25814290.73740
  13133791.14000  25400277.47200                   6855957.14740  25400281.08140
 96  9 13  2 49 30.0150000  0  6  4 14 18 19 22 29
   3412303.28400  29194460.98700                    755057.93640  29194467.39740
  12822299.23800  25447108.48700                  10021016.78540  25447113.39740
   -908036.76100  26465264.08100                   -686963.03840  26465268.49940
  -1208164.18200  28179464.90100                   -899932.95440  28179470.01140
   4294372.62200  25831123.20600                   3394573.57340  25831127.41340
  13205550.62800  25413932.87800                   6911873.63940  25413936.33540
 96  9 13  2 50  0.0150000  0  6  4 14 18 19 22 29
   3488173.85800  29208899.73700                    814177.90240  29208905.52640
  12946616.28900  25470764.94000                  10117887.21140  25470769.79240
   -905148.85500  26465814.07300                   -684712.69440  26465818.09340
  -1218610.74300  28177476.60400                   -908073.07340  28177482.24140
   4383347.44300  25848054.73700                   3463904.62540  25848058.79240
  13277457.84800  25427616.03400                   6967905.24640  25427619.66740
 96  9 13  2 50 30.0150000  0  6  4 14 18 19 22 29
   3564466.58600  29223417.05800                    873626.71140  29223421.32340
  13071323.31800  25494496.06500                  10215061.51740  25494500.84740
   -902207.50600  26466373.12800                   -682420.72140  26466377.55840
  -1228980.11600  28175503.52600                   -916153.03540  28175509.18640
   4472836.19200  25865083.21400                   3533636.12740  25865087.69040
  13349521.56200  25441329.39300                   7024058.80140  25441333.21440
 96  9 13  2 51  0.0160000  0  6  4 14 18 19 22 29
   3641189.87200  29238017.30500                    933411.11140  29238022.90640
  13196440.34100  25518305.02300                  10312555.29340  25518309.96940
   -899206.58300  26466944.17200                   -680082.31840  26466948.69540
  -1239254.51900  28173547.93000                   -924159.00840  28173553.47340
   4562853.20300  25882212.97600                   3603779.26940  25882217.40640
  13421762.43900  25455076.42200                   7080350.40340  25455080.01940
 96  9 13  2 51 30.0160000  0  6  4 14 18 19 22 29
   3718337.04900  29252697.31200                    993525.77740  29252703.31240
  13321970.06300  25542192.85900                  10410370.65540  25542197.72340
   -896151.97900  26467525.45300                   -677702.09440  26467529.74240
  -1249414.23500  28171614.36700                   -932075.60140  28171619.78140
   4653377.38000  25899439.47600                   3674317.60840  25899443.77740
  13494173.81000  25468856.10900                   7136774.85440  25468859.80140
 96  9 13  2 52  0.0160000  0  6  4 14 18 19 22 29
   3795911.32000  29267459.60100                   1053973.26740  29267466.19940
  13447923.82000  25566161.00000                  10508516.44140  25566165.64140
   -893042.08800  26468116.99200                   -675278.77940  26468121.49240
  -1259443.93500  28169706.65600                   -939890.90540  28169712.66840
   4744416.80900  25916763.48400                   3745257.43740  25916768.19540
  13566772.54900  25482671.10900                   7193345.30440  25482674.67240
 96  9 13  2 52 30.0160000  0  6  4 14 18 19 22 29
   3873889.68300  29282298.46100                   1114735.60240  29282304.71940
  13574310.00100  25590211.18000                  10606999.17540  25590215.97340
   -889883.80300  26468718.09400                   -672817.74340  26468722.26640
  -1269333.16300  28167824.28900                   -947596.73440  28167829.68040
   4835972.37200  25934186.27300                   3816599.44340  25934190.80840
  13639556.75300  25496521.46100                   7250060.28440  25496525.07040
 96  9 13  2 53  0.0160000  0  6  4 14 18 19 22 29
   3952246.57100  29297208.58600                   1175792.88740  29297213.69540
  13701130.04800  25614344.57800                  10705819.97940  25614349.32440
   -886699.35800  26469324.27300                   -670336.33640  26469328.77340
  -1279096.91500  28165966.06200                   -955204.78740  28165971.85140
   4928021.61900  25951702.44500                   3888326.14840  25951706.53540
  13712510.45700  25510403.98400                   7306907.32740  25510407.50040
 96  9 13  2 53 30.0160000  0  6  4 14 18 19 22 29
   4031018.42700  29312198.22600                   1237173.52040  29312204.49640
  13828407.16500  25638564.23400                  10804996.95040  25638568.99240
   -883452.57400  26469942.08600                   -667806.35440  26469946.83240
  -1288704.54400  28164138.25000                   -962691.19240  28164143.68740
   5020615.31800  25969322.25000                   3960477.09840  25969326.69140
  13785676.87900  25524326.98400                   7363920.13840  25524330.69940
 96  9 13  2 54  0.0160000  0  6  4 14 18 19 22 29
   4110198.23300  29327266.56200                   1298872.06040  29327270.75840
  13956117.53700  25662867.00000                  10904511.52540  25662871.82840
   -880137.31900  26470572.52300                   -665223.01140  26470576.96540
  -1298184.78100  28162334.03900                   -970078.32040  28162339.96940
   5113767.45100  25987048.89800                   4033063.19140  25987053.10540
  13859058.92300  25538291.36700                   7421100.95440  25538294.90640
 96  9 13  2 54 30.0160000  0  6  4 14 18 19 22 29
   4189787.71200  29342412.08600                   1360889.80540  29342416.68040
  14084261.05700  25687251.92200                  11004363.61640  25687256.66840
   -876734.43000  26471220.32000                   -662571.39740  26471225.00840
  -1307542.84300  28160553.01600                   -977370.26540  28160559.23840
   5207488.46300  26004883.10900                   4106092.56640  26004887.37540
  13932664.21800  25552297.79700                   7478455.74040  25552301.23040
 96  9 13  2 55  0.0160000  0  6  4 14 18 19 22 29
   4269806.71300  29357639.36700                   1423242.27540  29357641.95740
  14212837.33300  25711719.15600                  11104552.91240  25711723.77340
   -873230.17700  26471887.25800                   -659840.77840  26471891.99240
  -1316782.38400  28158795.03900                   -984569.83140  28158801.29740
   5301790.72200  26022828.29700                   4179574.85840  26022832.43340
  14006497.04900  25566347.60900                   7535987.82640  25566351.13740
 96  9 13  2 55 30.0160000  0  6  4 14 18 19 22 29
   4350252.43200  29372948.02300                   1485927.24140  29372954.24640
  14341840.85800  25736267.44500                  11205075.13140  25736272.19140
   -869612.30300  26472575.32000                   -657021.64140  26472580.00840
  -1325901.92300  28157059.25800                   -991675.90240  28157065.26940
   5396663.32200  26040881.78100                   4253501.57640  26040886.23440
  14080551.19300  25580439.71900                   7593692.36240  25580443.45740
 96  9 13  2 56  0.0160000  0  6  4 14 18 19 22 29
   4431116.01600  29388334.90600                   1548937.79640  29388337.91840
  14471279.18900  25760898.72600                  11305936.17440  25760903.71940
   -865869.43600  26473287.77300                   -654105.09040  26473292.47340
  -1334900.30400  28155346.61700                   -998687.55340  28155352.28940
   5492081.53500  26059039.47600                   4327853.44940  26059043.95340
  14154816.76100  25594571.94500                   7651561.64540  25594575.43740
 96  9 13  2 56 30.0160000  0  6  4 14 18 19 22 29
   4512398.01300  29403801.57800                   1612274.39940  29403807.06240
  14601163.15700  25785614.94500                  11407144.45640  25785619.87940
   -862002.90200  26474023.53100                   -651092.18440  26474027.86740
  -1343753.27200  28153662.21100                  -1005585.89240  28153667.80140
   5588041.32700  26077299.91400                   4402627.32540  26077304.22640
  14229285.96400  25608743.10100                   7709589.60440  25608746.66440
 96  9 13  2 57  0.0160000  0  6  4 14 18 19 22 29
   4594090.68500  29419348.03900                   1675931.01540  29419351.59040
  14731492.23600  25810415.62500                  11508699.58140  25810420.51240
   -858029.03400  26474779.87500                   -647995.64840  26474784.17640
  -1352463.39100  28152004.39800                  -1012372.94540  28152010.11740
   5684530.93300  26095661.09400                   4477814.04040  26095665.55840
  14303943.43700  25622949.46100                   7767764.27440  25622953.11740
 96  9 13  2 57 30.0160000  0  6  4 14 18 19 22 29
   4676167.60400  29434967.39800                   1739887.06440  29434972.29740
  14862260.16100  25835299.94500                  11610596.66140  25835304.94940
   -853957.66700  26475554.93700                   -644823.13040  26475559.34440
  -1361031.32800  28150374.43000                  -1019049.19740  28150380.30140
   5781514.60200  26114116.49200                   4553385.74440  26114120.89840
  14378778.52200  25637190.37500                   7826077.34140  25637194.13740
 96  9 13  2 58  0.0160000  0  6  4 14 18 19 22 29
   4758629.30000  29450659.47600                   1804142.86740  29450664.38740
  14993478.80800  25860269.98400                  11712844.95540  25860275.05840
   -849781.04600  26476349.62500                   -641568.59440  26476353.76240
  -1369449.70000  28148771.62500                  -1025608.90540  28148776.88740
   5879008.23000  26132669.03900                   4629354.81640  26132673.29340
  14453803.37200  25651467.21900                   7884538.27040  25651470.73440
 96  9 13  2 58 30.0160000  0  6  4 14 18 19 22 29
   4841470.27700  29466423.41400                   1868694.24540  29466429.21540
  15125137.87500  25885324.06200                  11815436.42740  25885329.16040
   -845513.94100  26477161.48400                   -638243.55640  26477165.77340
  -1377725.39300  28147197.58600                  -1032057.42840  28147203.43340
   5977016.55400  26151318.97600                   4705724.95340  26151323.39440
  14529014.82000  25665779.48400                   7943144.59840  25665783.24640
 96  9 13  2 59  0.0160000  0  6  4 14 18 19 22 29
   4924723.91800  29482266.31200                   1933567.19040  29482271.53940
  15257260.44300  25910466.32000                  11918389.07840  25910471.19540
   -841118.54100  26477997.78100                   -634818.54640  26478002.12940
  -1385831.80000  28145655.12500                  -1038374.03840  28145660.75040
   6075572.78200  26170073.81200                   4782522.02240  26170078.20740
  14604458.47800  25680135.94500                   8001931.87340  25680139.55540
 96  9 13  2 59 30.0160000  0  6  4 14 18 19 22 29
   5008410.28400  29498191.15600                   1998777.30940  29498198.42640
  15389848.09000  25935696.95300                  12021704.12140  25935701.69940
   -836567.40900  26478863.83600                   -631272.19040  26478868.41840
  -1393753.03900  28144147.53900                  -1044546.35840  28144152.84840
   6174692.37600  26188935.69500                   4859758.08140  26188940.03140
  14680155.03400  25694540.54700                   8060916.21240  25694544.26240
 96  9 13  3  0  0.0160000  0  6  4 14 18 19 22 29
   5092544.73500  29514201.14100                   2064336.63140  29514206.41440
  15522876.87600  25961011.29700                  12125362.90740  25961016.20740
   -831864.26000  26479758.80500                   -627607.38240  26479763.09440
  -1401495.75500  28142674.01600                  -1050579.59840  28142679.51240
   6274402.88100  26207909.79700                   4937454.59140  26207914.10940
  14756099.27100  25708992.32000                   8120093.54140  25708996.05840
 96  9 13  3  0 30.0160000  0  6  4 14 18 19 22 29
   5177125.22000  29530295.85100                   2130243.45840  29530301.05540
  15656323.07900  25986405.50800                  12229346.95940  25986410.48840
   -827020.17300  26480680.47600                   -623832.75040  26480684.85940
  -1409063.55900  28141233.72600                  -1056476.51040  28141239.25840
   6374697.57700  26226995.53900                   5015606.31840  26226999.84040
  14832276.24100  25723488.07800                   8179452.22540  25723491.73440
 96  9 13  3  1  0.0160000  0  6  4 14 18 19 22 29
   5262152.98900  29546476.82000                   2196498.85640  29546482.66840
  15790191.92900  26011879.53900                  12333660.33740  26011884.61340
   -822029.76100  26481630.43000                   -619944.09140  26481634.85940
  -1416456.26300  28139827.05500                  -1062237.00240  28139832.71540
   6475567.15000  26246190.09400                   5094205.99240  26246194.47640
  14908691.52300  25738029.51600                   8238996.61340  25738032.92640
 96  9 13  3  1 30.0160000  0  6  4 14 18 19 22 29
   5347616.88400  29562738.94500                   2263094.07740  29562743.56240
  15924477.23200  26037433.43000                  12438298.23340  26037438.63340
   -816904.62400  26482605.65600                   -615950.46040  26482610.06240
  -1423692.45400  28138449.90600                  -1067875.54040  28138455.18040
   6576991.20300  26265490.77300                   5173237.73140  26265495.14440
  14985322.39900  25752611.97600                   8298708.99140  25752615.26940
 96  9 13  3  2  0.0160000  0  6  4 14 18 19 22 29
   5433506.71100  29579083.24200                   2330021.21440  29579087.28540
  16059178.67200  26063066.23400                  12543260.37840  26063071.05140
   -811661.46200  26483602.83600                   -611864.85940  26483607.28940
  -1430779.86300  28137101.29700                  -1073398.12540  28137106.61740
   6678969.63200  26284896.44500                   5252701.45840  26284900.51240
  15062168.51000  25767235.23400                   8358589.08640  25767238.66840
 96  9 13  3  2 30.0160000  0  6  4 14 18 19 22 29
   5519806.80400  29595506.01600                   2397268.02040  29595511.35940
  16194311.09500  26088780.85900                  12648558.36940  26088785.80540
   -806302.83000  26484622.92200                   -607689.28240  26484627.25840
  -1437724.72300  28135779.43700                  -1078809.64840  28135785.15640
   6781481.64400  26304404.07000                   5332580.95640  26304408.21940
  15139243.62500  25781902.01600                   8418647.62940  25781905.50840
 96  9 13  3  3  0.0170000  0  6  4 14 18 19 22 29
   5606530.86600  29612009.16100                   2464845.16040  29612015.52440
  16329880.12100  26114578.95800                  12754196.56140  26114584.06740
   -800821.58200  26485665.87200                   -603418.15240  26485670.11440
  -1444522.14300  28134485.91900                  -1084106.28240  28134490.51340
   6884526.64100  26324012.25500                   5412875.77340  26324016.59140
  15216567.74500  25796616.42700                   8478900.19940  25796619.76640
 96  9 13  3  3 30.0170000  0  6  4 14 18 19 22 29
   5693680.85400  29628593.93400                   2532754.27840  29628600.20440
  16465884.93400  26140459.99700                  12860174.33140  26140464.81340
   -795206.31400  26486734.70000                   -599042.60540  26486738.91940
  -1451143.53000  28133225.84100                  -1089265.75040  28133231.22040
   6988116.03900  26343724.85600                   5493594.79240  26343729.04040
  15294148.27800  25811379.46600                   8539352.56540  25811383.05240
 96  9 13  3  4  0.0170000  0  6  4 14 18 19 22 29
   5781243.08000  29645255.76300                   2600984.54540  29645261.58740
  16602322.13900  26166422.97400                  12966489.03040  26166427.97740
   -789463.47400  26487827.28600                   -594567.63940  26487831.47040
  -1457575.43700  28132001.88000                  -1094277.56940  28132007.16540
   7092249.70100  26363541.40300                   5574737.91340  26363545.92740
  15371985.16300  25826191.42700                   8600004.68640  25826194.82540
 96  9 13  3  4 30.0170000  0  6  4 14 18 19 22 29
   5869205.50200  29661993.70000                   2669526.68040  29661997.79040
  16739188.82300  26192467.73900                  13073138.38940  26192472.77840
   -783591.40700  26488944.70800                   -589991.98540  26488948.77440
  -1463812.37000  28130815.26300                  -1099137.46140  28130820.79440
   7196909.24900  26383457.57500                   5656290.81640  26383461.77040
  15450067.34300  25841050.02800                   8660847.94740  25841053.43840
 96  9 13  3  5  0.0170000  0  6  4 14 18 19 22 29
   5957581.90400  29678811.78600                   2738391.40940  29678816.89540
  16876497.67600  26218596.93400                  13180132.28940  26218601.91540
   -777559.12800  26490092.80900                   -585291.48540  26490096.92340
  -1469832.08000  28129669.84900                  -1103828.09640  28129674.74740
   7302120.82100  26403478.44200                   5738273.87140  26403482.86040
  15528396.43900  25855955.63800                   8721883.60640  25855959.09540
 96  9 13  3  5 30.0170000  0  6  4 14 18 19 22 29
   6046366.45700  29695706.38800                   2807574.14740  29695712.16540
  17014261.23300  26244812.52800                  13287480.51040  26244817.45040
   -771363.39400  26491271.62200                   -580463.62840  26491275.74740
  -1475641.02900  28128563.88000                  -1108354.48440  28128568.97740
   7407885.35200  26423604.55200                   5820687.79740  26423608.92340
  15606958.39200  25870905.38800                   8783100.71840  25870909.02040
 96  9 13  3  6  0.0170000  0  6  4 14 18 19 22 29
   6135545.41900  29712676.95800                   2877064.20940  29712679.14940
  17152449.14600  26271108.58300                  13395159.40540  26271113.63440
   -765015.81900  26492479.52000                   -575517.43840  26492483.51640
  -1481283.65600  28127490.56700                  -1112751.28040  28127495.88840
   7514184.26700  26443832.88000                   5903518.13040  26443836.88840
  15685723.21300  25885893.59100                   8844475.91140  25885897.22440
 96  9 13  3  6 30.0170000  0  6  4 14 18 19 22 29
   6225146.69600  29729728.54400                   2946883.42340  29729734.87240
  17291081.89500  26297489.91100                  13503184.91540  26297494.75140
   -758487.09800  26493721.63800                   -570430.11240  26493725.61040
  -1486763.57200  28126447.42700                  -1117021.29540  28126452.84140
   7621027.46200  26464164.02000                   5986772.57840  26464168.21640
  15764724.40400  25900926.86400                   8906035.28440  25900930.79040
 96  9 13  3  7  0.0170000  0  6  4 14 18 19 22 29
   6315167.85700  29746859.25500                   3017029.74640  29746863.29840
  17430137.14100  26323950.75500                  13611539.64640  26323955.84140
   -751782.79000  26494996.96600                   -565205.95340  26495001.12640
  -1492111.90500  28125429.86400                  -1121188.74940  28125435.51340
   7728399.77900  26484596.23900                   6070439.33040  26484600.43440
  15843956.44000  25916004.35600                   8967774.53840  25916008.16540
 96  9 13  3  7 30.0170000  0  6  4 14 18 19 22 29
   6405607.20600  29764068.09900                   3087501.91940  29764073.09140
  17569611.20800  26350491.79400                  13720220.73340  26350497.03240
   -744914.80100  26496304.56700                   -559854.25540  26496308.79840
  -1497331.37200  28124436.47400                  -1125255.81540  28124441.84140
   7836287.43500  26505126.78600                   6154507.64440  26505130.75940
  15923427.93800  25931127.41100                   9029700.38240  25931131.16140
 96  9 13  3  8  0.0170000  0  6  4 14 18 19 22 29
   6496458.60700  29781357.23900                   3158295.17840  29781362.85240
  17709502.49500  26377112.47400                  13829226.93040  26377117.52440
   -737872.12800  26497644.06700                   -554366.43640  26497648.46240
  -1502411.39800  28123469.67700                  -1129214.23140  28123475.24340
   7944704.44600  26525757.89500                   6238988.43540  26525761.73940
  16003169.44300  25946301.90300                   9091836.62040  25946305.46640
 96  9 13  3  8 30.0170000  0  6  4 14 18 19 22 29
   6587721.64200  29798723.70000                   3229409.23740  29798729.40740
  17849822.30300  26403814.42700                  13938567.03440  26403819.33740
   -730655.76200  26499017.70000                   -548743.28040  26499021.93140
  -1507327.13800  28122533.70000                  -1133044.60340  28122539.68840
   8053660.21400  26546491.48900                   6323889.04640  26546495.74340
  16083209.38400  25961532.97400                   9154205.41040  25961536.45440
 96  9 13  3  9  0.0170000  0  6  4 14 18 19 22 29
   6679373.81500  29816163.88000                   3300826.49840  29816169.13040
  17990557.74200  26430595.29400                  14048231.00140  26430600.39140
   -723285.41400  26500420.24700                   -543000.13540  26500424.73540
  -1512073.39100  28121631.08300                  -1136742.91640  28121636.48540
   8163157.05900  26567327.70000                   6409211.27240  26567331.80240
  16163526.02700  25976816.53600                   9216789.81140  25976819.93440
 96  9 13  3  9 30.0170000  0  6  4 14 18 19 22 29
   6771404.09000  29833677.34900                   3372538.39940  29833681.36840
  18131709.49800  26457455.74700                  14158219.38040  26457460.64540
   -715777.44100  26501849.13000                   -537149.75240  26501853.44240
  -1516636.17100  28120762.77800                  -1140298.26440  28120768.05240
   8273206.60100  26588269.66900                   6494964.17540  26588273.79440
  16244118.64500  25992152.73100                   9279589.25940  25992156.28240
 96  9 13  3 10  0.0170000  0  6  4 14 18 19 22 29
   6863820.90800  29851263.32500                   3444551.48240  29851266.67740
  18273268.06600  26484393.30900                  14268524.75040  26484398.24340
   -708122.80600  26503305.55200                   -531185.08940  26503309.77040
  -1521016.51900  28119928.82500                  -1143711.45440  28119934.87240
   8383806.18700  26609315.89500                   6581145.67640  26609320.24340
  16324998.78200  26007543.83300                   9342612.74540  26007547.38440
 96  9 13  3 10 30.0170000  0  6  4 14 18 19 22 29
   6956630.82200  29868924.88800                   3516870.86940  29868928.69640
  18415232.87200  26511408.29400                  14379146.66740  26511413.22740
   -700329.41100  26504788.73100                   -525112.29740  26504792.86840
  -1525214.75300  28119129.91900                  -1146982.74140  28119135.43840
   8494935.52200  26630463.22400                   6667739.97640  26630467.66540
  16406149.62300  26022986.18400                   9405847.17440  26022989.61840
 96  9 13  3 11  0.0170000  0  6  4 14 18 19 22 29
   7049830.77500  29886660.24700                   3589494.17140  29886667.39940
  18557598.10400  26538499.46600                  14490080.60640  26538504.93840
   -692399.33900  26506297.73900                   -518933.00540  26506301.98140
  -1529248.25300  28118362.23100                  -1150125.66840  28118368.11440
   8606578.40100  26651708.35600                   6754734.43340  26651712.64540
  16487556.45100  26038477.28600                   9469281.06840  26038480.81340
 96  9 13  3 11 30.0170000  0  6  4 14 18 19 22 29
   7143460.76100  29904477.66900                   3662452.62740  29904483.80940
  18700380.54900  26565670.10600                  14601339.64840  26565675.32140
   -684296.18300  26507839.95800                   -512618.84340  26507843.97740
  -1533097.67500  28117629.52800                  -1153125.17140  28117635.23540
   8718754.19600  26673054.13000                   6842144.15140  26673058.47740
  16569250.61100  26054023.19200                   9532938.86540  26054026.93140
 96  9 13  3 12  0.0170000  0  6  4 14 18 19 22 29
   7237513.21000  29922375.00500                   3735740.23840  29922379.59940
  18843575.08600  26592919.35600                  14712919.79040  26592924.46640
   -676003.34500  26509417.80900                   -506156.87940  26509421.94640
  -1536770.00700  28116930.73900                  -1155986.66640  28116936.21240
   8831444.06900  26694498.64500                   6929954.45240  26694503.09940
  16651211.25900  26069619.86400                   9596804.30640  26069623.50940
 96  9 13  3 12 30.0170000  0  6  4 14 18 19 22 29
   7331968.09200  29940348.57500                   3809341.43040  29940352.26640
  18987183.20600  26620247.06700                  14824822.21540  26620251.94240
   -667527.70100  26511030.61400                   -499552.46240  26511034.86840
  -1540273.26000  28116264.75500                  -1158716.41840  28116270.30940
   8944649.46900  26716040.73100                   7018166.45840  26716045.17340
  16733416.36300  26085262.80900                   9660860.23440  26085266.26640
 96  9 13  3 13  0.0170000  0  6  4 14 18 19 22 29
   7426825.70800  29958399.87200                   3883256.43940  29958405.23940
  19131197.78800  26647651.86400                  14937041.36340  26647656.99740
   -658846.27800  26512682.64500                   -492787.70340  26512686.73540
  -1543605.85600  28115630.06700                  -1161313.19540  28115635.25940
   9058383.65200  26737683.70000                   7106790.50640  26737687.98940
  16815870.54900  26100953.48100                   9725110.24940  26100956.91540
 96  9 13  3 13 30.0170000  0  6  4 14 18 19 22 29
   7522074.04600  29976524.99700                   3957475.91440  29976530.99740
  19275611.52800  26675132.97400                  15049571.55440  26675137.82540
   -649949.09800  26514375.30200                   -485854.81640  26514379.46240
  -1546746.36200  28115032.34900                  -1163760.27240  28115037.92740
   9172652.35800  26759428.01300                   7195831.06940  26759432.31340
  16898574.76700  26116691.59100                   9789555.10040  26116695.24740
 96  9 13  3 14  0.0170000  0  6  4 14 18 19 22 29
   7617690.71300  29994720.60600                   4031982.37240  29994725.41140
  19420426.69900  26702690.41100                  15162414.53740  26702695.36840
   -640849.75000  26516107.23900                   -478764.40140  26516111.43440
  -1549693.21100  28114471.51300                  -1166056.45440  28114476.65740
   9287449.80300  26781273.44200                   7285283.63740  26781278.37640
  16981526.18100  26132476.85600                   9854192.56840  26132480.40740
 96  9 13  3 14 30.0180000  0  6  4 14 18 19 22 29
   7713680.09500  30012987.53300                   4106779.23240  30012993.21740
  19565651.30300  26730325.68900                  15275576.56340  26730330.76440
   -631548.99300  26517876.93900                   -471517.04040  26517880.91240
  -1552443.05600  28113948.43200                  -1168199.14140  28113953.77540
   9402796.62300  26803223.36900                   7375164.28540  26803227.92840
  17064751.59700  26148314.07200                   9919043.54640  26148317.57640
 96  9 13  3 15  0.0180000  0  6  4 14 18 19 22 29
   7810040.01700  30031322.35300                   4181864.93140  30031327.60340
  19711255.83200  26758033.42400                  15389034.62540  26758038.68540
   -622065.63100  26519681.66600                   -464127.38940  26519685.80340
  -1554993.15100  28113462.76000                  -1170186.18240  28113467.55340
   9518669.23900  26825273.11100                   7465454.64340  26825277.15440
  17148241.52800  26164201.47800                   9984100.63640  26164205.06440
 96  9 13  3 15 30.0180000  0  6  4 14 18 19 22 29
   7906777.60900  30049731.72800                   4257244.83940  30049735.03340
  19857242.78700  26785813.68900                  15502790.67940  26785818.85740
   -612425.77700  26521515.86900                   -456615.79340  26521520.12340
  -1557341.97100  28113015.79900                  -1172016.37140  28113021.20140
   9635067.77900  26847422.97800                   7556154.81040  26847427.60740
  17231993.12200  26180139.06400                  10049361.62340  26180142.58040
 96  9 13  3 16  0.0180000  0  6  4 14 18 19 22 29
   8003907.17400  30068214.79900                   4332930.20540  30068218.74840
  20003624.44900  26813669.65800                  15616854.30840  26813674.48640
   -602630.13800  26523379.94700                   -448982.81540  26523384.41240
  -1559496.79900  28112605.97100                  -1173695.41240  28112611.18540
   9751997.59100  26869674.13500                   7647268.95940  26869678.58840
  17316005.18400  26196125.90800                  10114825.57540  26196129.38940
 96  9 13  3 16 30.0180000  0  6  4 14 18 19 22 29
   8101420.32000  30086771.39200                   4408914.45240  30086777.81440
  20150367.84300  26841593.73600                  15731199.80640  26841598.82240
   -592690.75700  26525271.58000                   -441237.83040  26525276.12740
  -1561485.47900  28112227.15800                  -1175244.99040  28112231.93940
   9869430.44800  26892021.00200                   7738775.08740  26892025.24440
  17400251.02400  26212157.42400                  10180471.68440  26212160.90440
 96  9 13  3 17  0.0180000  0  6  4 14 18 19 22 29
   8199343.39900  30105405.28300                   4485218.14040  30105409.37340
  20297483.60000  26869588.83000                  15845835.45140  26869593.96340
   -582598.50300  26527191.63500                   -433373.72040  26527195.99440
  -1563300.77900  28111881.88500                  -1176659.45940  28111887.59240
   9987363.20600  26914462.86100                   7830670.75240  26914467.04540
  17484745.68100  26228236.22100                  10246311.67840  26228239.77140
 96  9 13  3 17 30.0180000  0  6  4 14 18 19 22 29
   8297660.99400  30124114.07200                   4561829.23940  30124120.00240
  20444988.64900  26897658.49400                  15960774.44040  26897663.22840
   -572332.54700  26529145.51000                   -425374.25440  26529149.62340
  -1564937.62800  28111570.65000                  -1177934.88740  28111576.17040
  10105800.54500  26937000.64200                   7922959.59640  26937004.89640
  17569507.17700  26244365.70500                  10312359.60040  26244369.06840
 96  9 13  3 18  0.0180000  0  6  4 14 18 19 22 29
   8396354.90700  30142895.77500                   4638733.54340  30142901.82240
  20592889.41300  26925802.80700                  16076021.78340  26925807.50640
   -561867.79100  26531136.88500                   -417219.88740  26531140.74040
  -1566398.45900  28111292.44700                  -1179073.15540  28111298.18940
  10224728.77400  26959631.77500                   8015630.95140  26959636.04140
  17654552.84100  26260549.45500                  10378628.94840  26260552.81840
 96  9 13  3 18 30.0180000  0  6  4 14 18 19 22 29
   8495414.68000  30161745.74400                   4715922.94840  30161752.75640
  20741158.76000  26954017.44700                  16191556.32840  26954022.26440
   -551212.02300  26533164.44700                   -408916.67240  26533168.63140
  -1567695.04700  28111045.32200                  -1180083.43840  28111050.76040
  10344111.84000  26982349.37700                   8108656.72740  26982353.70140
  17739890.88000  26276788.71300                  10445126.12540  26276792.24040
 96  9 13  3 19  0.0180000  0  6  4 14 18 19 22 29
   8594822.92200  30180662.57200                   4793383.92340  30180667.57640
  20889792.79800  26982301.66600                  16307375.05040  26982306.62340
   -540373.28100  26535227.11100                   -400470.88440  26535231.18940
  -1568820.97800  28110831.29100                  -1180960.74740  28110837.46740
  10463939.75000  27005151.96300                   8202029.12940  27005156.72140
  17825513.93400  26293082.13500                  10511845.39240  26293085.80340
 96  9 13  3 19 30.0180000  0  6  4 14 18 19 22 29
   8694571.52300  30199643.99400                   4871110.08640  30199648.59940
  21038799.71800  27010656.88500                  16423484.32740  27010661.58440
   -529329.47800  26537328.78300                   -391865.31940  26537332.79140
  -1569748.97800  28110654.86100                  -1181683.80840  28110660.14640
  10584238.23700  27028044.15000                   8295768.22540  27028048.68540
  17911428.77600  26309431.16600                  10578792.02640  26309434.78740
 96  9 13  3 20  0.0180000  0  6  4 14 18 19 22 29
   8794696.11300  30218697.76000                   4949129.23040  30218702.61140
  21188193.82600  27039085.43900                  16539895.30940  27039090.29140
   -518053.41900  26539474.33800                   -383078.76340  26539478.45140
  -1570473.57600  28110517.14200                  -1182248.39740  28110521.78340
  10705022.67200  27051028.56400                   8389885.97140  27051032.70140
  17997651.58800  26325838.76000                  10645978.62840  26325842.33440
 96  9 13  3 20 30.0180000  0  6  4 14 18 19 22 29
   8895203.50600  30237823.66600                   5027446.67440  30237827.43940
  21337953.66300  27067583.73600                  16656591.27340  27067588.69340
   -506567.53900  26541660.11900                   -374128.70640  26541664.29140
  -1571005.62200  28110415.93200                  -1182662.93040  28110420.63140
  10826292.60800  27074105.28300                   8484382.03740  27074109.78340
  18084156.75900  26342300.45500                  10713385.25940  26342304.04140
 96  9 13  3 21  0.0180000  0  6  4 14 18 19 22 29
   8996063.56000  30257016.58000                   5106038.88140  30257021.54940
  21488084.91000  27096152.84600                  16773576.65840  27096158.03740
   -494874.92300  26543885.03300                   -365017.55440  26543889.13540
  -1571353.92800  28110348.99400                  -1182934.28340  28110353.99840
  10948076.31700  27097280.03300                   8579278.44540  27097284.47440
  18170923.98100  26358811.74400                  10780996.08840  26358815.11940
 96  9 13  3 21 30.0180000  0  6  4 14 18 19 22 29
   9097279.65700  30276277.65800                   5184908.53940  30276282.35740
  21638584.01800  27124792.04100                  16890848.68840  27124797.02140
   -482971.79200  26546150.10300                   -355742.37540  26546154.20540
  -1571533.68600  28110314.71300                  -1183074.31840  28110319.65840
  11070380.39000  27120553.60300                   8674580.32440  27120558.09240
  18257963.28800  26375374.72800                  10848818.92740  26375377.86940
 96  9 13  3 22  0.0180000  0  6  4 14 18 19 22 29
   9198878.75600  30295610.60300                   5264076.65140  30295615.77140
  21789447.95500  27153500.07200                  17008404.98940  27153505.01740
   -470849.07600  26548457.04100                   -346296.08740  26548461.26040
  -1571543.93100  28110313.11900                  -1183082.25640  28110318.40440
  11193196.95200  27143924.73600                   8770281.55140  27143928.88540
  18345284.64300  26391991.47100                  10916861.54240  26391994.74040
 96  9 13  3 22 30.0180000  0  6  4 14 18 19 22 29
   9300837.71300  30315012.22100                   5343525.16240  30315017.83440
  21940649.41700  27182272.60300                  17126224.30040  27182277.87740
   -458530.53900  26550801.32200                   -336697.20840  26550805.41240
  -1571386.86600  28110342.99400                  -1182959.82040  28110347.79940
  11316523.46600  27167393.04100                   8866380.14140  27167397.47140
  18432868.57300  26408658.09600                  10985108.76340  26408661.23640
 96  9 13  3 23  0.0180000  0  6  4 14 18 19 22 29
   9403137.33800  30334479.40000                   5423239.13140  30334483.78340
  22092181.92900  27211108.72800                  17244301.58240  27211113.83840
   -446016.89400  26553182.43200                   -326946.30440  26553186.67440
  -1571069.87100  28110402.55700                  -1182712.77340  28110408.12340
  11440347.03400  27190955.77500                   8962866.03940  27190960.12340
  18520719.99900  26425375.76000                  11053564.42340  26425378.85340
 96  9 13  3 23 30.0180000  0  6  4 14 18 19 22 29
   9505794.64700  30354014.83800                   5503231.85340  30354020.88540
  22244040.34100  27240006.35300                  17362632.80040  27240011.66240
   -433292.91200  26555603.63500                   -317031.50040  26555607.85340
  -1570577.62600  28110497.05700                  -1182329.18340  28110502.51740
  11564635.32400  27214607.72800                   9059714.06340  27214611.66640
  18608850.49500  26442146.32200                  11122237.54340  26442149.72140
 96  9 13  3 24  0.0180000  0  6  4 14 18 19 22 29
   9608782.54200  30373612.55700                   5583482.15140  30373617.11540
  22396220.54400  27268965.48600                  17481214.77040  27268970.50240
   -420368.49700  26558063.03300                   -306960.51340  26558067.07640
  -1569907.28100  28110624.29100                  -1181806.81440  28110629.38940
  11689374.14000  27238344.65000                   9156913.15140  27238348.71740
  18697236.35200  26458965.40000                  11191109.64240  26458968.88140
 96  9 13  3 24 30.0180000  0  6  4 14 18 19 22 29
   9712090.27100  30393272.11100                   5663981.59340  30393274.86540
  22548759.46900  27297992.52500                  17600076.25940  27297997.61140
   -407235.31200  26560562.36900                   -296726.85240  26560566.36540
  -1569044.52100  28110788.43200                  -1181134.51140  28110793.13140
  11814587.96500  27262172.14200                   9254482.37640  27262176.13940
  18785884.91600  26475834.68900                  11260186.44940  26475838.31040
 96  9 13  3 25  0.0180000  0  6  4 14 18 19 22 29
   9815691.23900  30412986.73600                   5744709.58940  30412992.56040
  22701651.48700  27327087.12700                  17719212.88740  27327091.82640
   -393900.42600  26563099.97100                   -286336.01240  26563103.90840
  -1567997.33800  28110988.01700                  -1180318.51340  28110992.89240
  11940250.96100  27286084.39200                   9352401.60140  27286088.83440
  18874786.60500  26492752.18200                  11329460.49540  26492755.74440
 96  9 13  3 25 30.0180000  0  6  4 14 18 19 22 29
   9919599.89100  30432758.44700                   5825677.38540  30432764.69340
  22854912.38000  27356251.69700                  17838636.95540  27356256.64240
   -380352.95900  26565677.95500                   -275779.52640  26565681.92840
  -1566742.26200  28111226.95500                  -1179340.47940  28111231.79540
  12066379.46600  27310085.91600                   9450683.56440  27310090.22840
  18963950.49200  26509719.56400                  11398938.85240  26509722.92840
 96  9 13  3 26  0.0180000  0  6  4 14 18 19 22 29
  10023828.70100  30452593.60300                   5906894.58440  30452595.80740
  23008546.61000  27385487.25200                  17958351.92340  27385492.34940
   -366595.52200  26568295.93900                   -265059.44140  26568299.76040
  -1565277.42200  28111505.33800                  -1178199.01440  28111510.17840
  12193002.08700  27334181.30700                   9549350.54540  27334185.67840
  19053390.89900  26526739.39200                  11468632.67440  26526742.90840
 96  9 13  3 26 30.0190000  0  6  4 14 18 19 22 29
  10128402.22200  30472493.45200                   5988380.42640  30472498.21040
  23162546.97400  27414792.87400                  18078352.20740  27414797.84340
   -352619.20800  26570955.42100                   -254168.78940  26570959.37040
  -1563609.05200  28111823.22500                  -1176898.94440  28111828.31140
  12320117.40700  27358370.91300                   9648401.46240  27358375.14340
  19143132.50100  26543816.56900                  11538561.20240  26543820.07340
 96  9 13  3 27  0.0190000  0  6  4 14 18 19 22 29
  10233314.61700  30492457.06100                   6070130.34140  30492463.05040
  23316870.24300  27444159.10000                  18198604.09540  27444163.99940
   -338434.83300  26573654.31100                   -243116.02640  26573658.35440
  -1561744.57200  28112178.00700                  -1175446.06540  28112183.40940
  12447688.97600  27382646.80400                   9747807.88540  27382651.12840
  19233168.61800  26560949.77200                  11608719.21540  26560953.39340
 96  9 13  3 27 30.0190000  0  7  3  4 14 18 19 22 29
                  30391169.14000
  10338604.22800  30512493.36600                   6152174.18040  30512498.66340
  23471545.32800  27473593.13200                  18319130.12240  27473597.98340
   -324018.18600  26576398.04600                   -231882.26340  26576402.04240
  -1559671.74800  28112571.92100                  -1173830.85440  28112576.71440
  12575737.65000  27407013.86600                   9847586.08440  27407018.16740
  19323525.89300  26578144.42900                  11679127.48540  26578147.93240
 96  9 13  3 28  0.0190000  0  7  3  4 14 18 19 22 29
     -3242.55200  30390532.14000
  10444219.51800  30532591.67900                   6234471.78740  30532597.77240
  23626517.43100  27503082.97500                  18439887.58540  27503088.47240
   -309413.01100  26579177.03800                   -220501.59640  26579181.11640
  -1557455.53000  28112993.72500                  -1172103.91340  28112999.08140
  12704205.40100  27431460.50700                   9947690.83340  27431464.67940
  19414154.55600  26595390.37400                  11749747.22440  26595393.87840
 96  9 13  3 28 30.0190000  0  6  3 14 18 19 22 29
     -6520.15400  30389907.96800
  23781810.40500  27532634.42900                  18560895.08840  27532639.59740
   -294595.92500  26581996.77200                   -208955.80440  26582000.80440
  -1555077.66300  28113446.10800                  -1170251.00540  28113450.79640
  12833107.29900  27455989.25700                  10048133.87940  27455993.66340
  19505071.79700  26612691.56100                  11820591.83340  26612695.04240
 96  9 13  3 29  0.0190000  0  6  3 14 18 19 22 29
     -9695.91700  30389303.43600                     -1063.73250  30389307.49140
  23937434.39900  27562248.46000                  18682160.53040  27562254.02640
   -279559.12100  26584857.99900                   -197238.80340  26584862.06540
  -1552522.81400  28113932.53800                  -1168260.18440  28113937.43640
  12962454.22400  27480603.64700                  10148923.69240  27480608.11240
  19596273.34300  26630046.41300                  11891657.97940  26630049.98740
 96  9 13  3 29 30.0190000  0  6  3 14 18 19 22 29
    -12790.61600  30388714.00700                     -3475.12640  30388719.19840
  24093362.35100  27591920.46800                  18803662.82540  27591925.99940
   -264312.67200  26587759.53000                   -185358.43940  26587763.45640
  -1549817.15500  28114447.69400                  -1166151.83140  28114452.52240
  13092231.64700  27505299.24100                  10250048.96840  27505303.41340
  19687737.58600  26647451.75700                  11962928.82140  26647455.13240
 96  9 13  3 30  0.0190000  0  6  3 14 18 19 22 29
    -15794.34700  30388142.94400                     -5815.66640  30388147.59740
  24249591.20000  27621649.75700                  18925399.58040  27621655.06540
   -248850.03900  26590701.80400                   -173309.62040  26590705.75340
  -1546938.59200  28114994.68600                  -1163908.77240  28115000.00740
  13222450.49300  27530078.99100                  10351518.20540  27530083.43240
  19779486.37200  26664910.85000                  12034421.38340  26664914.34340
 96  9 13  3 30 30.0190000  0  6  3 14 18 19 22 29
    -18694.99800  30387590.24100                     -8075.91840  30387596.20640
  24406134.00400  27651439.18600                  19047380.97640  27651444.60040
   -233160.86400  26593687.50700                   -161084.27640  26593691.63240
  -1543854.69500  28115581.56900                  -1161505.70340  28115586.84340
  13353125.18600  27554945.82700                  10453342.64340  27554949.87040
  19871531.82000  26682426.36600                  12106145.11240  26682429.71840
 96  9 13  3 31  0.0190000  0  6  3 14 18 19 22 29
    -21487.77500  30387058.38200                    -10252.06040  30387066.63640
  24562996.47400  27681289.03800                  19169611.46140  27681294.26540
   -217233.12400  26596718.14000                   -148673.03840  26596722.04240
  -1540561.00000  28116208.50700                  -1158939.16640  28116213.80440
  13484247.08700  27579897.39000                  10555515.56140  27579901.28040
  19963869.61200  26699997.96800                  12178096.63140  26700001.39040
 96  9 13  3 31 30.0190000  0  6  3 14 18 19 22 29
    -24155.57700  30386552.14700                    -12330.80340  30386557.92540
  24720180.05900  27711200.42900                  19292092.16840  27711205.85440
   -201058.99800  26599796.24900                   -136069.81640  26599800.11640
  -1537070.47900  28116872.73300                  -1156219.23740  28116877.69040
  13615815.17200  27604934.09300                  10658036.16040  27604938.10040
  20056510.99300  26717626.75700                  12250284.72540  26717630.16740
 96  9 13  3 32  0.0190000  0  6  3 14 18 19 22 29
    -26692.90700  30386069.95200                    -14307.88540  30386074.15940
  24877678.14000  27741171.03000                  19414817.92840  27741176.46840
   -184663.14300  26602916.03800                   -123293.81340  26602920.14040
  -1533400.01200  28117570.87400                  -1153359.10340  28117575.56140
  13747811.09300  27630051.63200                  10760890.12840  27630055.93240
  20149430.33600  26735308.71800                  12322689.40340  26735312.26840
 96  9 13  3 32 30.0190000  0  6  3 14 18 19 22 29
    -29062.05700  30385618.82700                    -16153.93640  30385623.25740
  25035514.76200  27771206.42100                  19537807.50240  27771211.63640
   -168014.16100  26606084.19400                   -110320.56440  26606088.27240
  -1529549.21900  28118303.74100                  -1150358.45240  28118308.78040
  13880259.00700  27655255.52200                  10864096.30940  27655260.26840
  20242621.19700  26753042.43600                  12395305.66040  26753045.78840
 96  9 13  3 33  0.0190000  0  6  3 14 18 19 22 29
    -31235.38300  30385204.83500                    -17847.40240  30385207.90540
  25193679.23600  27801304.16300                  19661052.54440  27801309.28440
   -151105.92000  26609301.54600                    -97145.30540  26609305.41340
  -1525535.63300  28119067.49900                  -1147230.95640  28119072.56140
  14013151.21900  27680544.32700                  10967648.69240  27680548.66340
  20336094.50200  26770829.76500                  12468142.00240  26770833.32740
 96  9 13  3 33 30.0190000  0  6  3 14 18 19 22 29
    -33224.92300  30384827.25700                    -19397.62240  30384830.78440
  25352150.05200  27831459.98300                  19784536.28240  27831465.24540
   -133953.30200  26612565.86600                    -83779.61940  26612570.10840
  -1521358.31600  28119862.19400                  -1143975.86840  28119867.03440
  14146483.38900  27705916.57700                  11071543.89140  27705920.67940
  20429853.40400  26788671.39000                  12541200.89740  26788674.97540
 96  9 13  3 34  0.0190000  0  6  3 14 18 19 22 29
    -35052.21300  30384478.68600                    -20821.47440  30384482.76540
  25510927.62000  27861674.65500                  19908259.04740  27861679.63640
   -116565.11600  26615874.43600                    -70230.37440  26615878.76140
  -1517001.83400  28120691.42100                  -1140581.17740  28120696.19040
  14280254.47400  27731372.41300                  11175781.11340  27731376.59740
  20523895.15800  26806567.18600                  12614480.18140  26806570.73740
 96  9 13  3 34 30.0190000  0  6  3 14 18 19 22 29
    -36750.07400  30384155.14000                    -22144.43840  30384160.03840
  25670004.67800  27891945.71000                  20032215.19340  27891951.06540
    -98934.42500  26619229.70200                    -56492.16240  26619233.86240
  -1512469.32800  28121553.75700                  -1137049.32940  28121558.70240
  14414459.59600  27756910.66300                  11280356.53940  27756914.97540
  20618238.97100  26824519.81900                  12687994.84140  26824523.52240
 96  9 13  3 35  0.0190000  0  6  3 14 18 19 22 29
    -38360.06900  30383848.31100                    -23398.95440  30383853.29240
  25829362.08100  27922270.59300                  20156389.77840  27922275.83140
    -81087.02700  26622625.85000                    -42585.09240  26622630.08140
  -1507763.72200  28122449.28000                  -1133382.58540  28122453.74540
  14549080.39700  27782527.81900                  11385255.86940  27782532.57740
  20712895.46900  26842532.37400                  12761753.15640  26842535.98340
 96  9 13  3 35 30.0190000  0  6  3 14 18 19 22 29
    -39897.80000  30383555.92100                    -24597.12340  30383562.06140
  25988995.11900  27952647.79600                  20280779.15340  27952652.94040
    -63033.14200  26626061.53000                    -28517.11740  26626065.57340
  -1502885.08500  28123377.53000                  -1129581.00940  28123382.13640
  14684122.92100  27808225.85000                  11490483.81340  27808230.16340
  20807840.44800  26860599.81100                  12835736.24640  26860603.36240
 96  9 13  3 36  0.0190000  0  6  3 14 18 19 22 29
    -41326.12200  30383284.44400                    -25710.06540  30383290.16340
  26148923.94800  27983081.49900                  20405399.01140  27983086.28040
    -44743.16700  26629541.75700                    -14265.17640  26629545.80040
  -1497827.72500  28124339.89000                  -1125640.19140  28124344.62440
  14819601.81400  27834007.05400                  11596051.79640  27834011.00340
  20903086.58700  26878724.67900                  12909954.01640  26878728.20640
 96  9 13  3 36 30.0190000  0  6  3 14 18 19 22 29
    -42646.28500  30383033.18600                    -26738.72140  30383038.26140
  26309126.31600  28013566.89000                  20530232.01240  28013571.75340
    -26218.85000  26633066.92900                       169.37340  26633071.08940
  -1492613.27300  28125332.50700                  -1121576.95740  28125337.22940
  14955502.92500  27859867.67100                  11701948.76840  27859872.15940
  20998615.56000  26896903.36600                  12984392.18040  26896906.83540
 96  9 13  3 37  0.0190000  0  6  3 14 18 19 22 29
    -43821.44300  30382809.61600                    -27654.40940  30382814.14040
  26469600.82900  28044104.24900                  20655277.08140  28044109.33540
     -7460.31000  26636636.90500                     14786.42340  26636641.12440
  -1487233.98700  28126355.82700                  -1117385.30240  28126360.66740
  15091820.75100  27885808.57700                  11808170.45340  27885812.93640
  21094412.83500  26915133.03800                  13059039.41240  26915136.44840
 96  9 13  3 37 30.0190000  0  6  3 14 18 19 22 29
    -44830.94000  30382617.03800                    -28440.97440  30382622.24140
  26630346.93000  28074693.10800                  20780533.77540  28074698.04240
     11559.51400  26640256.03800                     29607.07540  26640260.12840
  -1481689.71000  28127411.07700                  -1113065.06040  28127415.78840
  15228540.45600  27911825.17100                  11914705.29540  27911829.47240
  21190480.66700  26933414.10800                  13133897.46040  26933417.68240
 96  9 13  3 38  0.0190000  0  6  3 14 18 19 22 29
    -45675.93600  30382456.83500                    -29099.39340  30382460.69040
  26791370.47700  28105334.56100                  20906006.65940  28105339.20240
     30855.21300  26643928.11600                     44642.70340  26643932.11240
  -1475968.83100  28128499.67100                  -1108607.19940  28128504.14740
  15365645.72100  27937915.67900                  12021540.57140  27937920.00340
  21286850.45800  26951752.60800                  13208990.81240  26951755.92540
 96  9 13  3 38 30.0200000  0  6  3 14 18 19 22 29
    -46345.20100  30382328.51200                    -29620.85240  30382333.04740
  26952678.31100  28136030.80800                  21031701.05740  28136035.93040
     50428.33600  26647652.18300                     59894.49440  26647656.28540
  -1470061.14000  28129623.73000                  -1104003.80040  28129628.53540
  15503145.86200  27964080.59000                  12128683.54140  27964084.41040
  21383540.04200  26970152.05100                  13284333.34040  26970155.60140
 96  9 13  3 39  0.0200000  0  6  3 14 18 19 22 29
    -46842.03900  30382234.52700                    -30007.96940  30382239.54340
  27114243.90700  28166775.49600                  21157596.32040  28166780.50040
     70262.69500  26651426.65200                     75349.85440  26651430.83640
  -1463951.92800  28130786.17600                  -1099243.34340  28130791.35540
  15641011.93200  27990315.98800                  12236111.66440  27990320.34840
  21480542.72300  26988610.72300                  13359919.84640  26988614.28540
 96  9 13  3 39 30.0200000  0  6  3 14 18 19 22 29
    -47185.95900  30382169.25400                    -30275.91040  30382173.26240
  27276061.60800  28197568.41800                  21283688.02140  28197573.43340
     90356.93400  26655250.42600                     91007.71240  26655254.55140
  -1457637.92200  28131988.18300                  -1094323.32240  28131993.17640
  15779259.74300  28016623.55100                  12343837.23240  28016627.79340
  21577862.65700  27007130.50400                  13435753.55940  27007133.91440
 96  9 13  3 40  0.0200000  0  6  3 14 18 19 22 29
    -47363.81700  30382135.17600                    -30414.47640  30382140.18040
  27438134.55600  28228409.51200                  21409978.61340  28228414.52740
    110696.41100  26659121.10500                    106856.66640  26659125.09040
  -1451106.40200  28133230.77700                  -1089233.80440  28133235.10140
  15917907.41600  28043006.87900                  12451874.38340  28043011.36740
  21675487.50700  27025707.79300                  13511824.86840  27025711.27340
 96  9 13  3 40 30.0200000  0  6  3 14 18 19 22 29
    -47355.64400  30382136.54300                    -30408.07540  30382140.86740
  27600462.11800  28259300.11300                  21536467.60140  28259305.17640
    131284.14000  26663039.05800                    122899.06740  26663043.06640
  -1444351.21500  28134516.15200                  -1083969.98040  28134521.18040
  16056981.82300  28069472.53500                  12560244.06340  28069476.67240
  21773412.07700  27044341.86300                  13588129.72840  27044345.46140
 96  9 13  3 41  0.0200000  0  6  3 14 18 19 22 29
    -47176.18200  30382171.86300                    -30268.22640  30382177.06640
  27763042.43300  28290237.90200                  21663153.56040  28290242.83640
    152116.51700  26667003.19100                    139132.09740  26667007.00040
  -1437381.00800  28135842.47300                  -1078538.62540  28135847.50040
  16196472.05400  28096016.35500                  12668937.75840  28096020.58640
  21871617.71300  27063029.91000                  13664653.60140  27063033.37940
 96  9 13  3 41 30.0200000  0  6  3 14 18 19 22 29
    -46821.38700  30382237.94900                    -29991.76640  30382241.39440
  27925882.66300  28321224.96500                  21790042.04140  28321230.41440
    173198.39200  26671014.80100                    155559.54040  26671018.86740
  -1430239.57400  28137201.51900                  -1072973.84540  28137206.88740
  16336371.40300  28122638.41800                  12777950.24040  28122643.01240
  21970094.81500  27081769.70700                  13741388.99640  27081773.25840
 96  9 13  3 42  0.0200000  0  6  3 14 18 19 22 29
    -46283.43300  30382341.65200                    -29572.49540  30382345.25040
  28088985.10700  28352262.30800                  21917134.84940  28352267.59440
    194528.95800  26675073.51900                    172180.77240  26675077.53940
  -1422945.04000  28138589.73000                  -1067289.76740  28138594.43040
  16476643.83000  28149331.44100                  12887253.43840  28149335.95340
  22068845.33300  27100561.21500                  13818337.45540  27100564.70740
 96  9 13  3 42 30.0200000  0  6  3 14 18 19 22 29
    -45568.53600  30382476.76200                    -29015.45040  30382479.00040
  28252351.26100  28383350.10500                  22044433.14040  28383355.54340
    216125.27800  26679183.52700                    189009.08340  26679187.54740
  -1415507.13200  28140004.97300                  -1061493.99040  28140009.77740
  16617281.90500  28176093.45700                  12996841.54840  28176097.87540
  22167876.98000  27119406.13700                  13895504.97040  27119409.76940
 96  9 13  3 43  0.0200000  0  6  3 14 18 19 22 29
    -44683.36700  30382645.50400                    -28325.70440  30382649.68740
  28415982.07800  28414488.03500                  22171937.66640  28414493.41440
    237983.50400  26683343.26200                    206041.47840  26683347.31640
  -1407936.43800  28141445.62900                  -1055594.74440  28141450.50440
  16758252.19700  28202919.61300                  13106688.53440  28202923.57440
  22267171.02400  27138301.25400                  13972876.95340  27138304.75840
 96  9 13  3 43 30.0200000  0  6  3 14 18 19 22 29
    -43604.17700  30382850.41000                    -27484.74540  30382854.11340
  28579884.54200  28445677.39400                  22299653.86140  28445682.38740
    260132.54300  26687557.98800                    223300.47940  26687562.03140
  -1400208.11000  28142915.93300                  -1049572.63040  28142920.77340
  16899572.24900  28229812.01200                  13216808.06340  28229815.97340
  22366759.71500  27157252.38700                  14050478.53440  27157255.84440
 96  9 13  3 44  0.0200000  0  6  3 14 18 19 22 29
    -42355.60200  30383087.67600                    -26511.73440  30383092.92640
  28744033.74800  28476913.94900                  22427562.32640  28476919.24640
    282562.33400  26691826.16800                    240778.24940  26691830.00040
  -1392306.47000  28144419.71500                  -1043415.47940  28144424.47340
  17041246.02400  28256771.37100                  13327203.22440  28256775.95340
  22466638.28800  27176258.51900                  14128305.99640  27176262.03540
 96  9 13  3 44 30.0200000  0  6  3 14 18 19 22 29
    -40937.60800  30383357.20700                    -25406.79240  30383361.84840
  28908420.96100  28508196.00400                  22555656.24140  28508201.41840
    305269.29800  26696147.20700                    258471.99640  26696151.13340
  -1384221.19600  28145958.13700                  -1037115.23340  28145963.07040
  17183299.90000  28283803.24600                  13437894.55940  28283807.51240
  22566803.64800  27195319.49600                  14206356.92840  27195323.01240
 96  9 13  3 45  0.0200000  0  6  3 14 18 19 22 29
    -39357.02700  30383658.59000                    -24175.14040  30383663.75840
  29073028.87700  28539520.03500                  22683922.13340  28539525.74240
    328239.11700  26700517.79300                    276370.57140  26700521.83640
  -1375948.32100  28147532.67600                  -1030668.82040  28147537.62140
  17325726.98400  28310906.96500                  13548876.71540  28310911.12540
  22667262.27500  27214436.22300                  14284636.37840  27214439.62140
 96  9 13  3 45 30.0200000  0  7  3 14 18 19 22 27 29
    -37599.35500  30383992.51200                    -22805.45740  30383999.03940
  29237858.63900  28570886.24600                  22812360.89240  28570891.19140
    351490.42700  26704942.41800                    294488.48040  26704946.46140
  -1367468.00700  28149146.24600                  -1024060.77340  28149151.61340
  17468563.88200  28338087.09000                  13660178.20140  28338091.27340
                  31198956.66800
  22768045.97200  27233614.70700                  14363169.13040  27233618.25840
 96  9 13  3 46  0.0200000  0  7  3 14 18 19 22 27 29
    -35701.20700  30384354.59800                    -21326.41840  30384359.88340
  29402882.76600  28602289.34800                  22940951.12040  28602294.55140
    374968.18200  26709410.17600                    312782.84140  26709414.17240
  -1358815.76500  28150792.63700                  -1017318.72940  28150797.72340
  17611771.40000  28365339.03500                  13771768.48040  28365343.64040
    -15277.06500  31195948.84000
  22869107.36200  27252846.06600                  14441918.25740  27252849.51240
 96  9 13  3 46 30.0200000  0  7  3 14 18 19 22 27 29
    -33613.85900  30384751.81600                    -19699.89340  30384757.53540
  29568133.59400  28633735.37900                  23069717.98240  28633740.66440
    398700.63200  26713926.26200                    331275.66840  26713930.18740
  -1349965.81200  28152476.60500                  -1010422.64740  28152481.12940
  17755351.66800  28392660.80100                  13883649.21540  28392665.31240
    -31034.06400  31192950.59000
  22970469.48600  27272134.66800                  14520901.72940  27272138.06640
 96  9 13  3 47  0.0200000  0  7  3 14 18 19 22 27 29
    -31299.19500  30385191.73000                    -17896.22640  30385194.98840
  29733635.34700  28665228.98800                  23198680.38440  28665234.27340
    422723.74000  26718497.62100                    349994.98340  26718501.54740
  -1340905.33900  28154200.84000                  -1003362.51740  28154205.83240
  17899304.66400  28420054.27700                  13995820.38340  28420059.09440
    -46736.35300  31189961.82400                     -5297.73450  31189965.58640
  23072152.36400  27291484.39400                  14600135.14440  27291488.08640
 96  9 13  3 47 30.0200000  0  7  3 14 18 19 22 27 29
    -28762.32800  30385674.21500                    -15919.43240  30385679.87540
  29899362.19500  28696765.77700                  23327818.17640  28696770.94540
    447023.29100  26723121.65200                    368929.71040  26723125.74240
  -1331670.80800  28155958.26900                   -996166.75340  28155962.88740
  18043600.95700  28447513.13700                  14108259.06240  28447517.57840
    -62400.05600  31186981.42600                    -17503.15840  31186986.96940
  23174125.43600  27310888.78500                  14679594.68240  27310892.39440
 96  9 13  3 48  0.0200000  0  7  3 14 18 19 22 27 29
    -25988.57400  30386202.11300                    -13758.04740  30386208.55840
  30065311.45600  28728345.11300                  23457129.27540  28728350.16440
    471602.99500  26727799.12100                    388082.73540  26727803.04740
  -1322270.37600  28157747.10500                   -988841.71140  28157751.68740
  18188220.03000  28475033.11300                  14220949.25240  28475037.05140
    -78027.24700  31184007.40200                    -29680.02640  31184016.07840
  23276385.41200  27330348.53500                  14759277.77840  27330352.34440
 96  9 13  3 48 30.0200000  0  7  3 14 18 19 22 27 29
    -22970.44500  30386776.59000                    -11406.25240  30386783.63740
  30231464.02500  28759963.05100                  23586598.80340  28759968.38340
    496478.99300  26732532.92600                    407466.63840  26732536.84040
  -1312716.23700  28159565.27700                   -981396.90140  28159570.00040
  18333168.39300  28502616.31600                  14333896.02940  28502620.43040
    -93634.88300  31181037.20700                    -41841.72540  31181044.23040
  23378942.13500  27349864.22300                  14839192.10340  27349867.90240
 96  9 13  3 49  0.0200000  0  7  3 14 18 19 22 27 29
    -19717.44500  30387396.01200                     -8871.43640  30387400.26540
  30397803.19200  28791616.69900                  23716213.72540  28791621.44540
    521645.75100  26737322.07400                    427077.10040  26737326.00040
  -1303012.89200  28161411.61300                   -973835.86040  28161416.43040
  18478465.65000  28530265.01200                  14447114.68140  28530269.19540
   -109220.77600  31178070.21500                    -53986.47140  31178076.67240
  23481808.36400  27369439.13700                  14919347.61540  27369442.71140
 96  9 13  3 49 30.0200000  0  7  3 14 18 19 22 27 29
    -16218.92200  30388061.55100                     -6145.24440  30388066.40240
  30564342.20600  28823307.66000                  23845984.39140  28823312.52340
    547115.74300  26742168.76900                    446923.85840  26742172.89440
  -1293124.52000  28163293.30800                   -966130.59440  28163297.70340
  18624140.56500  28557986.12900                  14560627.59740  28557990.25440
   -124753.26200  31175115.41800                    -66089.62340  31175120.53940
  23585014.08600  27389078.48000                  14999767.64940  27389082.16040
 96  9 13  3 50  0.0200000  0  7  3 14 18 19 22 27 29
    -12496.89900  30388769.94100                     -3244.96540  30388775.70740
  30731074.34300  28855035.77700                  23975905.51540  28855040.86340
    572871.98800  26747070.11300                    466993.66340  26747074.10940
  -1283050.22100  28165210.30800                   -958280.48940  28165215.31240
  18770180.77400  28585777.09800                  14674425.17240  28585781.51540
   -140250.23000  31172166.45700                    -78165.09640  31172170.98040
  23688551.41700  27408781.01200                  15080446.09240  27408784.53940
 96  9 13  3 50 30.0210000  0  7  3 14 18 19 22 27 29
     -8558.87300  30389519.34500                      -176.32740  30389523.57540
  30898009.27400  28886802.47000                  24105984.67240  28886807.45040
    598914.38300  26752025.67300                    487286.45140  26752029.55240
  -1272780.97800  28167164.23500                   -950278.44640  28167169.25140
  18916592.11000  28613637.89900                  14788511.92740  28613642.51640
   -155710.41200  31169224.47000                    -90211.93240  31169228.09140
  23792418.23200  27428546.06300                  15161381.26540  27428549.82540
 96  9 13  3 51  0.0210000  0  7  3 14 18 19 22 27 29
     -4407.03900  30390308.98500                      3058.87640  30390314.03640
  31065131.15600  28918603.89900                  24236209.51140  28918608.98540
    625238.96500  26757035.14100                    507799.11740  26757039.06740
  -1262317.45700  28169155.65700                   -942125.02340  28169160.61440
  19063347.46900  28641564.36000                  14902866.76140  28641568.52040
   -171112.49300  31166294.04000                   -102213.46040  31166300.40340
  23896589.04200  27448369.17300                  15242553.32240  27448372.77040
 96  9 13  3 51 30.0210000  0  7  3 14 18 19 22 27 29
       -44.99600  30391139.09500                      6457.87940  30391144.47340
  31232447.71900  28950443.41500                  24366586.03040  28950449.30940
    651846.42300  26762098.41500                    528532.20740  26762102.25940
  -1251680.96900  28171179.67300                   -933836.84240  28171184.34840
  19210423.08800  28669552.42300                  15017471.14540  28669556.52440
   -186469.40800  31163371.22700                   -114179.81240  31163377.32140
  24001042.42300  27468246.30600                  15323945.55940  27468249.88040
 96  9 13  3 52  0.0210000  0  7  3 14 18 19 22 27 29
      4537.06200  30392011.21200                     10028.32240  30392016.60240
  31399971.68400  28982322.55600                  24497124.17040  28982328.35640
    678751.25100  26767218.14900                    549497.01340  26767222.01640
  -1240882.44800  28173234.55600                   -925422.41540  28173238.98540
  19357815.93800  28697600.43800                  15132322.71640  28697604.68140
   -201799.19500  31160453.59500                   -126125.03540  31160457.06340
  24105770.27000  27488175.08700                  15405551.66540  27488178.61440
 96  9 13  3 52 30.0210000  0  7  3 14 18 19 22 27 29
      9362.59600  30392929.47700                     13788.50140  30392935.18440
  31567704.40900  29014241.04800                  24627824.99540  29014246.49740
    705975.08600  26772398.62600                    570710.39340  26772402.65740
  -1229919.65400  28175320.59500                   -916879.92740  28175325.07140
  19505536.11000  28725710.62600                  15247429.33840  28725715.73540
   -217084.93900  31157545.10200                   -138035.92340  31157549.97740
  24210774.37700  27508156.82900                  15487373.04740  27508160.36840
 96  9 13  3 53  0.0210000  0  7  3 14 18 19 22 27 29
     14432.69800  30393894.14900                     17739.26840  30393900.22040
  31735635.47500  29046197.53200                  24758680.35640  29046202.87640
    733509.84200  26777638.32900                    592166.05840  26777642.39540
  -1218802.29200  28177435.74300                   -908217.04140  28177440.30240
  19653570.08800  28753880.50900                  15362780.50240  28753884.43440
   -232341.98100  31154641.23500                   -149924.46040  31154647.90340
  24316058.44000  27528191.26600                  15569412.56640  27528194.82940
 96  9 13  3 53 30.0210000  0  7  3 14 18 19 22 27 29
     19762.37000  30394908.68800                     21892.30340  30394913.32940
  31903783.66500  29078194.49300                  24889704.91140  29078200.05940
    761360.49600  26782938.16500                    613867.86740  26782942.17340
  -1207511.45700  28179584.89100                   -899418.99640  28179589.63840
  19801917.28100  28782109.57900                  15478375.72840  28782113.54040
   -247582.75300  31151741.00100                   -161800.33740  31151747.80940
  24421647.72900  27548284.72000                  15651689.93440  27548288.37640
 96  9 13  3 54  0.0210000  0  8  3 14 18 19 22 27 29 31
     25345.71400  30395970.79800                     26242.95240  30395976.31740
  32072130.48400  29110229.39900                  25020884.23440  29110235.47040
    789522.28900  26788297.03200                    635812.13140  26788301.12240
  -1196032.03500  28181769.20400                   -890473.96640  28181773.79840
  19950573.55500  28810397.94600                  15594211.77740  28810402.51640
   -262798.00900  31148846.12600                   -173656.33040  31148850.41540
  24527539.87900  27568435.34500                  15734203.28740  27568438.93140
     -9242.65710  30976007.66500
 96  9 13  3 54 30.0210000  0  8  3 14 18 19 22 27 29 31
     31178.20100  30397080.42300                     30787.75340  30397084.61840
  32240647.89800  29142298.11800                  25152196.49640  29142303.96640
    817981.28100  26793712.68800                    657987.97540  26793716.57940
  -1184367.58900  28183988.79800                   -881384.76840  28183993.45040
  20099537.38600  28838744.92300                  15710287.50140  28838749.63440
   -277963.59700  31145959.73500                   -185473.63440  31145963.46240
  24633740.74500  27588644.60200                  15816957.20840  27588648.27040
    -34481.96000  30971204.39100
 96  9 13  3 55  0.0210000  0  8  3 14 18 19 22 27 29 31
     37266.90500  30398239.26600                     35532.21640  30398244.54040
  32409343.75800  29174399.95400                  25283647.80440  29174405.33340
    846736.47800  26799184.79800                    680394.63240  26799188.58340
  -1172504.78400  28186246.40700                   -872140.97540  28186251.30640
  20248803.19100  28867149.37600                  15826598.52140  28867154.01640
   -293075.22100  31143083.82900                   -197248.87140  31143089.86440
  24740273.39600  27608916.90700                  15899969.66040  27608920.45840
    -59756.53100  30966394.25100
 96  9 13  3 55 30.0210000  0  8  3 14 18 19 22 27 29 31
     43617.59600  30399447.97000                     40480.82040  30399451.96640
  32578209.84000  29206534.01600                  25415231.76240  29206539.05640
    875783.16600  26804712.19600                    703028.41340  26804716.13440
  -1160451.43900  28188539.86800                   -862748.73540  28188544.47340
  20398380.04400  28895612.83700                  15943151.91640  28895617.40740
   -308111.56600  31140222.68800                   -208965.40340  31140228.05640
  24847136.51000  27629252.35200                  15983239.61040  27629256.30240
    -85063.83300  30961579.06300                    -16435.87150  30961582.89540
 96  9 13  3 56  0.0210000  0  8  3 14 18 19 22 27 29 31
     50228.21900  30400705.89100                     45632.00140  30400710.61440
  32747241.46400  29238699.55600                  25546944.71240  29238704.79440
    905127.72800  26810296.01600                    725894.31140  26810300.08340
  -1148225.41000  28190866.81300                   -853221.94040  28190871.71240
  20548277.43000  28924136.73500                  16059955.08740  28924141.20040
   -323069.07400  31137376.41500                   -220620.51540  31137381.02040
  24954320.94400  27649648.86800                  16066759.94640  27649652.79440
   -110409.60100  30956754.79000                    -36185.80640  30956760.32140
 96  9 13  3 56 30.0210000  0  8  3 14 18 19 22 27 29 31
     57123.22100  30402018.19600                     51004.74040  30402022.32140
  32916461.75000  29270901.13400                  25678804.65540  29270905.57540
    934775.46700  26815937.82100                    748996.45140  26815941.95840
  -1135830.18200  28193225.02400                   -843563.30840  28193229.82940
  20698499.46800  28952723.43800                  16177011.21140  28952728.11440
   -337965.01500  31134542.51600                   -232227.70740  31134545.77440
  25061842.20500  27670109.31300                  16150542.73940  27670113.08740
   -135805.56600  30951922.54800                    -55974.89140  30951927.44640
 96  9 13  3 57  0.0210000  0  8  3 14 18 19 22 27 29 31
     64304.26800  30403384.28200                     56600.36740  30403387.78640
  33085882.26300  29303140.60200                  25810820.63540  29303146.06340
    964727.31600  26821637.64900                    772335.55540  26821641.51640
  -1123258.96600  28195617.38400                   -833767.55340  28195622.42340
  20849035.23500  28981369.15700                  16294311.80840  28981374.18440
   -352822.72900  31131714.88400                   -243805.09340  31131717.96640
  25169686.93500  27690631.89900                  16234577.59340  27690635.36840
   -161239.87600  30947084.11000                    -75793.76240  30947088.50540
 96  9 13  3 57 30.0210000  0  8  3 14 18 19 22 27 29 31
     71751.20500  30404801.01600                     62403.18640  30404804.57940
  33255487.24600  29335415.61000                  25942980.37340  29335420.67340
    994977.06800  26827393.98500                    795906.79240  26827397.97040
  -1110534.96300  28198038.51600                   -823852.72840  28198043.16940
  20999877.63800  29010074.35200                  16411851.34940  29010078.92340
   -367665.23500  31128889.41500                   -255370.57840  31128895.73140
  25277818.02900  27711208.66500                  16318835.57440  27711212.22740
   -186726.62000  30942233.26600                    -95653.56840  30942237.33340
 96  9 13  3 58  0.0210000  0  8  3 14 18 19 22 27 29 31
     79478.91600  30406271.60200                     68424.81940  30406276.45440
  33425302.73400  29367730.55600                  26075304.10240  29367735.36040
   1025567.40200  26833214.89100                    819743.42240  26833218.87640
  -1097616.66000  28200496.64900                   -813786.50840  28200501.82940
  21151040.86500  29038839.87600                  16529640.88140  29038843.96640
   -382481.15800  31126070.75900                   -266915.39340  31126073.97040
  25386247.26200  27731841.72000                  16403325.87540  27731845.25940
   -212253.54800  30937375.91500                   -115544.62840  30937380.48540
 96  9 13  3 58 30.0210000  0  8  3 14 18 19 22 27 29 31
     87475.46100  30407793.40700                     74655.90940  30407798.23540
  33595307.20200  29400081.33700                  26207775.11740  29400086.29440
   1056487.23100  26839098.79800                    843836.80040  26839102.84140
  -1084484.94100  28202995.40700                   -803554.00440  28203000.20040
  21302504.04100  29067662.11800                  16647664.13040  29067665.64540
   -397261.44600  31123258.04000                   -278432.42040  31123265.64940
  25494963.65900  27752529.78200                  16488039.94440  27752533.45040
   -237823.17400  30932510.14100                   -135469.00840  30932515.40340
 96  9 13  3 59  0.0210000  0  8  3 14 18 19 22 27 29 31
     95727.14700  30409363.02400                     81085.80940  30409368.16940
  33765479.48000  29432464.08700                  26340376.88540  29432469.34840
   1087746.97800  26845047.56300                    868195.04640  26845051.47740
  -1071134.98400  28205535.86000                   -793151.41240  28205540.67740
  21454262.82300  29096540.49300                  16765917.73740  29096544.40740
   -411979.80200  31120456.43800                   -289901.20040  31120461.94640
  25603970.53300  27773273.00900                  16572980.36540  27773276.81740
   -263424.42000  30927638.64900                   -155418.00040  30927643.97040
 96  9 13  3 59 30.0210000  0  8  3 14 18 19 22 27 29 31
    104222.67200  30410980.44600                     87705.70540  30410984.98140
  33935793.94700  29464874.04800                  26473089.44840  29464879.32140
   1119337.39200  26851058.74300                    892810.96440  26851062.66940
  -1057587.14900  28208114.14900                   -782594.66740  28208118.69640
  21606303.28300  29125473.04000                  16884390.81340  29125477.45840
   -426629.95400  31117668.97700                   -301316.84940  31117674.14540
  25713271.32700  27794072.34500                  16658149.80240  27794075.90740
   -289079.02600  30922756.57900                   -175408.57240  30922760.34140
 96  9 13  4  0  0.0210000  0  8  3 14 18 19 22 27 29 31
    112976.24800  30412645.84500                     94526.72340  30412651.42340
  34106251.75200  29497310.68800                  26605913.70740  29497315.59840
   1151261.65000  26857133.86000                    917687.01740  26857137.71640
  -1043833.87700  28210731.43100                   -771877.80140  28210736.07140
  21758622.26700  29154458.69600                  17003080.92940  29154463.14940
   -441193.42400  31114897.29000                   -312664.92640  31114901.12240
  25822900.62500  27814934.24300                  16743575.22940  27814938.20440
   -314760.63400  30917869.16500                   -195420.21140  30917871.76640
 96  9 13  4  0 30.0210000  0  8  3 14 18 19 22 27 29 31
    121983.23500  30414360.09500                    101545.16040  30414363.77440
  34276836.70300  29529771.94600                  26738837.03540  29529776.14140
   1183500.13400  26863268.64100                    942807.91540  26863272.55640
  -1029904.76700  28213382.22000                   -761023.91440  28213386.84840
  21911203.79800  29183493.79800                  17121975.63140  29183498.15740
   -455690.23200  31112138.77400                   -323961.09240  31112144.50540
  25932864.99100  27835859.70400                  16829261.74540  27835863.67740
   -340463.94700  30912978.22000                   -215448.75040  30912981.29040
 96  9 13  4  1  0.0210000  0  8  3 14 18 19 22 27 29 31
    131259.27700  30416124.72000                    108773.26740  30416127.38040
  34447560.04400  29562259.25900                  26871868.19440  29562263.89940
   1216065.91800  26869465.55600                    968183.85440  26869469.47040
  -1015823.45100  28216061.64900                   -750051.46840  28216066.38440
  22064068.97100  29212582.34500                  17241091.35540  29212586.70440
   -470136.23900  31109391.09500                   -335217.66940  31109395.37240
  26043180.57000  27856852.23500                  16915221.93540  27856855.93840
   -366182.24000  30908083.45400                   -235488.92940  30908087.00540
 96  9 13  4  1 30.0210000  0  8  3 14 18 19 22 27 29 31
    140815.29500  30417944.00900                    116219.52340  30417948.61440
  34618431.23600  29594775.50100                  27005014.58040  29594780.62240
   1248966.83500  26875726.43800                    993820.93840  26875730.50540
  -1001589.04800  28218770.39900                   -738959.71940  28218774.92340
  22217231.73600  29241728.49300                  17360438.96640  29241733.47340
   -484544.78600  31106648.15700                   -346445.07740  31106651.86040
  26153837.71000  27877909.63400                  17001448.27140  27877913.16140
   -391929.11800  30903183.72000                   -255551.41840  30903188.88840
 96  9 13  4  2  0.0210000  0  8  3 14 18 19 22 27 29 31
    150660.43300  30419816.37600                    123891.08340  30419823.25940
  34789451.13400  29627319.70400                  27138276.81940  29627325.07140
   1282208.16200  26882052.29000                   1019723.27440  26882056.33340
   -987189.78300  28221510.44600                   -727739.48940  28221515.11040
  22370684.47800  29270929.53200                  17480012.53840  29270933.68140
   -498933.85200  31103908.50900                   -357657.23940  31103914.38040
  26264806.84900  27899026.21200                  17087917.72540  27899029.64540
   -417719.47200  30898276.63400                   -275647.73440  30898281.43840
 96  9 13  4  2 30.0210000  0  8  3 14 18 19 22 27 29 31
    160824.17900  30421751.02400                    131810.90540  30421755.59540
  34960618.66500  29659891.89100                  27271654.11140  29659897.39940
   1315797.09700  26888444.07900                   1045896.47740  26888447.91140
   -972616.35600  28224283.78200                   -716383.55640  28224288.63440
  22524449.45500  29300190.48500                  17599829.38740  29300194.97340
   -513303.98700  31101174.51600                   -368854.68840  31101178.03240
  26376064.51500  27920197.80600                  17174612.00240  27920201.39140
   -443552.80900  30893360.46200                   -295777.59540  30893363.84840
 96  9 13  4  3  0.0220000  0  8  3 14 18 19 22 27 29 31
    171313.55500  30423746.81800                    139984.41640  30423752.65440
  35131921.12800  29692489.38900                  27405136.54840  29692494.21740
   1349732.67500  26894901.45100                   1072339.78640  26894905.44740
   -957876.08500  28227088.84200                   -704897.61840  28227093.72840
  22678524.37000  29329509.85700                  17719887.76340  29329514.21740
   -527651.44700  31098444.98200                   -380034.45940  31098450.19740
  26487593.73500  27941421.09900                  17261517.88340  27941424.89640
   -469445.11000  30888433.27900                   -315953.39940  30888438.63540
 96  9 13  4  3 30.0220000  0  8  3 14 18 19 22 27 29 31
    182163.38100  30425811.47400                    148438.88040  30425817.00640
  35303364.75000  29725114.25600                  27538728.96540  29725119.08440
   1384025.26300  26901427.29500                   1099061.28040  26901431.13940
   -942930.82500  28229932.31000                   -693251.94940  28229937.02140
  22832896.88500  29358885.67000                  17840178.03940  29358889.91240
   -541942.81000  31095725.81800                   -391170.57440  31095731.11540
  26599403.20400  27962697.99800                  17348642.14140  27962701.36140
   -495354.61900  30883502.96700                   -336142.59140  30883508.96740
 96  9 13  4  4  0.0220000  0  8  3 14 18 19 22 27 29 31
    193369.21600  30427944.13900                    157170.71640  30427949.37740
  35474934.09900  29757762.70900                  27672419.36840  29757767.47840
   1418645.20400  26908015.20900                   1126037.86140  26908019.11140
   -927800.87700  28232811.45100                   -681462.35440  28232816.22140
  22987538.11300  29388313.09900                  17960677.69540  29388317.22440
   -556196.25000  31093013.25600                   -402277.10340  31093017.89640
  26711493.16000  27984027.77100                  17435984.95040  27984031.49840
   -521257.41700  30878573.65400                   -356326.58340  30878577.83840
 96  9 13  4  4 30.0220000  0  8  3 14 18 19 22 27 29 31
    204914.68000  30430141.57600                    166167.20540  30430146.52140
  35646623.08000  29790433.97400                  27806202.97840  29790438.77940
   1453587.47600  26914664.65400                   1153265.61240  26914668.49840
   -912501.79100  28235723.08400                   -669540.98240  28235727.97140
  23142443.59900  29417790.63100                  18081383.26240  29417794.47440
   -570399.57700  31090310.47400                   -413344.60040  31090316.14640
  26823902.03900  28005418.41200                  17523576.27940  28005421.83440
   -547125.77100  30873651.09200                   -376483.69240  30873655.61540
 96  9 13  4  5  0.0220000  0  8  3 14 18 19 22 27 29 31
    216786.44200  30432400.38900                    175417.95440  30432403.08440
  35818450.16800  29823131.61500                  27940094.20840  29823137.33440
   1488862.19600  26921377.05300                   1180752.40240  26921380.90840
   -897016.44400  28238670.01400                   -657474.46540  28238674.67840
  23297602.03500  29447316.87300                  18202285.94440  29447320.33040
   -584535.97500  31087620.59900                   -424359.89840  31087626.33040
  26936667.04300  28026876.86500                  17611445.10740  28026880.24040
   -572942.18600  30868738.73200                   -396600.38440  30868744.40440
 96  9 13  4  5 30.0220000  0  8  3 14 18 19 22 27 29 31
    228970.79200  30434718.74800                    184912.27340  30434724.27940
  35990422.52200  29855856.46700                  28074098.63540  29855861.75240
   1524468.86700  26928152.68500                   1208497.85940  26928156.59940
   -881333.69500  28241654.11500                   -645254.11640  28241658.81440
  23453011.02800  29476889.56800                  18323383.86540  29476893.81040
   -598605.75500  31084942.78700                   -435323.39440  31084947.26440
  27049783.73100  28048402.56000                  17699587.96840  28048405.81840
   -598694.28500  30863838.17000                   -416666.92440  30863843.10340
 96  9 13  4  6  0.0220000  0  8  3 14 18 19 22 27 29 31
    241431.79600  30437090.22400                    194622.17040  30437095.13540
  36162511.19700  29888604.21700                  28208193.68740  29888610.08840
   1560407.80200  26934991.64600                   1236502.22640  26934995.59640
   -865481.36000  28244670.26400                   -632901.62440  28244675.10340
  23608670.42500  29506510.45100                  18444676.91640  29506515.11540
   -612622.25400  31082275.81800                   -446245.24240  31082280.69340
  27163230.14100  28069990.72400                  17787987.75440  28069993.65440
   -624416.46600  30858943.19300                   -436710.18540  30858948.44340
 96  9 13  4  6 30.0220000  0  8  3 14 18 19 22 27 29 31
    254168.56400  30439514.50600                    204546.92840  30439517.98640
  36334711.83900  29921372.46700                  28342375.99640  29921377.89240
   1596698.75300  26941897.85700                   1264780.89240  26941901.73640
   -849454.85800  28247720.32600                   -620413.42940  28247725.48240
  23764592.91900  29536181.59900                  18566174.95140  29536185.59640
   -626575.79300  31079620.52100                   -457118.14640  31079626.61540
  27277004.49000  28091641.24000                  17876643.08340  28091644.58040
   -650123.79400  30854051.15400                   -456741.84440  30854056.58040
 96  9 13  4  7  0.0220000  0  8  3 14 18 19 22 27 29 31
    267206.21100  30441994.89600                    214706.15540  30441998.30640
  36507030.73100  29954163.88900                  28476650.44040  29954170.08840
   1633353.81100  26948872.95100                   1293343.28240  26948876.72440
   -833244.22500  28250804.92000                   -607781.75340  28250809.97140
  23920787.02600  29565904.16200                  18687884.65240  29565908.67440
   -640471.28900  31076975.40400                   -467945.75440  31076980.80640
  27391073.37000  28113347.51400                  17965527.91640  28113351.02940
   -675821.92500  30849160.77900                   -476766.32240  30849166.33440
 96  9 13  4  7 30.0220000  0  8  3 14 18 19 22 27 29 31
    280578.81800  30444539.52900                    225126.41440  30444544.15840
  36679480.43400  29986980.04500                  28611026.84040  29986986.04540
   1670405.32000  26955923.44300                   1322214.59340  26955927.35740
   -816828.97500  28253928.50600                   -594990.63840  28253933.35740
  24077267.58400  29595681.27100                  18809817.56340  29595685.40840
   -654293.36900  31074345.09200                   -478716.19440  31074350.91640
  27505446.28000  28135112.56000                  18054649.65140  28135116.12340
   -701495.64100  30844276.29500                   -496771.80040  30844281.00640
 96  9 13  4  8  0.0220000  0  8  3 14 18 19 22 27 29 31
    294281.48900  30447147.38900                    235803.82940  30447151.72440
  36852043.12800  30019816.91200                  28745491.24340  30019822.98240
   1707837.39200  26963046.74000                   1351382.44240  26963050.66640
   -800226.26700  28257088.41200                   -582053.46440  28257093.48640
  24234004.67600  29625507.26400                  18931950.36140  29625511.35340
   -668060.56900  31071725.73200                   -489443.80740  31071730.36140
  27620124.72500  28156935.04500                  18144009.47440  28156938.45540
   -727168.75900  30839390.49000                   -516776.78940  30839394.26440
 96  9 13  4  8 30.0220000  0  8  3 14 18 19 22 27 29 31
    308319.93900  30449817.74000                    246742.90240  30449822.41640
  37024727.75100  30052678.05300                  28880050.69340  30052683.06840
   1745630.83000  26970238.67000                   1380831.87440  26970242.61940
   -783430.47100  28260284.09900                   -568965.83040  28260288.71740
  24390958.43100  29655374.50600                  19054251.98640  29655379.20540
   -681779.59900  31069115.28700                   -500133.97440  31069120.25640
  27735103.19100  28178814.06800                  18233603.07240  28178817.64240
   -752835.82900  30834506.62300                   -536777.09340  30834510.91240
 96  9 13  4  9  0.0220000  0  8  3 14 18 19 22 27 29 31
    322694.62900  30452554.02100                    257943.98440  30452558.04140
  37197526.44900  30085560.81800                  29014699.02440  30085566.56040
   1783777.82600  26977497.64600                   1410556.80940  26977501.53740
   -766436.83500  28263518.12300                   -555724.01140  28263522.83440
  24548106.63800  29685279.67000                  19176705.12840  29685284.06440
   -695454.72200  31066513.17800                   -510789.86440  31066515.74440
  27850376.02800  28200750.12300                  18323426.05340  28200753.60340
   -778488.92500  30829624.77900                   -556766.50040  30829630.28740
 96  9 13  4  9 30.0220000  0  8  3 14 18 19 22 27 29 31
    337407.63000  30455353.71700                    269408.66440  30455357.91240
  37370441.91900  30118465.31000                  29149438.35540  30118470.99440
   1822281.21600  26984824.62300                   1440559.45540  26984828.53740
   -749246.47600  28266789.49800                   -542328.90140  28266794.26740
  24705461.89600  29715223.30300                  19299319.62040  29715227.81440
   -709073.44200  31063921.12300                   -521401.81040  31063926.08040
  27965967.47300  28222746.56800                  18413497.30740  28222750.06040
   -804110.33600  30824748.77100                   -576731.22140  30824753.72840
 96  9 13  4 10  0.0220000  0  8  3 14 18 19 22 27 29 31
    352473.31000  30458220.34200                    281148.18040  30458225.25240
  37543479.56100  30151393.63100                  29284272.84740  30151399.26740
   1861150.03700  26992221.04500                   1470846.84940  26992224.83040
   -731857.17900  28270098.71700                   -528778.79540  28270103.32240
  24863051.57100  29745211.42000                  19422116.77940  29745215.58040
   -722627.20300  31061342.41200                   -531963.15640  31061347.84940
  28081882.51000  28244804.18500                  18503820.70340  28244807.70140
   -829676.43200  30819883.77100                   -596652.87140  30819888.01440
 96  9 13  4 10 30.0220000  0  8  3 14 18 19 22 27 29 31
    367888.57900  30461154.25600                    293160.09940  30461158.34640
  37716617.07800  30184340.61500                  29419185.20340  30184345.78340
   1900371.04200  26999684.48200                   1501408.67640  26999688.27940
   -714285.61500  28273441.95900                   -515086.66540  28273446.82240
  25020887.39000  29775246.15400                  19545105.72340  29775250.76040
   -736135.21900  31058770.80300                   -542488.85640  31058778.11940
  28198099.55500  28266919.44300                  18594379.43040  28266922.99440
   -855183.84200  30815029.42000                   -616528.73340  30815033.35740
 96  9 13  4 11  0.0220000  0  8  3 14 18 19 22 27 29 31
    383642.72000  30464151.20900                    305436.06640  30464155.63940
  37889820.59100  30217300.41200                  29554148.97740  30217306.38940
   1939931.15800  27007212.49800                   1532234.74240  27007216.41240
   -696558.14100  28276815.38900                   -501273.04340  28276820.14640
  25178988.96900  29805330.95900                  19668301.75440  29805336.19740
   -749623.37200  31056205.03700                   -552999.05840  31056212.01440
  28314608.37000  28289090.45100                  18685165.51640  28289094.03740
   -880650.91900  30810183.45100                   -636373.20440  30810187.76440
 96  9 13  4 11 30.0220000  0  8  3 14 18 19 22 27 29 31
    399743.70200  30467216.37300                    317982.30240  30467221.31840
  38063102.98500  30250274.58400                  29689174.18040  30250279.88140
   1979846.12400  27014808.09900                   1563337.31440  27014811.99040
   -678661.94800  28280221.06800                   -487327.94940  28280225.65040
  25337376.44100  29835472.51400                  19791720.56240  29835477.02540
   -763082.52800  31053643.38100                   -563486.69040  31053649.36940
  28431430.32100  28311321.22400                  18776195.60040  28311324.59940
   -906068.83000  30805346.48200                   -656179.31740  30805349.48240
 96  9 13  4 12  0.0220000  0  8  3 14 18 19 22 27 29 31
    416215.92200  30470350.70100                    330817.81640  30470355.49440
  38236471.36900  30283266.05300                  29824266.43140  30283271.08040
   2020125.27300  27022472.84900                   1594723.67140  27022476.83440
   -660572.19800  28283663.58400                   -473232.02640  28283668.17840
  25496042.55900  29865665.22400                  19915356.50540  29865669.10340
   -776494.29400  31051090.44300                   -573937.37440  31051096.54940
  28548579.40300  28333613.77100                  18867480.58940  28333617.45140
   -931417.61500  30800523.24800                   -675931.62540  30800525.22840
 96  9 13  4 12 30.0220000  0  8  3 14 18 19 22 27 29 31
    433045.33000  30473553.22400                    343931.66740  30473558.21740
  38409913.90300  30316270.88900                  29959416.46940  30316275.58840
   2060757.90300  27030205.17000                   1626385.46240  27030209.10740
   -642300.72500  28287140.56000                   -458994.51240  28287144.97840
  25654953.33000  29895905.23200                  20039183.08540  29895908.78340
   -789859.75100  31048547.67800                   -584351.96840  31048552.63540
  28666060.39400  28355969.64600                  18959024.21140  28355973.34940
   -956707.13300  30795710.73200                   -695637.73340  30795715.20940
 96  9 13  4 13  0.0220000  0  8  3 14 18 19 22 27 29 31
    450214.73800  30476820.38900                    357310.43140  30476824.58440
  38583434.09900  30349290.34200                  30094626.99840  30349295.89640
   2101752.09100  27038005.99800                   1658328.99440  27038009.91240
   -623846.35100  28290652.17800                   -444614.46240  28290656.91240
  25814084.07200  29926186.19300                  20163181.06740  29926189.95540
   -803174.02700  31046013.45100                   -594726.69840  31046019.49840
  28783869.85700  28378387.97400                  19050823.78140  28378391.73640
   -981930.97800  30790910.74800                   -715292.67040  30790916.52540
 96  9 13  4 13 30.0220000  0  8  3 14 18 19 22 27 29 31
    467735.28000  30480154.77900                    370962.82440  30480159.13940
  38757056.19100  30382329.55300                  30229916.92440  30382334.99040
   2143131.54000  27045880.17800                   1690572.71940  27045884.22140
   -605189.44800  28294202.45100                   -430076.61740  28294207.47840
  25973421.04800  29956507.66200                  20287339.73540  29956512.27940
   -816415.46400  31043494.52100                   -605044.62040  31043499.53740
  28902019.79200  28400871.09900                  19142888.66140  28400874.82640
  -1007064.44500  30786128.43500                   -734877.15740  30786132.90040
 96  9 13  4 14  0.0220000  0  8  3 14 18 19 22 27 29 31
    485603.90600  30483554.67000                    384886.42140  30483559.38140
  38930760.77100  30415384.41200                  30365271.13740  30415389.22840
   2184882.24300  27053825.10700                   1723105.72940  27053829.11540
   -586359.51100  28297785.63100                   -415403.93040  28297790.62340
  26132937.70600  29986862.81000                  20411638.43540  29986866.49040
   -829601.82000  31040985.25600                   -615319.70740  31040991.02140
  29020492.00500  28423415.90400                  19235204.66940  28423419.59640
  -1032129.80200  30781357.95900                   -754408.57940  30781362.45940
 96  9 13  4 14 30.0220000  0  8  3 14 18 19 22 27 29 31
    503825.83200  30487021.92000                    399085.36140  30487025.55340
  39104560.85000  30448457.55300                  30500699.75940  30448462.34640
   2227028.65700  27061845.55300                   1755947.08940  27061849.46740
   -567347.57600  28301403.49800                   -400589.41840  28301408.37340
  26292656.31000  30017255.73200                  20536094.48240  30017259.98640
   -842737.08100  31038485.24800                   -625554.94040  31038490.08840
  29139304.82500  28446025.29500                  19327786.06940  28446029.13940
  -1057128.76600  30776601.14600                   -773888.27540  30776606.29140
 96  9 13  4 15  0.0230000  0  8  3 14 18 19 22 27 29 31
    522403.11700  30490557.19000                    413561.16640  30490562.00740
  39278450.81500  30481547.91700                  30636198.43040  30481552.96840
   2269560.69800  27069938.87800                   1789088.93940  27069942.78040
   -548156.43700  28305055.37000                   -385635.26740  28305060.28040
  26452572.38200  30047686.80700                  20660704.41040  30047691.21440
   -855846.67100  31035990.09700                   -635770.18540  31035995.54640
  29258431.71400  28468694.18200                  19420612.20740  28468697.63940
  -1082091.35900  30771850.63600                   -793339.61740  30771854.25740
 96  9 13  4 15 30.0230000  0  8  3 14 18 19 22 27 29 31
    541366.54600  30494165.26100                    428337.90440  30494170.37040
  39452426.03100  30514653.90100                  30771763.53240  30514659.21040
   2312490.86900  27078108.33100                   1822541.03140  27078112.33940
   -528780.53000  28308742.52600                   -370537.15340  28308747.24940
  26612686.87300  30078156.08900                  20785468.94940  30078160.76440
   -868905.18900  31033505.55000                   -645945.61140  31033510.64740
  29377881.98400  28491424.70600                  19513690.33140  28491428.05740
  -1107016.75200  30767106.85400                   -812762.01840  30767112.31540
 96  9 13  4 16  0.0230000  0  8  3 14 18 19 22 27 29 31
    560702.07200  30497845.48700                    443404.56840  30497849.88240
  39626459.56600  30547771.54200                  30907374.05440  30547776.27640
   2355794.41900  27086348.89300                   1856284.06440  27086352.70240
   -509247.49500  28312459.39300                   -355316.58640  28312464.05740
  26772992.47900  30108660.49500                  20910382.40640  30108665.17140
   -881923.19500  31031028.67500                   -656089.47640  31031034.14740
  29497644.81000  28514215.06500                  19607012.00540  28514218.58140
  -1131919.15000  30762368.16700                   -832166.44240  30762372.13940
 96  9 13  4 16 30.0230000  0  8  3 14 18 19 22 27 29 31
    580406.74900  30501594.37000
  39800559.22400  30580900.87800                  31043036.12540  30580906.18640
   2399478.02900  27094661.64300                   1890323.24640  27094665.40540
   -489544.99200  28316208.68200                   -339963.98240  28316213.38240
  26933499.90400  30139204.37000                  21035453.11940  30139209.62040
   -894884.82600  31028561.89300                   -666189.40940  31028567.42540
  29617704.92500  28537061.89300                  19700565.32940  28537065.26840
  -1156780.56000  30757638.32300                   -851538.95040  30757642.08540
 96  9 13  4 17  0.0230000  0  8  3 14 18 19 22 27 29 31
    600493.77300  30505416.50300
  39974734.92100  30614045.43200                  31178757.42740  30614050.71840
   2443560.58200  27103049.86200                   1924673.29840  27103053.74140
   -469664.67700  28319991.90100                   -324472.80840  28319996.76440
  27094213.35700  30169787.15900                  21160684.38040  30169792.04640
   -907757.99900  31026112.60400                   -676220.41340  31026118.10040
  29738060.28400  28559964.44800                  19794348.71540  28559968.12840
  -1181563.48300  30752921.74500                   -870850.29040  30752925.03840
 96  9 13  4 17 30.0230000  0  8  3 14 18 19 22 27 29 31
    620941.93700  30509308.16700                      1069.78050  30509311.99940
  40148962.12500  30647200.77600                  31314518.87140  30647206.12040
   2488027.99700  27111512.05000                   1959323.24040  27111515.99940
   -449644.06400  28323801.85400                   -308872.31440  28323806.56540
  27255126.93600  30200408.33100                  21286071.58640  30200413.31140
   -920552.65200  31023677.88600                   -686190.22740  31023682.39740
  29858706.21300  28582922.62000                  19888358.51540  28582925.99540
  -1206251.35100  30748223.33100                   -890087.56940  30748227.66740
 96  9 13  4 18  0.0230000  0  8  3 14 18 19 22 27 29 31
    641765.54500  30513270.62000                     17295.99040  30513275.56540
  40323255.87800  30680367.67500                  31450332.18240  30680372.73740
   2532886.67800  27120048.17500                   1994278.05040  27120052.13640
   -429465.63700  28327641.27600                   -293148.84340  28327645.96440
  27416264.56600  30231071.35400                  21411633.37940  30231075.81940
   -933274.55800  31021256.58100                   -696103.38440  31021261.64340
  29979651.32400  28605937.96400                  19982601.44640  28605941.64340
  -1230815.58300  30743548.51800                   -909228.48940  30743551.78840
 96  9 13  4 18 30.0230000  0  8  3 14 18 19 22 27 29 31
    662967.25100  30517305.43200                     33816.83040  30517309.63940
  40497614.89000  30713546.58900                  31586196.32940  30713551.46440
   2578134.74400  27128658.56500                   2029536.28340  27128662.64340
   -409123.68300  28331512.58100                   -277297.95740  28331517.60840
  27577621.46800  30261776.88600                  21537366.01940  30261781.56140
   -945941.80500  31018845.39300                   -705973.92140  31018851.10040
  30100897.67100  28629009.91700                  20077079.11740  28629013.85440
  -1255261.23100  30738897.74500                   -928277.04440  30738901.60040
 96  9 13  4 19  0.0230000  0  8  3 14 18 19 22 27 29 31
    684540.47500  30521410.73700                     50627.13640  30521415.43640
  40672008.15500  30746732.94000                  31722087.17340  30746737.24140
   2623745.02000  27137337.97200                   2065076.75940  27137341.95640
   -388643.03200  28335409.55000                   -261338.99540  28335414.38940
  27739172.01400  30292519.05000                  21663249.57540  30292523.71440
   -958573.57500  31016442.33900                   -715816.82140  31016447.71840
  30222449.17500  28652140.51800                  20171794.55940  28652144.30440
  -1279593.24700  30734267.53400                   -947237.04340  30734272.35040
 96  9 13  4 19 30.0230000  0  8  3 14 18 19 22 27 29 31
    706521.71300  30525593.27600                     67755.41740  30525597.98740
  40846455.26700  30779929.50300                  31858019.96640  30779933.90940
   2669716.76300  27146086.11200                   2100898.90340  27146090.10840
   -367995.43400  28339338.43200                   -245249.95540  28339343.08540
  27900928.27000  30323300.19800                  21789293.40340  30323304.82740
   -971164.15500  31014046.36200                   -725627.61640  31014051.76440
  30344333.16200  28675334.52600                  20266769.09040  28675337.80740
  -1303796.91700  30729661.37800                   -966097.02140  30729666.68640
 96  9 13  4 20  0.0230000  0  8  3 14 18 19 22 27 29 31
    728915.55700  30529854.65100                     85205.16840  30529859.76140
  41020947.56800  30813133.96400                  31993987.98340  30813138.37040
   2716053.66900  27154903.73700                   2137005.58640  27154907.65140
   -347137.96700  28343307.46400                   -228997.38040  28343312.05740
  28062871.12200  30354116.48700                  21915482.64840  30354120.95240
   -983708.95500  31011659.30700                   -735402.74140  31011665.46040
  30466545.55500  28698590.80700                  20361999.51640  28698594.48740
  -1327885.18400  30725077.50300                   -984867.08340  30725081.60440
 96  9 13  4 20 30.0230000  0  8  3 14 18 19 22 27 29 31
    751715.89800  30534193.90100                    102971.68740  30534197.56940
  41195467.66400  30846344.53400                  32129977.66740  30846348.24940
   2762750.96600  27163789.62800                   2173393.08840  27163793.55440
   -326073.78000  28347316.34700                   -212583.71140  28347321.21040
  28224973.45900  30384964.12800                  22041796.15840  30384968.59340
   -996210.61600  31009280.52600                   -745144.25940  31009284.79240
  30589074.57100  28721907.61200                  20457476.66440  28721911.43240
  -1351863.69700  30720514.42500                  -1003551.61040  30720517.57740
 96  9 13  4 21  0.0230000  0  8  3 14 18 19 22 27 29 31
    774928.55100  30538610.76800                    121059.46040  30538615.47940
  41370012.55200  30879558.83900                  32265986.64840  30879564.18240
   2809823.86100  27172747.65100                   2210073.25840  27172751.62440
   -304800.86500  28351364.33900                   -196007.39940  28351369.05040
  28387225.79500  30415839.84700                  22168226.54440  30415843.45640
  -1008668.29000  31006909.49500                   -754851.49240  31006914.67540
  30711900.31200  28745280.16700                  20553185.01840  28745283.94040
  -1375729.57000  30715972.03400                  -1022148.37540  30715976.79240
 96  9 13  4 21 30.0230000  0  8  3 14 18 19 22 27 29 31
    798565.07600  30543108.55700                    139477.56840  30543114.30040
  41544594.58400  30912780.65100                  32402024.59040  30912785.79640
   2857304.58200  27181783.08100                   2247071.22640  27181786.87840
   -283289.73300  28355457.50300                   -179245.46840  28355462.37840
  28549654.00300  30446748.47200                  22294793.98240  30446752.56140
  -1021076.75700  31004548.06500                   -764520.37640  31004552.72940
  30835037.65700  28768712.35400                  20649136.18540  28768716.18640
  -1399480.30800  30711452.87000                  -1040655.42340  30711458.31940
 96  9 13  4 22  0.0230000  0  8  3 14 18 19 22 27 29 31
    822593.44600  30547680.87000                    158200.99240  30547685.56940
  41719185.68900  30946004.81500                  32538069.56840  30946009.38640
   2905190.10500  27190895.11200                   2284384.62440  27190899.00340
   -261564.62300  28359592.18200                   -162316.80840  28359596.99940
  28712250.54300  30477689.69000                  22421492.57640  30477693.93240
  -1033433.22800  31002196.67500                   -774148.73340  31002200.72940
  30958477.03900  28792202.42500                  20745322.71340  28792206.08140
  -1423132.11900  30706952.16700                  -1059085.39840  30706957.65140
 96  9 13  4 22 30.0230000  0  8  3 14 18 19 22 27 29 31
    847010.38100  30552327.30700                    177227.19140  30552332.89740
  41893792.67700  30979229.55000                  32674126.94440  30979234.64740
   2953469.77400  27200082.38600                   2322005.15640  27200086.22940
   -239672.48100  28363757.94000                   -145257.98340  28363762.46440
  28875017.04200  30508663.66700                  22548323.61040  30508667.56940
  -1045744.73600  30999854.25300                   -783742.06440  30999860.37040
  31082218.55200  28815749.69800                  20841744.65940  28815752.79240
  -1446681.66200  30702470.62800                  -1077435.65840  30702474.00340
 96  9 13  4 23  0.0230000  0  8  3 14 18 19 22 27 29 31
    871830.57500  30557049.97200                    196567.61840  30557053.90940
  42068442.72900  31012465.33100                  32810217.88540  31012470.18240
   3002167.43100  27209349.51100                   2359951.38540  27209353.36640
   -217597.01600  28367958.85400                   -128056.31040  28367963.48340
  29037975.57700  30539673.78400                  22675304.30140  30539678.49540
  -1057986.80300  30997523.73700                   -793281.30040  30997529.72540
  31206294.07700  28839360.47200                  20938426.88540  28839363.63640
  -1470110.61200  30698012.51800                  -1095691.96240  30698018.21440
 96  9 13  4 23 30.0230000  0  8  3 14 18 19 22 27 29 31
    897030.68800  30561846.06500                    216204.09340  30561851.08140
  42243133.43300  31045708.47200                  32946340.49040  31045714.29640
   3051250.48300  27218689.66700                   2398197.91840  27218693.63940
   -195348.33600  28372192.57300                   -110719.66140  28372196.94440
  29201114.16600  30570716.90900                  22802425.27740  30570720.63640
  -1070159.35800  30995207.66700                   -802766.34240  30995212.62440
  31330703.92900  28863034.69800                  21035369.61940  28863038.30740
  -1493418.88300  30693577.40900                  -1113854.25540  30693582.54240
 96  9 13  4 24  0.0230000  0  8  3 14 18 19 22 27 29 31
    922617.35600  30566714.37000                    236141.77940  30566718.33140
  42417885.35500  31078962.73700                  33082510.79340  31078966.71040
   3100717.09600  27228102.94000                   2436743.32640  27228106.97240
   -172943.51200  28376455.99500                    -93261.34240  28376460.20240
  29364406.44100  30601791.25300                  22929665.99940  30601794.96840
  -1082260.10600  30992905.86200                   -812195.45140  30992911.06540
  31455429.44000  28886768.82300                  21132558.31940  28886772.56140
  -1516596.89700  30689166.95600                  -1131915.01940  30689171.08140
 96  9 13  4 24 30.0230000  0  8  3 14 18 19 22 27 29 31
    948608.29600  30571660.28400                    256394.46740  30571665.08940
  42592703.31600  31112228.84700                  33218732.63340  31112233.33540
   3150578.24200  27237591.18200                   2475596.17340  27237595.09740
   -150381.43200  28380749.52600                    -75680.49240  28380753.74540
  29527837.74100  30632891.43200                  23057015.08140  30632895.12440
  -1094316.53700  30990610.65900                   -821590.02740  30990615.65140
  31580452.06100  28910559.97200                  21229978.53440  28910563.90940
  -1539642.09800  30684781.27600                  -1149872.28440  30684785.92940
 96  9 13  4 25  0.0230000  0  8  3 14 18 19 22 27 29 31
    974990.26600  30576680.79200                    276951.84840  30576684.65940
  42767562.65900  31145502.08900                  33354986.63340  31145507.69040
   3200844.20600  27247156.43200                   2514764.45640  27247160.27640
   -127646.22800  28385075.86200                    -57964.73940  28385080.29240
  29691398.92400  30664015.65900                  23184465.33840  30664019.02240
  -1106338.07400  30988323.51100                   -830957.39340  30988328.87840
  31705755.54900  28934404.44800                  21327617.60940  28934408.02240
  -1562561.44100  30680419.77600                  -1167731.51640  30680424.81540
 96  9 13  4 25 30.0230000  0  8  3 14 18 19 22 27 29 31
   1001785.09900  30581780.14300                    297830.96440  30581784.62040
  42942455.64700  31178784.74500                  33491266.84240  31178790.55740
   3251537.71400  27256802.94800                   2554265.89140  27256806.80440
   -104732.26400  28389436.15100                    -40109.69440  28389440.60440
  29855106.93800  30695168.69000                  23312030.03540  30695170.97540
  -1118312.76500  30986044.65900                   -840288.28640  30986049.67540
  31831349.86000  28958304.42500                  21425483.29040  28958308.13940
  -1585340.58900  30676085.35400                  -1185481.47940  30676090.85040
